Date StartTime U_cm/s V_cm/s W_cm/s Ustd_cm/s Vstd_cm/s Wstd_cm/s Uvar_(cm/s)^2 Vvar_(cm/s)^2 Wvar_(cm/s)^2 KE_(m/s)^2 TurbulentKE_(m/s)^2 HorizWindSpeed_cm/s FrictionSpeec_cm/s DragCoef SpeedOfSound_m/s SonicTemperature_C Pressure_mb 
12/19/2013  00:00:00     -225.700      205.050      -49.993      109.813      115.366       69.295    12058.805    13309.296     4801.820        6.282        1.508      304.936       73.956        0.059      335.265        5.780      850.386
12/19/2013  00:01:00     -229.479      204.440      -43.231       88.787      148.331       63.248     7883.059    22002.214     4000.301        6.510        1.694      307.337       54.948        0.032      335.212        5.691      850.365
12/19/2013  00:02:00     -243.255      249.716      -54.048      109.974      185.187       71.720    12094.284    34294.361     5143.687        8.798        2.577      348.613       89.799        0.066      335.234        5.728      850.368
12/19/2013  00:03:00     -322.674      327.069      -70.599      150.940      172.851       83.974    22782.815    29877.469     7051.712       13.788        2.986      459.448       92.836        0.041      335.291        5.825      850.395
12/19/2013  00:04:00     -182.093      264.187      -34.147      125.536      133.806       63.438    15759.318    17903.942     4024.372        7.090        1.884      320.862       54.808        0.029      335.281        5.808      850.400
12/19/2013  00:05:00     -192.317      180.702      -31.873      110.278      138.715       64.595    12161.256    19241.987     4172.471        5.311        1.779      263.892       46.844        0.032      335.289        5.819      850.402
12/19/2013  00:06:00     -223.300      202.734      -40.123      124.589      155.805       73.798    15522.399    24275.200     5446.201        6.890        2.262      301.602       84.469        0.078      335.281        5.807      850.390
12/19/2013  00:07:00     -219.181      290.621      -55.045       99.707      116.972       72.278     9941.470    13682.378     5224.155        8.218        1.442      364.007       66.371        0.033      335.280        5.803      850.402
12/19/2013  00:08:00     -201.794      286.532      -52.667       91.748      106.041       57.344     8417.771    11244.636     3288.389        7.427        1.148      350.459       59.630        0.029      335.310        5.855      850.423
12/19/2013  00:09:00     -170.732      243.886      -18.994      125.434      158.523       74.791    15733.747    25129.619     5593.636        6.772        2.323      297.708       84.272        0.080      335.305        5.846      850.432
12/19/2013  00:10:00     -169.033      204.765      -25.740       93.859      110.450       63.417     8809.452    12199.248     4021.654        4.809        1.252      265.520       52.955        0.040      335.294        5.829      850.413
12/19/2013  00:11:00     -145.980      273.361      -29.535      113.127      126.129       75.356    12797.756    15908.631     5678.589        6.564        1.719      309.897       82.418        0.071      335.356        5.933      850.415
12/19/2013  00:12:00     -195.244      272.313      -46.835      111.137       96.575       69.056    12351.382     9326.740     4768.759        7.045        1.322      335.074       69.115        0.043      335.345        5.914      850.421
12/19/2013  00:13:00     -204.089      337.798      -48.689      108.017      150.067       76.746    11667.604    22519.994     5889.885        9.910        2.004      394.664       61.677        0.024      335.389        5.988      850.407
12/19/2013  00:14:00     -209.642      301.512      -41.929      128.336      132.720       77.506    16470.250    17614.494     6007.134        8.835        2.005      367.231       81.648        0.049      335.376        5.964      850.399
12/19/2013  00:15:00     -218.994      262.347      -45.134       94.840      111.172       58.454     8994.716    12359.251     3416.906        7.179        1.239      341.737       52.296        0.023      335.357        5.934      850.382
12/19/2013  00:16:00     -147.965      222.691      -12.546      108.460      112.201       74.927    11763.491    12589.171     5614.123        5.080        1.498      267.367       68.313        0.065      335.329        5.888      850.378
12/19/2013  00:17:00     -169.121      165.175      -41.474      111.436      104.830       54.831    12418.076    10989.273     3006.399        4.200        1.321      236.399       70.871        0.090      335.315        5.865      850.367
12/19/2013  00:18:00     -142.629      122.303      -10.619      120.125       78.203       52.947    14430.079     6115.735     2803.392        2.938        1.167      187.886       42.712        0.052      335.307        5.852      850.365
12/19/2013  00:19:00     -250.816      208.701      -34.331      111.514      122.782       60.016    12435.415    15075.306     3601.973        6.937        1.556      326.289       63.334        0.038      335.305        5.846      850.366
12/19/2013  00:20:00     -205.638      212.757      -42.510      115.828      113.791       66.391    13416.146    12948.396     4407.724        6.006        1.539      295.893       74.923        0.064      335.278        5.802      850.378
12/19/2013  00:21:00     -157.659      217.991      -27.194       97.049      118.777       62.752     9418.537    14107.973     3937.857        5.029        1.373      269.028       54.564        0.041      335.243        5.744      850.376
12/19/2013  00:22:00     -158.166      182.623      -21.890       84.961      131.102       57.762     7218.376    17187.791     3336.432        4.329        1.387      241.594       60.470        0.063      335.269        5.787      850.355
12/19/2013  00:23:00     -202.081      159.895      -37.775      114.229      102.647       58.433    13048.183    10536.438     3414.410        4.741        1.350      257.688       46.636        0.033      335.280        5.805      850.364
12/19/2013  00:24:00     -158.781      145.974      -36.196       57.098       82.908       41.020     3260.230     6873.764     1682.649        2.982        0.591      215.685       27.393        0.016      335.257        5.768      850.378
12/19/2013  00:25:00     -239.473      226.750      -53.447      119.807      109.001       57.119    14353.739    11881.153     3262.637        7.055        1.475      329.792       63.646        0.037      335.288        5.819      850.372
12/19/2013  00:26:00     -187.151      176.851      -27.495      142.227       86.811       63.926    20228.487     7536.086     4086.540        4.945        1.593      257.491       78.042        0.092      335.261        5.773      850.358
12/19/2013  00:27:00     -137.385      108.432      -13.663       72.258       59.703       41.679     5221.244     3564.475     1737.142        2.067        0.526      175.020       28.735        0.027      335.265        5.782      850.359
12/19/2013  00:28:00      -87.812      130.230      -24.819       54.465      102.471       34.867     2966.431    10500.281     1215.738        1.998        0.734      157.069       33.307        0.045      335.279        5.805      850.345
12/19/2013  00:29:00     -187.960      160.304      -38.439       98.808      112.758       48.770     9762.925    12714.375     2378.482        4.368        1.243      247.035       51.435        0.043      335.294        5.829      850.321
12/19/2013  00:30:00     -205.074      198.266      -49.632      143.847      149.850       72.527    20691.848    22455.066     5260.236        6.611        2.420      285.245       94.763        0.110      335.316        5.866      850.297
12/19/2013  00:31:00     -228.157      172.573      -43.822       94.638      100.815       65.198     8956.286    10163.715     4250.763        5.356        1.169      286.071       67.939        0.056      335.369        5.955      850.276
12/19/2013  00:32:00     -153.075      221.999      -21.088       87.703      114.700       68.571     7691.741    13156.106     4702.034        4.935        1.277      269.658       62.797        0.054      335.391        5.991      850.269
12/19/2013  00:33:00     -166.876      222.173      -36.337      116.065       99.953       64.625    13471.036     9990.668     4176.392        5.308        1.382      277.864       70.616        0.065      335.383        5.977      850.271
12/19/2013  00:34:00     -169.597      259.116      -32.992      113.672      144.578       60.159    12921.411    20902.802     3619.154        6.721        1.872      309.684       62.180        0.040      335.358        5.936      850.270
12/19/2013  00:35:00     -158.795      175.627      -12.516       97.482      103.509       53.791     9502.685    10714.128     2893.480        3.966        1.156      236.772       45.812        0.037      335.333        5.892      850.264
12/19/2013  00:36:00     -156.538      198.983      -45.189       80.642      105.896       46.914     6503.109    11213.970     2200.961        4.303        0.996      253.176       47.282        0.035      335.311        5.857      850.294
12/19/2013  00:37:00     -214.711      226.414      -42.991      143.333      115.115       77.665    20544.349    13251.527     6031.883        6.951        1.991      312.032       74.892        0.058      335.299        5.837      850.314
12/19/2013  00:38:00     -147.418      195.783      -30.803       73.327       99.245       48.543     5376.804     9849.540     2356.452        3.929        0.879      245.078       31.274        0.016      335.274        5.794      850.300
12/19/2013  00:39:00     -166.831      218.844      -23.775      127.814      106.654       70.523    16336.358    11375.117     4973.530        5.448        1.634      275.182       72.370        0.069      335.266        5.783      850.300
12/19/2013  00:40:00     -203.269      266.487      -34.698      115.547      108.147       72.814    13351.025    11695.828     5301.807        7.194        1.517      335.163       59.731        0.032      335.294        5.828      850.299
12/19/2013  00:41:00     -143.148      198.454      -32.629      104.958      105.190       65.410    11016.091    11065.030     4278.462        4.365        1.318      244.695       65.965        0.073      335.256        5.765      850.289
12/19/2013  00:42:00     -221.620      167.196      -39.474      116.034       97.102       64.876    13463.893     9428.728     4208.869        5.286        1.355      277.615       61.681        0.049      335.323        5.877      850.276
12/19/2013  00:43:00     -218.770      200.883      -51.594      106.563      110.956       63.505    11355.566    12311.135     4032.948        5.928        1.385      297.009       72.037        0.059      335.357        5.934      850.276
12/19/2013  00:44:00     -149.032      163.000      -27.319       74.463       70.228       48.433     5544.751     4932.014     2345.713        3.117        0.641      220.861       39.277        0.032      335.301        5.841      850.266
12/19/2013  00:45:00     -191.199      225.190      -32.513      107.729      134.046       69.296    11605.612    17968.448     4801.951        6.134        1.719      295.411       74.159        0.063      335.320        5.871      850.260
12/19/2013  00:46:00     -224.388      202.529      -47.000      101.839      104.263       62.302    10371.194    10870.671     3881.581        5.935        1.256      302.272       59.300        0.038      335.334        5.894      850.266
12/19/2013  00:47:00     -131.638      155.161      -18.183       68.478      101.122       54.392     4689.270    10225.624     2958.460        2.980        0.894      203.479       50.712        0.062      335.304        5.845      850.261
12/19/2013  00:48:00     -171.794       67.894      -26.515       72.415       48.000       51.416     5243.880     2304.032     2643.603        2.251        0.510      184.724       47.068        0.065      335.336        5.899      850.265
12/19/2013  00:49:00     -108.871       27.540       -7.065       62.556       79.949       46.128     3913.264     6391.835     2127.775        1.255        0.622      112.301       37.508        0.112      335.326        5.885      850.252
12/19/2013  00:50:00      -59.680        0.118       -6.938       52.180       35.053       24.300     2722.717     1228.711      590.514        0.408        0.227       59.680       20.118        0.114      335.294        5.833      850.257
12/19/2013  00:51:00     -100.310       23.824      -18.619       75.997       72.182       40.531     5775.490     5210.187     1642.789        1.180        0.631      103.100       46.828        0.206      335.302        5.844      850.275
12/19/2013  00:52:00     -178.270      167.204      -36.878       92.721       91.860       53.326     8597.158     8438.200     2843.630        4.048        0.994      244.412       58.560        0.057      335.395        5.997      850.292
12/19/2013  00:53:00     -130.364      107.080      -14.085       57.437       51.465       35.237     3299.056     2648.694     1241.614        1.792        0.359      168.704       27.438        0.026      335.392        5.995      850.287
12/19/2013  00:54:00     -156.206      122.603      -39.283       73.293       71.073       38.741     5371.836     5051.373     1500.850        2.645        0.596      198.574       38.625        0.038      335.400        6.006      850.278
12/19/2013  00:55:00     -124.804       91.287      -30.547       57.279       83.895       32.583     3280.860     7038.371     1061.680        1.811        0.569      154.627       27.921        0.033      335.316        5.868      850.259
12/19/2013  00:56:00      -51.726       24.340      -18.928       64.097       31.165       42.317     4108.428      971.254     1790.746        0.525        0.344       57.167       35.298        0.381      335.334        5.897      850.255
12/19/2013  00:57:00     -163.656       93.789      -31.812       88.222       78.724       54.407     7783.062     6197.484     2960.085        2.676        0.847      188.625       35.886        0.036      335.374        5.962      850.250
12/19/2013  00:58:00     -183.815       30.644      -11.034      135.760      139.991       62.739    18430.865    19597.348     3936.159        3.840        2.098      186.352       81.664        0.192      335.344        5.913      850.228
12/19/2013  00:59:00     -154.333      -13.081      -17.788       98.108       82.124       59.498     9625.258     6744.407     3539.969        2.210        0.995      154.886       55.996        0.131      335.320        5.872      850.231
12/19/2013  01:00:00     -169.529      -56.607      -28.754       76.227       68.888       36.638     5810.548     4745.513     1342.310        2.233        0.595      178.731       19.521        0.012      335.301        5.843      850.222
12/19/2013  01:01:00      -31.388       32.454       13.697       74.014       74.329       38.516     5478.125     5524.728     1483.457        0.735        0.624       45.150       32.094        0.505      335.319        5.874      850.225
12/19/2013  01:02:00     -122.548      101.345      -21.532      108.020       92.508       58.420    11668.266     8557.780     3412.930        2.469        1.182      159.024       52.588        0.109      335.377        5.968      850.215
12/19/2013  01:03:00     -166.935      165.299      -33.121      111.883      102.767       56.075    12517.820    10561.104     3144.395        4.125        1.311      234.928       66.397        0.080      335.415        6.031      850.227
12/19/2013  01:04:00     -146.130       32.961       -7.008       69.482       76.984       44.571     4827.753     5926.603     1986.542        1.761        0.637      149.801       49.228        0.108      335.347        5.918      850.237
12/19/2013  01:05:00     -169.050      -56.811        0.296      123.307       89.259       45.785    15204.673     7967.172     2096.303        2.853        1.263      178.340       53.139        0.089      335.337        5.901      850.213
12/19/2013  01:06:00     -203.841      -35.560      -11.443       67.957       80.594       33.936     4618.107     6495.413     1151.652        2.760        0.613      206.920       29.828        0.021      335.342        5.909      850.227
12/19/2013  01:07:00      -91.641       28.519       -3.873       51.567       57.338       24.821     2659.195     3287.680      616.073        0.789        0.328       95.976       22.797        0.056      335.285        5.817      850.205
12/19/2013  01:08:00     -180.665      -17.296      -11.213       71.409       44.741       31.596     5099.183     2001.795      998.278        2.058        0.405      181.491       32.416        0.032      335.265        5.782      850.210
12/19/2013  01:09:00     -127.327      -24.950      -12.399       39.232       37.006       23.990     1539.141     1369.417      575.510        1.024        0.174      129.749       13.804        0.011      335.257        5.770      850.212
12/19/2013  01:10:00     -142.684       97.817      -39.536       79.955      107.806       45.790     6392.779    11622.224     2096.689        2.580        1.006      172.994       56.853        0.108      335.328        5.887      850.221
12/19/2013  01:11:00      -99.504      140.828      -21.317       76.438       58.018       42.213     5842.725     3366.099     1781.938        2.059        0.550      172.434       46.922        0.074      335.326        5.883      850.242
12/19/2013  01:12:00     -109.084      152.403      -11.007       82.625       98.146       52.662     6826.894     9632.730     2773.235        2.724        0.962      187.419       56.985        0.092      335.406        6.018      850.233
12/19/2013  01:13:00      -91.057       99.548      -17.198       64.171       47.602       38.301     4117.962     2265.946     1466.937        1.317        0.393      134.912       37.261        0.076      335.430        6.057      850.240
12/19/2013  01:14:00      -30.633      156.695      -12.850       61.221      101.059       48.520     3748.040    10212.824     2354.174        2.098        0.816      159.661       44.925        0.079      335.449        6.089      850.229
12/19/2013  01:15:00      -75.918      100.571       -5.911       80.103       91.849       45.727     6416.527     8436.268     2090.955        1.643        0.847      126.009       46.585        0.137      335.458        6.105      850.231
12/19/2013  01:16:00      -74.105       83.414        0.804       91.299       51.346       40.349     8335.465     2636.391     1628.012        1.252        0.630      111.577       36.957        0.110      335.455        6.099      850.218
12/19/2013  01:17:00      -75.563      138.337      -32.329       41.884       97.430       34.532     1754.260     9492.598     1192.456        1.916        0.622      157.629       41.179        0.068      335.428        6.055      850.219
12/19/2013  01:18:00      -71.622      118.300      -30.959       82.050       56.738       31.161     6732.212     3219.236      970.984        1.550        0.546      138.292       42.412        0.094      335.384        5.978      850.217
12/19/2013  01:19:00       31.767      131.145      -17.766       37.576       42.659       26.013     1411.969     1819.830      676.652        1.122        0.195      134.937       18.841        0.019      335.270        5.791      850.237
12/19/2013  01:20:00       65.140       84.296       -9.931       47.558       56.405       27.546     2261.782     3181.469      758.764        0.882        0.310      106.532       28.163        0.070      335.107        5.521      850.248
12/19/2013  01:21:00       87.830      105.777       -0.750       58.402       49.435       39.153     3410.751     2443.790     1532.988        1.314        0.369      137.488       32.841        0.057      334.973        5.300      850.261
12/19/2013  01:22:00       85.382       49.100        2.031       71.401       35.261       33.765     5098.144     1243.338     1140.063        0.859        0.374       98.493       17.996        0.033      334.917        5.206      850.271
12/19/2013  01:23:00       53.276      106.225      -13.529       47.072       49.894       27.936     2215.792     2489.377      780.436        0.989        0.274      118.836       22.724        0.037      334.821        5.046      850.284
12/19/2013  01:24:00       41.790       95.292       -6.247       41.733       50.236       27.255     1741.637     2523.649      742.820        0.794        0.250      104.052       27.431        0.069      334.797        5.005      850.304
12/19/2013  01:25:00       82.910       48.573        1.410       39.197       50.740       27.943     1536.398     2574.573      780.834        0.706        0.245       96.091       23.459        0.060      334.829        5.059      850.295
12/19/2013  01:26:00       90.040       59.671       24.173       46.568       33.666       30.696     2168.595     1133.374      942.214        0.825        0.212      108.017       14.738        0.019      334.850        5.095      850.289
12/19/2013  01:27:00      100.067       52.574       18.028       38.769       35.353       37.796     1503.048     1249.865     1428.535        0.864        0.209      113.037       22.049        0.038      334.933        5.233      850.294
12/19/2013  01:28:00       87.065       60.597       -1.452       36.649       32.311       26.388     1343.118     1044.030      696.317        0.717        0.154      106.077        9.691        0.008      334.885        5.155      850.321
12/19/2013  01:29:00       43.839       26.083       16.304       25.971       30.045       27.273      674.511      902.719      743.834        0.259        0.116       51.011       19.244        0.142      334.826        5.054      850.350
12/19/2013  01:30:00       85.649       60.411       48.015       48.863       34.215       25.866     2387.600     1170.633      669.024        0.876        0.211      104.810       22.693        0.047      334.750        4.928      850.355
12/19/2013  01:31:00       97.290       60.636       23.865       44.318       36.308       32.834     1964.129     1318.271     1078.053        0.904        0.218      114.639       27.774        0.059      334.674        4.802      850.347
12/19/2013  01:32:00       96.958       74.332       23.697       40.211       31.950       30.821     1616.919     1020.798      949.942        0.954        0.179      122.173       21.687        0.032      334.630        4.729      850.346
12/19/2013  01:33:00       68.009       76.682       -0.937       43.666       33.297       29.851     1906.693     1108.658      891.079        0.721        0.195      102.496       19.347        0.036      334.612        4.700      850.351
12/19/2013  01:34:00       42.741      111.228        1.350       61.140       72.201       44.623     3738.144     5212.940     1991.214        1.257        0.547      119.157       46.382        0.152      334.656        4.771      850.357
12/19/2013  01:35:00      -41.368      228.846      -14.999       67.670       94.442       45.615     4579.162     8919.267     2080.693        3.494        0.779      232.555       51.888        0.050      334.693        4.831      850.347
12/19/2013  01:36:00      -32.155      336.514      -47.322       66.798       61.640       32.663     4462.006     3799.437     1066.890        6.292        0.466      338.046       23.733        0.005      334.712        4.860      850.358
12/19/2013  01:37:00      -66.054      279.458      -36.881       64.775       59.994       33.049     4195.763     3599.271     1092.255        4.635        0.444      287.158       17.284        0.004      334.734        4.896      850.363
12/19/2013  01:38:00      -33.226      348.155      -41.694       56.055       71.208       34.388     3142.117     5070.573     1182.537        6.672        0.470      349.737       25.596        0.005      334.748        4.921      850.361
12/19/2013  01:39:00      -46.531      259.862      -22.394       79.545       92.609       49.979     6327.350     8576.429     2497.932        4.380        0.870      263.995       50.251        0.036      334.745        4.915      850.360
12/19/2013  01:40:00      -17.736      236.936      -16.211       71.047       84.731       51.744     5047.708     7179.353     2677.440        3.581        0.745      237.599       53.114        0.050      334.758        4.936      850.354
12/19/2013  01:41:00      -54.202      341.369      -47.390       46.023       54.548       29.069     2118.102     2975.532      845.031        6.383        0.297      345.645       24.367        0.005      334.751        4.925      850.358
12/19/2013  01:42:00      -28.386      190.723      -16.340       60.158       71.329       38.615     3618.963     5087.840     1491.105        2.382        0.510      192.824       36.148        0.035      334.766        4.951      850.357
12/19/2013  01:43:00      -44.338      200.426      -28.632       63.690       65.318       34.831     4056.396     4266.441     1213.223        2.624        0.477      205.271       28.051        0.019      334.749        4.923      850.348
12/19/2013  01:44:00       -5.592      350.124      -25.468       81.305      161.827       67.264     6610.455    26187.998     4524.464        8.029        1.866      350.169       78.347        0.050      334.718        4.871      850.340
12/19/2013  01:45:00       38.930      121.852        0.305       82.692      106.481       63.385     6837.914    11338.110     4017.603        1.927        1.110      127.920       56.544        0.195      334.678        4.806      850.336
12/19/2013  01:46:00       18.486      180.915      -12.859       70.179      130.507       61.649     4925.066    17032.120     3800.627        2.949        1.288      181.857       73.365        0.163      334.731        4.894      850.344
12/19/2013  01:47:00       10.533      252.872      -26.822       60.252       88.249       38.042     3630.264     7787.851     1447.193        3.882        0.643      253.091       34.662        0.019      334.746        4.917      850.361
12/19/2013  01:48:00       25.074      208.105       -6.759       71.774      127.574       59.103     5151.533    16275.078     3493.126        3.445        1.246      209.610       71.334        0.116      334.701        4.844      850.374
12/19/2013  01:49:00       48.906      166.158        8.111       94.244      122.710       67.236     8881.871    15057.668     4520.692        2.926        1.423      173.206       66.484        0.147      334.691        4.828      850.377
12/19/2013  01:50:00       51.247      167.722        3.471      127.798      114.824       62.608    16332.220    13184.445     3919.725        3.210        1.672      175.376       60.598        0.119      334.658        4.772      850.378
12/19/2013  01:51:00       30.692      157.037      -16.883       72.870      114.246       57.282     5310.017    13052.187     3281.227        2.376        1.082      160.009       63.423        0.157      334.645        4.749      850.407
12/19/2013  01:52:00       41.187      184.152      -14.309       64.485       99.402       62.366     4158.375     9880.761     3889.569        2.687        0.896      188.701       61.795        0.107      334.600        4.675      850.412
12/19/2013  01:53:00       73.952      268.713      -34.350       80.274      210.411       64.555     6443.925    44272.888     4167.316        6.686        2.744      278.703       92.564        0.110      334.627        4.723      850.423
12/19/2013  01:54:00       66.637      222.584       -4.950      102.862      154.565       72.468    10580.658    23890.264     5251.593        4.686        1.986      232.345       86.281        0.138      334.589        4.657      850.450
12/19/2013  01:55:00      134.581      212.640       -3.031      113.484      128.984       96.546    12878.519    16636.796     9321.215        5.108        1.942      251.650       84.826        0.114      334.567        4.620      850.452
12/19/2013  01:56:00       81.160      131.983       21.527      100.957      126.062       80.908    10192.339    15891.673     6546.027        2.854        1.632      154.940       59.707        0.148      334.515        4.535      850.466
12/19/2013  01:57:00       69.557      196.368      -13.205      104.378      116.966       64.098    10894.673    13681.075     4108.556        3.612        1.434      208.323       54.798        0.069      334.492        4.496      850.475
12/19/2013  01:58:00       37.850      154.608       -5.912       78.385       98.870       60.419     6144.286     9775.247     3650.413        2.247        0.978      159.173       62.847        0.156      334.478        4.476      850.474
12/19/2013  01:59:00       55.656      226.796      -23.673       85.232      112.898       53.101     7264.480    12745.863     2819.680        3.896        1.142      233.526       58.013        0.062      334.455        4.436      850.479
12/19/2013  02:00:00       75.445       89.824       23.945      103.453       83.817       81.098    10702.470     7025.348     6576.843        1.932        1.215      117.304       53.792        0.210      334.419        4.378      850.476
12/19/2013  02:01:00       64.321      148.982        9.979       88.739      116.389       76.489     7874.602    13546.428     5850.563        2.685        1.364      162.274       78.555        0.234      334.406        4.356      850.476
12/19/2013  02:02:00       65.945      135.941        0.925       82.728      129.003       69.693     6843.900    16641.777     4857.132        2.558        1.417      151.092       76.474        0.256      334.388        4.325      850.485
12/19/2013  02:03:00       68.571      188.981      -16.801       90.367      106.930       66.235     8166.248    11434.071     4387.021        3.234        1.199      201.036       59.651        0.088      334.369        4.292      850.495
12/19/2013  02:04:00       59.260      158.458       -3.219       64.356      112.314       66.610     4141.712    12614.412     4436.941        2.491        1.060      169.176       68.246        0.163      334.379        4.311      850.516
12/19/2013  02:05:00       35.879      189.186      -19.097       73.237      102.777       56.630     5363.622    10563.172     3206.976        2.829        0.957      192.559       57.859        0.090      334.362        4.282      850.512
12/19/2013  02:06:00       48.638      109.503        2.912       75.289       84.660       53.497     5668.418     7167.249     2861.962        1.503        0.785      119.818       42.385        0.125      334.349        4.261      850.507
12/19/2013  02:07:00       61.996      147.595      -10.369       53.127      100.103       60.324     2822.485    10020.629     3639.002        2.111        0.824      160.087       58.372        0.133      334.338        4.242      850.519
12/19/2013  02:08:00       53.827      174.600       -0.622       92.615      103.883       75.320     8577.524    10791.586     5673.065        2.921        1.252      182.709       75.568        0.171      334.319        4.211      850.527
12/19/2013  02:09:00       71.895      154.208      -24.155       97.312       99.363       53.365     9469.618     9872.975     2847.807        2.586        1.110      170.144       50.523        0.088      334.323        4.218      850.530
12/19/2013  02:10:00       63.157      154.940        2.971       78.874      114.806       56.506     6221.043    13180.442     3192.932        2.530        1.130      167.317       48.524        0.084      334.307        4.192      850.527
12/19/2013  02:11:00       19.527      169.759       -3.810       78.816      123.051       53.695     6211.966    15141.538     2883.205        2.672        1.212      170.878       52.581        0.095      334.297        4.177      850.537
12/19/2013  02:12:00       60.251      153.709       -6.585       76.704      128.471       65.359     5883.567    16504.802     4271.811        2.698        1.333      165.096       64.646        0.153      334.289        4.161      850.541
12/19/2013  02:13:00       71.673      112.304       14.898       80.610       95.358       60.187     6498.052     9093.234     3622.502        1.859        0.961      133.226       52.101        0.153      334.296        4.173      850.546
12/19/2013  02:14:00       65.389      158.207       -0.010      113.260       95.223       65.699    12827.741     9067.433     4316.317        2.775        1.311      171.187       59.380        0.120      334.323        4.217      850.552
12/19/2013  02:15:00       49.511      201.488      -21.097       79.738      124.386       61.323     6358.192    15471.958     3760.479        3.454        1.280      207.482       70.267        0.115      334.324        4.218      850.566
12/19/2013  02:16:00       22.222      240.037      -41.139       59.543       85.657       37.088     3545.346     7337.102     1375.529        3.603        0.613      241.063       29.480        0.015      334.335        4.238      850.587
12/19/2013  02:17:00        4.060      212.715      -19.353       75.765      100.884       44.939     5740.373    10177.682     2019.528        3.179        0.897      212.754       49.417        0.054      334.332        4.233      850.593
12/19/2013  02:18:00       12.460      198.002      -11.250       63.888      120.266       53.440     4081.683    14463.996     2855.829        3.044        1.070      198.394       60.483        0.093      334.311        4.199      850.596
12/19/2013  02:19:00        7.148      278.968      -42.731       51.939       78.667       35.622     2697.623     6188.446     1268.954        4.493        0.508      279.060       39.538        0.020      334.332        4.231      850.611
12/19/2013  02:20:00       -1.227      237.253      -26.730       61.551      124.352       46.047     3788.587    15463.406     2120.286        3.919        1.069      237.256       61.800        0.068      334.280        4.144      850.635
12/19/2013  02:21:00      -11.547      257.295      -31.512       60.889       56.789       36.047     3707.491     3225.039     1299.414        3.778        0.412      257.554       28.324        0.012      334.289        4.157      850.655
12/19/2013  02:22:00      -53.447      317.617      -35.358       55.879       89.342       43.558     3122.475     7982.072     1897.270        5.899        0.650      322.083       48.319        0.023      334.313        4.198      850.657
12/19/2013  02:23:00      -45.001      223.467      -24.920       74.564       82.999       43.516     5559.786     6888.832     1893.635        3.346        0.717      227.953       46.545        0.042      334.307        4.189      850.672
12/19/2013  02:24:00      -38.495      171.869      -24.377       68.803       93.998       43.394     4733.874     8835.543     1883.033        2.353        0.773      176.128       38.989        0.049      334.351        4.265      850.681
12/19/2013  02:25:00      -43.118      272.818      -26.600       62.181      110.734       51.493     3866.425    12262.053     2651.482        4.789        0.939      276.204       62.684        0.052      334.257        4.106      850.690
12/19/2013  02:26:00     -114.196      230.727      -26.749       96.173      135.824       59.935     9249.269    18448.253     3592.230        4.914        1.564      257.441       66.475        0.067      334.222        4.049      850.704
12/19/2013  02:27:00     -119.449      333.713      -39.233      126.127      154.146       76.023    15908.095    23761.095     5779.498        8.630        2.272      354.447       75.558        0.045      334.156        3.940      850.703
12/19/2013  02:28:00     -121.396      206.417      -23.791      119.129      130.889       77.243    14191.639    17131.984     5966.432        4.759        1.865      239.468       78.668        0.108      334.154        3.936      850.696
12/19/2013  02:29:00     -142.771      246.941      -32.327       94.650       97.539       53.202     8958.573     9513.814     2830.500        5.185        1.065      285.243       53.852        0.036      334.077        3.808      850.702
12/19/2013  02:30:00      -92.264      176.065      -24.090       68.192       86.071       38.197     4650.157     7408.250     1459.022        2.680        0.676      198.775       39.701        0.040      334.086        3.823      850.701
12/19/2013  02:31:00      -60.910      244.512      -20.867       71.468       96.687       52.894     5107.743     9348.399     2797.788        4.059        0.863      251.984       54.092        0.046      334.064        3.787      850.698
12/19/2013  02:32:00      -61.007      232.145      -22.042       64.635       99.491       45.507     4177.704     9898.411     2070.912        3.712        0.807      240.027       32.001        0.018      334.057        3.776      850.700
12/19/2013  02:33:00     -103.082      295.161      -27.715       85.475      102.009       46.618     7305.944    10405.739     2173.241        5.920        0.994      312.644       45.870        0.022      333.987        3.658      850.705
12/19/2013  02:34:00      -93.012      288.353      -31.112       85.791      115.518       49.150     7360.111    13344.522     2415.711        5.794        1.156      302.982       49.218        0.026      333.960        3.616      850.700
12/19/2013  02:35:00     -106.085      338.248      -47.759       81.338      115.087       49.102     6615.932    13245.126     2411.052        7.511        1.114      354.493       51.067        0.021      333.924        3.553      850.707
12/19/2013  02:36:00      -74.165      311.352      -48.940       98.656      101.011       54.593     9733.077    10203.156     2980.368        6.387        1.146      320.064       48.554        0.023      333.899        3.513      850.711
12/19/2013  02:37:00      -84.483      335.770      -31.052      106.354      113.165       55.117    11311.095    12806.250     3037.903        7.399        1.358      346.235       52.167        0.023      333.823        3.386      850.703
12/19/2013  02:38:00      -78.171      231.372      -25.458       65.923      119.437       50.638     4345.804    14265.116     2564.236        4.073        1.059      244.221       50.200        0.042      333.823        3.387      850.700
12/19/2013  02:39:00      -76.334      229.932      -22.538       76.265       85.396       50.629     5816.400     7292.485     2563.314        3.744        0.784      242.272       42.193        0.030      333.877        3.477      850.716
12/19/2013  02:40:00      -79.341      264.243      -26.527       93.494      113.749       49.938     8741.087    12938.939     2493.773        5.049        1.209      275.897       48.641        0.031      333.783        3.319      850.714
12/19/2013  02:41:00      -51.332      303.489      -32.353       77.061      110.740       49.286     5938.345    12263.452     2429.111        5.821        1.032      307.800       55.828        0.033      333.765        3.289      850.717
12/19/2013  02:42:00      -93.535      243.823      -24.281       69.885       94.008       54.225     4883.953     8837.504     2940.299        4.272        0.833      261.149       49.787        0.036      333.793        3.335      850.730
12/19/2013  02:43:00     -167.631      304.124      -42.686       85.485      107.302       54.402     7307.756    11513.802     2959.585        7.209        1.089      347.263       57.544        0.027      333.759        3.281      850.744
12/19/2013  02:44:00     -112.075      281.596      -36.441       82.794       90.724       49.308     6854.899     8230.768     2431.262        5.535        0.876      303.079       47.719        0.025      333.739        3.246      850.743
12/19/2013  02:45:00      -40.356      287.880      -32.468       70.009       95.598       45.762     4901.226     9138.952     2094.138        5.084        0.807      290.695       41.949        0.021      333.769        3.297      850.743
12/19/2013  02:46:00      -68.915      273.136      -27.324       79.848      115.171       50.245     6375.777    13264.283     2524.610        5.113        1.108      281.696       55.665        0.039      333.744        3.254      850.754
12/19/2013  02:47:00      -46.864      176.522      -23.683       63.702       79.840       35.411     4058.004     6374.411     1253.955        2.280        0.584      182.637       35.046        0.037      333.794        3.340      850.757
12/19/2013  02:48:00      -78.912      253.706      -31.016       84.920       94.691       40.074     7211.365     8966.395     1605.959        4.467        0.889      265.695       42.243        0.025      333.755        3.273      850.770
12/19/2013  02:49:00      -90.776      255.967      -37.399       72.944      100.052       41.320     5320.868    10010.405     1707.304        4.610        0.852      271.586       40.889        0.023      333.786        3.324      850.791
12/19/2013  02:50:00      -24.307      156.542       -5.842       53.530       86.998       52.917     2865.479     7568.703     2800.243        1.918        0.662      158.418       51.773        0.107      333.804        3.358      850.795
12/19/2013  02:51:00      -40.653      327.450      -30.785       55.182       72.446       39.890     3045.060     5248.386     1591.193        5.985        0.494      329.964       31.158        0.009      333.738        3.242      850.799
12/19/2013  02:52:00      -45.819      306.520      -34.267       53.337      110.713       43.817     2844.884    12257.269     1919.950        5.712        0.851      309.925       50.040        0.026      333.732        3.236      850.799
12/19/2013  02:53:00      -88.748      193.317      -29.088       59.451       91.128       37.253     3534.379     8304.268     1387.789        2.966        0.661      212.715       43.455        0.042      333.799        3.348      850.803
12/19/2013  02:54:00      -38.617      210.298      -18.688       49.207       85.611       38.199     2421.343     7329.308     1459.150        2.864        0.560      213.815       46.677        0.048      333.810        3.366      850.808
12/19/2013  02:55:00      -53.812      180.765      -24.281       52.889       77.161       35.918     2797.216     5953.793     1290.087        2.310        0.502      188.605       39.773        0.044      333.848        3.430      850.829
12/19/2013  02:56:00      -69.598      186.711      -22.895       50.436       83.042       32.420     2543.751     6896.027     1051.029        2.536        0.525      199.261       30.687        0.024      333.785        3.324      850.835
12/19/2013  02:57:00      -54.929      237.257      -24.789       80.699      117.874       45.895     6512.253    13894.372     2106.377        4.121        1.126      243.533       51.726        0.045      333.817        3.378      850.840
12/19/2013  02:58:00      -75.781      195.516      -22.223       74.116       71.109       45.347     5493.125     5056.424     2056.354        2.853        0.630      209.689       38.087        0.033      333.838        3.413      850.843
12/19/2013  02:59:00      -42.197      185.736      -18.345       46.252      101.947       30.384     2139.217    10393.134      923.178        2.503        0.673      190.469       32.826        0.030      333.875        3.475      850.848
12/19/2013  03:00:00      -21.380      145.425      -20.757       44.200       84.379       26.584     1953.647     7119.869      706.718        1.591        0.489      146.988       29.793        0.041      333.862        3.453      850.835
12/19/2013  03:01:00      -34.262       65.149       -1.334       51.102       65.061       33.916     2611.420     4232.871     1150.271        0.671        0.400       73.609       34.389        0.218      333.930        3.569      850.823
12/19/2013  03:02:00      -54.771       79.467       -6.366       58.168       50.885       36.982     3383.514     2589.266     1367.639        0.835        0.367       96.513       30.113        0.097      333.902        3.521      850.826
12/19/2013  03:03:00      -55.093      240.372      -30.507       65.137      103.694       45.640     4242.769    10752.393     2083.009        3.941        0.854      246.605       50.198        0.041      333.853        3.435      850.822
12/19/2013  03:04:00      -83.687      222.856      -24.284       52.530      107.905       45.795     2759.419    11643.511     2097.179        3.688        0.825      238.051       55.857        0.055      333.863        3.453      850.812
12/19/2013  03:05:00      -68.843      150.355       -3.888      108.316       97.039       54.075    11732.375     9416.602     2924.158        2.571        1.204      165.366       56.928        0.119      333.904        3.525      850.795
12/19/2013  03:06:00      -56.084      198.742      -16.957       51.710       99.267       46.389     2673.939     9853.888     2151.930        2.880        0.734      206.504       53.901        0.068      333.873        3.470      850.784
12/19/2013  03:07:00      -89.138      257.214      -30.105       77.118       93.845       44.203     5947.228     8806.972     1953.871        4.586        0.835      272.222       42.146        0.024      333.860        3.448      850.782
12/19/2013  03:08:00      -80.296      171.167      -11.746       51.661       81.568       46.974     2668.873     6653.270     2206.519        2.370        0.576      189.065       52.619        0.077      333.911        3.534      850.795
12/19/2013  03:09:00      -67.433      189.894      -26.881       75.800       93.199       45.584     5745.676     8686.119     2077.916        2.892        0.825      201.511       42.258        0.044      333.939        3.582      850.799
12/19/2013  03:10:00      -68.528      222.889      -19.811       65.109       69.247       32.960     4239.223     4795.123     1086.339        3.244        0.506      233.186       32.711        0.020      333.870        3.465      850.796
12/19/2013  03:11:00      -42.048      191.498      -15.489       60.379       69.328       36.903     3645.613     4806.416     1361.857        2.424        0.491      196.060       36.861        0.035      333.923        3.553      850.806
12/19/2013  03:12:00     -110.981      203.803      -25.416       84.831       70.539       38.088     7196.370     4975.700     1450.707        3.406        0.681      232.061       42.469        0.033      333.910        3.531      850.816
12/19/2013  03:13:00      -88.355      309.036      -33.562       68.965      120.868       42.830     4756.215    14608.977     1834.410        6.281        1.060      321.418       46.155        0.021      333.852        3.435      850.841
12/19/2013  03:14:00     -116.780      197.824      -34.123       84.288      105.500       46.510     7104.476    11130.288     2163.141        3.716        1.020      229.721       40.018        0.030      333.869        3.464      850.864
12/19/2013  03:15:00     -100.488      172.730      -20.014       95.406      108.461       50.165     9102.364    11763.851     2516.501        3.185        1.169      199.834       57.381        0.082      333.930        3.567      850.880
12/19/2013  03:16:00      -91.732      243.242      -23.642       85.448      103.573       54.565     7301.436    10727.345     2977.308        4.457        1.050      259.964       49.327        0.036      333.880        3.481      850.887
12/19/2013  03:17:00      -58.705      257.383      -26.687       63.768      111.911       53.754     4066.341    12523.972     2889.442        4.494        0.974      263.993       56.570        0.046      333.896        3.509      850.887
12/19/2013  03:18:00     -107.739      226.697      -27.611       95.412      122.757       55.655     9103.425    15069.396     3097.428        4.551        1.364      250.997       66.702        0.071      333.873        3.470      850.912
12/19/2013  03:19:00      -88.470      214.518      -21.425       88.020       97.358       49.215     7747.494     9478.547     2422.128        3.697        0.982      232.045       50.977        0.048      333.878        3.479      850.926
12/19/2013  03:20:00     -105.685      192.336      -18.571       85.154      102.375       58.815     7251.135    10480.588     3459.227        3.485        1.060      219.460       48.072        0.048      333.883        3.487      850.926
12/19/2013  03:21:00      -58.575      286.293      -46.352      101.792       62.649       48.781    10361.628     3924.937     2379.610        5.210        0.833      292.223       41.569        0.020      333.818        3.377      850.927
12/19/2013  03:22:00     -184.642      261.510      -56.192       74.282       97.529       52.958     5517.872     9511.850     2804.565        6.173        0.892      320.125       52.256        0.027      333.807        3.359      850.931
12/19/2013  03:23:00     -129.677      352.635      -42.089       86.055      114.565       57.053     7405.431    13125.180     3255.087        8.336        1.189      375.723       59.251        0.025      333.811        3.365      850.943
12/19/2013  03:24:00      -99.350      272.766      -34.392       69.914      112.587       60.189     4888.015    12675.885     3622.753        5.332        1.059      290.296       63.653        0.048      333.821        3.383      850.955
12/19/2013  03:25:00      -52.391      156.441       -6.591       81.173      103.194       55.036     6589.050    10649.025     3029.011        2.376        1.013      164.981       53.980        0.107      333.848        3.431      850.946
12/19/2013  03:26:00      -34.090      328.691      -40.925       80.381      113.063       48.802     6461.163    12783.258     2381.665        6.625        1.081      330.454       43.464        0.017      333.748        3.261      850.929
12/19/2013  03:27:00      -16.525      342.321      -41.513      104.741      145.698       62.815    10970.725    21227.852     3945.705        7.766        1.807      342.719       79.262        0.053      333.711        3.200      850.903
12/19/2013  03:28:00      -32.503      289.324      -28.310       89.176      136.851       71.372     7952.442    18728.331     5093.908        5.867        1.589      291.144       70.157        0.058      333.748        3.262      850.907
12/19/2013  03:29:00       21.564      223.792       -6.020       76.300      158.702       84.331     5821.621    25186.248     7111.779        4.435        1.906      224.829       91.867        0.167      333.667        3.130      850.881
12/19/2013  03:30:00      -43.077      257.631      -26.080       53.686       57.814       34.393     2882.198     3342.410     1182.884        3.816        0.370      261.208       18.720        0.005      333.663        3.120      850.884
12/19/2013  03:31:00      -14.303      223.011      -27.917       70.909       99.213       57.628     5028.084     9843.301     3320.979        3.445        0.910      223.469       62.859        0.079      333.661        3.120      850.889
12/19/2013  03:32:00       18.186      186.036      -19.679       51.133       73.167       46.794     2614.591     5353.401     2189.678        2.274        0.508      186.923       41.800        0.050      333.605        3.026      850.900
12/19/2013  03:33:00       16.057      285.828      -36.993       74.432      115.805       46.034     5540.194    13410.836     2119.111        5.219        1.054      286.279       55.042        0.037      333.576        2.977      850.898
12/19/2013  03:34:00       64.421      172.480       -5.355       95.910       86.830       52.660     9198.671     7539.366     2773.072        2.672        0.976      184.118       45.969        0.062      333.568        2.965      850.891
12/19/2013  03:35:00        5.451      103.859      -12.486       51.180      104.806       41.750     2619.365    10984.310     1743.073        1.316        0.767      104.002       53.912        0.269      333.552        2.941      850.889
12/19/2013  03:36:00       -6.658      200.314      -26.100       63.952      117.370       32.658     4089.847    13775.637     1066.558        2.989        0.947      200.424       44.326        0.049      333.555        2.944      850.898
12/19/2013  03:37:00      -60.426      314.180      -44.237       66.354      106.023       31.354     4402.878    11240.933      983.101        6.047        0.831      319.938       34.801        0.012      333.543        2.923      850.906
12/19/2013  03:38:00      -28.254      163.912      -14.637       83.473       62.630       48.951     6967.715     3922.528     2396.183        2.058        0.664      166.329       35.246        0.045      333.641        3.087      850.906
12/19/2013  03:39:00       11.110      233.988      -20.817       65.337      127.239       54.345     4268.871    16189.796     2953.429        3.936        1.171      234.252       62.982        0.072      333.580        2.983      850.923
12/19/2013  03:40:00      -30.248      310.421      -44.618       81.340      139.288       61.818     6616.203    19401.202     3821.517        6.455        1.492      311.891       73.568        0.056      333.546        2.929      850.916
12/19/2013  03:41:00        1.572      447.245      -48.358       97.635      145.390       82.539     9532.526    21138.293     6812.750       11.992        1.874      447.247       81.090        0.033      333.499        2.850      850.942
12/19/2013  03:42:00      -24.651      359.754      -43.015       98.528      105.405       70.602     9707.673    11110.206     4984.706        7.884        1.290      360.597       56.180        0.024      333.489        2.833      850.948
12/19/2013  03:43:00       10.892      232.345       -8.948       76.115      139.809       67.174     5793.561    19546.691     4512.349        4.201        1.493      232.600       74.009        0.101      333.496        2.846      850.972
12/19/2013  03:44:00      -54.482      336.172      -38.018      100.665      148.791       68.382    10133.447    22138.881     4676.130        7.718        1.847      340.558       67.381        0.039      333.455        2.777      850.988
12/19/2013  03:45:00      -30.959      309.573      -34.502      142.019      161.982       61.955    20169.485    26238.006     3838.433        7.411        2.512      311.118       73.908        0.056      333.410        2.704      850.972
12/19/2013  03:46:00      -56.946      270.078      -22.431       85.397      126.448       62.105     7292.590    15989.014     3857.015        5.191        1.357      276.016       65.133        0.056      333.431        2.737      850.990
12/19/2013  03:47:00       30.466      293.088      -19.115       97.804      194.844       79.671     9565.717    37964.000     6347.431        7.053        2.694      294.667       96.254        0.107      333.369        2.637      850.985
12/19/2013  03:48:00       -1.673      270.276      -27.413       82.291      120.122       68.110     6771.740    14429.389     4638.932        4.982        1.292      270.282       67.165        0.062      333.352        2.609      850.986
12/19/2013  03:49:00       -1.546      244.492      -17.721       99.939      153.732       63.332     9987.775    23633.609     4010.963        4.886        1.882      244.497       70.811        0.084      333.356        2.615      851.013
12/19/2013  03:50:00      -72.189      444.293      -54.681      103.396      106.742       47.077    10690.760    11393.770     2216.235       11.495        1.215      450.120       42.801        0.009      333.322        2.559      851.029
12/19/2013  03:51:00        5.260      190.021       -7.458       78.940      117.475       58.494     6231.590    13800.272     3421.507        2.982        1.173      190.094       60.702        0.102      333.369        2.636      851.043
12/19/2013  03:52:00       41.974      151.336       21.334      102.909      123.570       72.913    10590.229    15269.630     5316.254        2.814        1.559      157.049       78.733        0.251      333.314        2.546      851.043
12/19/2013  03:53:00       28.242      311.379      -37.633       80.941      136.689       60.343     6551.369    18683.788     3641.254        6.402        1.444      312.658       66.185        0.045      333.275        2.481      851.030
12/19/2013  03:54:00       68.114      228.455       11.350      145.143      124.475       81.799    21066.482    15494.069     6691.124        5.010        2.163      238.393       80.410        0.114      333.258        2.451      851.016
12/19/2013  03:55:00      165.512      204.485        7.264      111.295      125.798       87.986    12386.609    15825.110     7741.451        5.260        1.798      263.075       84.830        0.104      333.242        2.425      851.003
12/19/2013  03:56:00       63.000      134.144        1.563       75.499      103.128       65.640     5700.068    10635.322     4308.562        2.130        1.032      148.202       70.169        0.224      333.248        2.436      851.002
12/19/2013  03:57:00       77.439      214.675      -12.596      105.108      122.966       83.987    11047.768    15120.674     7053.764        4.273        1.661      228.215       68.159        0.089      333.232        2.409      850.984
12/19/2013  03:58:00       29.744      213.794      -31.890       76.907      136.747       64.522     5914.739    18699.642     4163.124        3.819        1.439      215.853       70.929        0.108      333.230        2.405      850.989
12/19/2013  03:59:00       69.866      181.961        3.204       80.389      146.350       71.802     6462.433    21418.467     5155.508        3.551        1.652      194.913       79.707        0.167      333.221        2.389      851.003
12/19/2013  04:00:00        7.767      154.599      -16.659       62.294       94.729       52.472     3880.554     8973.604     2753.362        1.992        0.780      154.794       53.419        0.119      333.231        2.409      851.021
12/19/2013  04:01:00       64.349      124.368        8.121       69.553       69.072       56.948     4837.571     4770.931     3243.068        1.626        0.643      140.029       43.001        0.094      333.216        2.383      851.034
12/19/2013  04:02:00       49.651      153.520      -14.566       65.183       97.800       44.747     4248.868     9564.887     2002.335        2.103        0.791      161.349       45.129        0.078      333.212        2.374      851.026
12/19/2013  04:03:00        2.366      163.339        1.130       84.219      109.313       54.722     7092.866    11949.308     2994.452        2.436        1.102      163.356       54.424        0.111      333.211        2.374      851.047
12/19/2013  04:04:00      -34.458      255.837      -24.003       93.827      138.886       56.061     8803.535    19289.265     3142.792        4.922        1.562      258.147       63.798        0.061      333.196        2.351      851.055
12/19/2013  04:05:00        3.215      146.289        5.838      134.407      114.092       67.517    18065.117    13016.901     4558.586        2.854        1.782      146.324       50.606        0.120      333.251        2.441      851.066
12/19/2013  04:06:00      -35.277      254.599      -36.950      108.705      122.930       62.223    11816.776    15111.819     3871.751        4.911        1.540      257.032       66.243        0.066      333.216        2.384      851.094
12/19/2013  04:07:00        5.910      211.975      -30.810       57.366       72.399       34.914     3290.869     5241.552     1219.000        2.783        0.488      212.058       21.994        0.011      333.197        2.350      851.086
12/19/2013  04:08:00       85.362      168.475      -11.545       74.888       83.997       57.478     5608.270     7055.512     3303.771        2.588        0.798      188.866       42.576        0.051      333.155        2.283      851.077
12/19/2013  04:09:00        8.065      195.126       -5.087       75.500      120.537       69.677     5700.237    14529.246     4854.882        3.162        1.254      195.293       71.879        0.135      333.143        2.264      851.078
12/19/2013  04:10:00       48.588      154.480       -9.879       78.304       77.601       51.656     6131.536     6021.980     2668.319        2.057        0.741      161.941       50.139        0.096      333.143        2.265      851.089
12/19/2013  04:11:00      -34.699      135.138      -15.046       63.446       93.401       40.165     4025.457     8723.825     1613.247        1.703        0.718      139.522       52.542        0.142      333.203        2.363      851.089
12/19/2013  04:12:00      -26.240      172.787       -9.840       50.280       74.802       46.357     2528.067     5595.345     2148.942        2.045        0.514      174.768       43.035        0.061      333.253        2.446      851.082
12/19/2013  04:13:00      -57.673      222.756      -24.714       97.960      147.193       52.026     9596.155    21665.864     2706.684        4.376        1.698      230.101       59.691        0.067      333.220        2.389      851.066
12/19/2013  04:14:00      -36.336      239.193        1.312       74.284      169.642       71.390     5518.113    28778.469     5096.597        4.896        1.970      241.937       90.035        0.138      333.188        2.338      851.067
12/19/2013  04:15:00     -135.361      163.652       -8.271      121.032      117.848       58.698    14648.834    13888.093     3445.479        3.857        1.599      212.378       53.699        0.064      333.203        2.362      851.053
12/19/2013  04:16:00      -53.212      294.759      -26.927       66.845       92.314       57.693     4468.215     8521.952     3328.476        5.338        0.816      299.524       52.888        0.031      333.165        2.297      851.072
12/19/2013  04:17:00      -73.573      336.885      -40.213       91.030       90.082       50.937     8286.496     8114.748     2594.579        6.976        0.950      344.825       36.387        0.011      333.105        2.199      851.076
12/19/2013  04:18:00     -120.884      205.495      -25.561      122.020      130.403       65.456    14888.855    17004.980     4284.521        4.683        1.809      238.414       68.126        0.082      333.109        2.208      851.072
12/19/2013  04:19:00      -28.276      142.409      -14.200       70.931      125.439       44.930     5031.264    15735.055     2018.746        2.203        1.139      145.189       51.806        0.127      333.076        2.153      851.075
12/19/2013  04:20:00      -80.129      297.970      -42.588       76.346       83.181       43.601     5828.664     6919.148     1901.006        5.583        0.732      308.556       34.539        0.013      333.039        2.090      851.082
12/19/2013  04:21:00     -100.896      329.201      -46.685       79.633      135.095       56.117     6341.432    18250.549     3149.168        7.423        1.387      344.316       61.809        0.032      332.994        2.015      851.076
12/19/2013  04:22:00      -63.943      206.441      -18.768       50.725      110.176       46.277     2573.021    12138.776     2141.541        3.195        0.843      216.117       49.187        0.052      332.996        2.019      851.080
12/19/2013  04:23:00     -109.882      329.971      -46.341       87.614      119.519       48.867     7676.274    14284.762     2388.027        7.372        1.217      347.786       37.638        0.012      332.993        2.014      851.075
12/19/2013  04:24:00     -165.500      227.814      -37.183      103.936      123.778       61.698    10802.683    15321.019     3806.592        5.530        1.497      281.584       57.723        0.042      333.008        2.038      851.087
12/19/2013  04:25:00     -209.292      258.962      -53.895       94.296      105.559       63.315     8891.705    11142.747     4008.767        6.890        1.202      332.963       60.434        0.033      332.977        1.987      851.088
12/19/2013  04:26:00     -168.160      422.843      -54.518       94.860      129.606       69.422     8998.331    16797.638     4819.417       12.033        1.531      455.054       67.084        0.022      332.967        1.970      851.067
12/19/2013  04:27:00     -180.411      347.194      -55.310      105.576      131.281       61.045    11146.218    17234.762     3726.475        9.412        1.605      391.269       73.262        0.035      332.944        1.932      851.058
12/19/2013  04:28:00     -177.911      180.819      -35.249      105.148      110.601       55.380    11056.154    12232.476     3066.918        4.597        1.318      253.669       53.275        0.044      332.998        2.021      851.058
12/19/2013  04:29:00     -142.989      233.656      -19.068       91.385       96.115       65.223     8351.135     9238.069     4254.076        4.862        1.092      273.936       71.987        0.069      332.983        1.997      851.060
12/19/2013  04:30:00     -152.664      329.430      -46.518      115.647      114.037       68.299    13374.271    13004.373     4664.748        8.251        1.552      363.085       70.600        0.038      332.974        1.981      851.056
12/19/2013  04:31:00     -149.759      346.890      -48.504      110.157      150.150       62.314    12134.647    22545.127     3883.090        9.183        1.928      377.837       56.996        0.023      332.980        1.993      851.060
12/19/2013  04:32:00     -152.115      279.833      -40.370      128.317      192.972       73.745    16465.258    37238.287     5438.369        8.110        2.957      318.505       86.599        0.074      332.996        2.020      851.042
12/19/2013  04:33:00     -183.026      292.150      -58.216      120.621      127.965       63.795    14549.428    16374.947     4069.781        7.861        1.750      344.746       62.151        0.033      332.991        2.010      851.049
12/19/2013  04:34:00     -155.388      314.061      -30.712      106.293      126.850       67.894    11298.175    16090.901     4609.537        7.786        1.600      350.399       53.447        0.023      332.981        1.994      851.062
12/19/2013  04:35:00     -118.029      264.844      -26.134       60.008      126.128       52.156     3601.005    15908.231     2720.228        5.349        1.111      289.954       48.680        0.028      332.985        1.999      851.056
12/19/2013  04:36:00     -134.797      136.946      -20.948       58.659       68.269       40.689     3440.933     4660.704     1655.577        2.356        0.488      192.158       37.275        0.038      332.956        1.953      851.059
12/19/2013  04:37:00     -151.608      164.001      -32.752      122.102       81.388       48.519    14908.946     6624.011     2354.091        3.742        1.194      223.342       46.451        0.043      333.009        2.040      851.068
12/19/2013  04:38:00     -179.941      375.094      -47.995      103.585      131.903       61.542    10729.926    17398.444     3787.449       10.364        1.596      416.022       63.318        0.023      332.964        1.965      851.055
12/19/2013  04:39:00      -96.199      204.411      -29.673       86.192      125.493       49.414     7429.011    15748.586     2441.746        3.876        1.281      225.916       62.438        0.076      332.988        2.007      851.052
12/19/2013  04:40:00      -77.739      239.449      -32.854       84.205      134.298       37.118     7090.413    18035.965     1377.733        4.548        1.325      251.752       47.047        0.035      332.975        1.985      851.039
12/19/2013  04:41:00      -75.760      218.039      -32.341       65.106      103.069       49.292     4238.787    10623.189     2429.710        3.581        0.865      230.825       38.358        0.028      332.996        2.018      851.060
12/19/2013  04:42:00      -38.830      329.476      -31.090       78.314      129.776       59.202     6133.150    16841.885     3504.923        6.875        1.324      331.757       51.210        0.024      332.930        1.909      851.059
12/19/2013  04:43:00      -94.298      196.128      -12.884       87.699      120.809       55.375     7691.186    14594.870     3066.391        3.643        1.268      217.620       65.607        0.091      333.003        2.032      851.074
12/19/2013  04:44:00     -189.131      321.049      -59.922       92.068      150.031       65.668     8476.536    22509.396     4312.238        8.886        1.765      372.616       54.992        0.022      332.912        1.881      851.090
12/19/2013  04:45:00     -111.402      266.277      -25.057       77.902      171.873       53.496     6068.756    29540.321     2861.778        6.120        1.924      288.642       68.986        0.057      332.913        1.882      851.105
12/19/2013  04:46:00      -80.724      229.353      -22.323       86.738      117.525       49.414     7523.468    13812.143     2441.746        4.169        1.189      243.144       50.230        0.043      332.946        1.934      851.099
12/19/2013  04:47:00      -92.765      238.773      -32.427       63.509      106.618       53.766     4033.355    11367.503     2890.749        4.248        0.915      256.160       43.116        0.028      332.958        1.956      851.102
12/19/2013  04:48:00      -99.529      154.394      -18.043       69.087      108.407       49.226     4772.960    11752.066     2423.213        2.651        0.947      183.694       51.682        0.079      332.913        1.884      851.100
12/19/2013  04:49:00     -122.080      210.589      -20.217       74.421      100.179       52.207     5538.479    10035.743     2725.541        3.898        0.915      243.416       49.214        0.041      332.903        1.865      851.100
12/19/2013  04:50:00     -147.906      196.307      -31.210       77.585      112.486       46.739     6019.437    12653.189     2184.547        4.112        1.043      245.790       28.980        0.014      332.836        1.756      851.101
12/19/2013  04:51:00     -157.409      221.276      -27.263      111.315       95.376       55.937    12390.973     9096.646     3128.983        4.955        1.231      271.552       46.986        0.030      332.830        1.744      851.112
12/19/2013  04:52:00     -194.062      292.917      -51.542      115.916      111.355       59.185    13436.561    12400.034     3502.923        7.772        1.467      351.369       52.741        0.023      332.822        1.733      851.122
12/19/2013  04:53:00     -195.713      233.519      -39.949      137.547      123.822       74.113    18919.186    15331.906     5492.673        6.708        1.987      304.688       76.076        0.062      332.817        1.723      851.111
12/19/2013  04:54:00     -212.219      254.791      -62.853      130.599      155.495       62.949    17055.969    24178.662     3962.591        7.954        2.260      331.595       80.174        0.058      332.805        1.703      851.136
12/19/2013  04:55:00     -171.890      273.539      -43.825      116.631      134.788       65.813    13602.744    18167.862     4331.305        7.119        1.805      323.063       69.508        0.046      332.829        1.742      851.120
12/19/2013  04:56:00     -172.951      204.095      -45.753       87.157      111.231       49.266     7596.322    12372.360     2427.182        4.802        1.120      267.520       57.507        0.046      332.800        1.697      851.111
12/19/2013  04:57:00     -167.366      234.722      -36.030      101.704      134.496       61.022    10343.670    18089.301     3723.658        5.827        1.608      288.281       65.158        0.051      332.824        1.735      851.102
12/19/2013  04:58:00     -135.414      270.683      -34.380       92.624      111.506       53.674     8579.258    12433.633     2880.921        5.834        1.195      302.665       54.051        0.032      332.834        1.751      851.072
12/19/2013  04:59:00     -210.478      225.906      -55.776      106.724      133.680       60.460    11390.063    17870.242     3655.441        6.568        1.646      308.763       75.626        0.060      332.834        1.752      851.073
12/19/2013  05:00:00     -125.584      225.096      -34.313       74.653       73.574       46.686     5573.133     5413.162     2179.538        4.039        0.658      257.759       39.749        0.024      332.840        1.762      851.078
12/19/2013  05:01:00     -147.152      218.966      -32.911       73.139      117.489       62.452     5349.327    13803.568     3900.199        4.686        1.153      263.817       57.064        0.047      332.862        1.799      851.100
12/19/2013  05:02:00     -139.730      222.879      -35.044       78.923       84.113       47.688     6228.845     7074.955     2274.186        4.300        0.779      263.058       47.210        0.032      332.870        1.810      851.132
12/19/2013  05:03:00     -129.966      203.047      -26.598       73.931      113.728       47.534     5465.861    12934.165     2259.526        3.974        1.033      241.080       57.684        0.057      332.891        1.847      851.158
12/19/2013  05:04:00     -169.114      254.050      -40.961       92.318      105.419       59.572     8522.549    11113.110     3548.877        5.900        1.159      305.190       56.329        0.034      332.888        1.841      851.180
12/19/2013  05:05:00     -171.010      226.424      -45.397       99.862       78.015       59.976     9972.476     6086.279     3597.080        5.111        0.983      283.747       61.878        0.048      332.895        1.853      851.192
12/19/2013  05:06:00     -125.488      188.018      -27.480       76.142       79.821       44.312     5797.627     6371.470     1963.538        3.299        0.707      226.049       26.120        0.013      332.945        1.935      851.200
12/19/2013  05:07:00     -150.083      199.665      -25.742      111.559      158.168       60.038    12445.422    25017.071     3604.539        5.205        2.053      249.782       71.451        0.082      332.946        1.937      851.203
12/19/2013  05:08:00     -156.227      190.552      -21.341      108.866      103.527       55.755    11851.746    10717.922     3108.618        4.342        1.284      246.408       52.504        0.045      332.923        1.899      851.213
12/19/2013  05:09:00     -126.098      138.346      -11.287       92.602       82.055       54.030     8575.045     6732.966     2919.266        2.669        0.911      187.191       49.484        0.070      332.944        1.934      851.228
12/19/2013  05:10:00     -149.424      197.517      -29.510       76.613       96.722       45.810     5869.587     9355.233     2098.595        3.976        0.866      247.670       38.951        0.025      332.911        1.878      851.231
12/19/2013  05:11:00     -159.783      173.164      -25.447       72.891       85.334       46.750     5313.128     7281.838     2185.608        3.547        0.739      235.619       35.363        0.023      332.907        1.873      851.235
12/19/2013  05:12:00     -174.236      259.538      -38.153       90.211      116.801       58.837     8138.098    13642.377     3461.827        6.220        1.262      312.599       61.847        0.039      332.879        1.825      851.247
12/19/2013  05:13:00     -133.676      151.444      -28.276       60.007       64.469       36.317     3600.860     4156.303     1318.937        2.534        0.454      202.002       33.752        0.028      332.913        1.883      851.273
12/19/2013  05:14:00     -219.031      192.087      -41.123      109.246      115.082       50.456    11934.668    13243.879     2545.801        5.714        1.386      291.328       53.734        0.034      332.904        1.867      851.290
12/19/2013  05:15:00     -144.603      181.462      -29.527       85.069      120.682       60.918     7236.756    14564.175     3711.002        4.011        1.276      232.031       65.259        0.079      332.915        1.886      851.304
12/19/2013  05:16:00     -148.657      159.205      -30.152       85.023       77.090       43.380     7228.970     5942.874     1881.820        3.170        0.753      217.819       37.075        0.029      332.947        1.938      851.325
12/19/2013  05:17:00     -147.190      155.802      -21.399      113.168      122.890       62.554    12806.999    15101.855     3913.009        3.910        1.591      214.334       75.845        0.125      332.984        1.999      851.346
12/19/2013  05:18:00     -175.978      178.384      -31.466      102.629      107.502       57.970    10532.667    11556.636     3360.549        4.461        1.272      250.577       64.490        0.066      332.922        1.898      851.351
12/19/2013  05:19:00     -143.649      148.431      -31.453       59.238       86.136       39.479     3509.114     7419.365     1558.556        2.807        0.624      206.560       39.185        0.036      332.924        1.902      851.378
12/19/2013  05:20:00     -136.704      194.911      -35.836       51.140       87.125       38.021     2615.250     7590.807     1445.569        3.481        0.583      238.072       27.491        0.013      332.936        1.919      851.402
12/19/2013  05:21:00     -133.983      155.210      -28.508       63.026       84.829       35.684     3972.244     7195.914     1273.342        2.765        0.622      205.041       34.495        0.028      332.971        1.978      851.439
12/19/2013  05:22:00     -226.140      252.859      -61.927       82.639       98.064       51.047     6829.155     9616.455     2605.765        6.898        0.953      339.230       54.456        0.026      332.904        1.866      851.477
12/19/2013  05:23:00     -120.529      140.161      -24.480       50.787       67.904       39.746     2579.340     4610.993     1579.713        2.177        0.439      184.857       30.767        0.028      332.939        1.928      851.490
12/19/2013  05:24:00     -153.699      166.962      -31.479       55.871       75.589       33.751     3121.553     5713.672     1139.124        3.123        0.499      226.936       34.009        0.022      332.919        1.892      851.493
12/19/2013  05:25:00     -220.246      180.525      -47.218       98.031       71.617       53.934     9610.133     5129.008     2908.859        5.048        0.882      284.777       50.076        0.031      332.920        1.892      851.506
12/19/2013  05:26:00     -135.625      167.733      -28.025       78.283       89.037       40.442     6128.201     7927.665     1635.573        3.150        0.785      215.704       46.113        0.046      332.938        1.923      851.535
12/19/2013  05:27:00     -128.163      214.978      -35.335       68.130       86.074       46.182     4641.727     7408.809     2132.755        3.903        0.709      250.282       43.227        0.030      332.983        1.997      851.555
12/19/2013  05:28:00     -197.730      219.047      -52.189       95.355       71.172       48.968     9092.643     5065.463     2397.894        5.318        0.828      295.091       50.283        0.029      332.930        1.908      851.575
12/19/2013  05:29:00     -129.134      101.236       -9.963       87.903       85.980       48.130     7727.017     7392.495     2316.468        2.223        0.872      164.086       46.269        0.080      332.977        1.987      851.577
12/19/2013  05:30:00     -120.778      109.830      -18.104       79.637       72.678       47.385     6342.120     5282.094     2245.360        2.042        0.693      163.249       53.294        0.107      332.966        1.971      851.584
12/19/2013  05:31:00     -131.494       91.656      -21.592       69.382      119.378       48.227     4813.890    14251.133     2325.841        2.377        1.070      160.286       61.119        0.145      332.981        1.995      851.594
12/19/2013  05:32:00     -160.032      196.957      -27.823       98.054      132.809       61.885     9614.632    17638.224     3829.784        4.812        1.554      253.776       59.314        0.055      332.963        1.965      851.619
12/19/2013  05:33:00     -149.532      138.979      -26.400       73.442       61.844       41.091     5393.744     3824.724     1688.473        2.664        0.545      204.144       30.842        0.023      332.977        1.988      851.646
12/19/2013  05:34:00     -155.493      195.264      -26.896       89.901       81.462       51.046     8082.110     6635.999     2605.658        4.017        0.866      249.612       49.497        0.039      332.995        2.017      851.674
12/19/2013  05:35:00     -170.375      218.675      -39.147       90.829       75.663       54.147     8249.850     5724.922     2931.892        4.764        0.845      277.211       57.211        0.043      332.989        2.007      851.693
12/19/2013  05:36:00     -219.495      215.539      -46.035      100.771       87.277       57.601    10154.872     7617.221     3317.927        5.892        1.055      307.628       57.153        0.035      332.980        1.993      851.717
12/19/2013  05:37:00     -145.234      211.933      -37.818       58.463       64.528       44.592     3417.929     4163.917     1988.452        3.850        0.479      256.921       37.150        0.021      332.968        1.971      851.743
12/19/2013  05:38:00     -153.445      201.287      -23.715       83.670      104.549       45.902     7000.707    10930.483     2107.005        4.233        1.002      253.104       45.999        0.033      332.980        1.993      851.761
12/19/2013  05:39:00     -106.008      127.890      -11.161      124.366       77.718       57.221    15466.794     6040.065     3274.249        2.625        1.239      166.113       52.357        0.099      332.994        2.016      851.788
12/19/2013  05:40:00     -194.773      225.492      -35.764      126.000      119.346       50.727    15875.991    14243.353     2573.184        6.137        1.635      297.964       43.244        0.021      332.975        1.984      851.789
12/19/2013  05:41:00     -155.452      150.900      -26.547       99.028      107.207       48.916     9806.625    11493.420     2392.804        3.566        1.185      216.647       47.661        0.048      332.977        1.988      851.831
12/19/2013  05:42:00     -158.213      202.019      -25.654      124.250      122.464       65.725    15438.069    14997.520     4319.837        5.062        1.738      256.599       74.663        0.085      332.931        1.912      851.828
12/19/2013  05:43:00     -175.451      227.075      -49.604      112.743      127.689       63.303    12710.966    16304.425     4007.227        5.891        1.651      286.961       69.424        0.059      332.933        1.914      851.830
12/19/2013  05:44:00     -188.642      338.606      -51.636      110.510      116.480       62.412    12212.350    13567.530     3895.207        9.129        1.484      387.608       67.424        0.030      332.887        1.840      851.840
12/19/2013  05:45:00     -212.741      235.481      -46.649      122.018      117.577       56.319    14888.286    13824.238     3171.793        6.738        1.594      317.348       67.347        0.045      332.886        1.838      851.855
12/19/2013  05:46:00     -123.967      191.153      -21.930       96.740       91.825       61.163     9358.668     8431.837     3740.931        3.696        1.077      227.832       54.474        0.057      332.875        1.821      851.875
12/19/2013  05:47:00     -159.259      161.594      -35.602      100.785      101.097       49.005    10157.635    10220.654     2401.464        3.776        1.139      226.884       54.094        0.057      332.892        1.848      851.898
12/19/2013  05:48:00     -106.758      160.968      -16.225       85.147       91.208       58.987     7250.058     8318.990     3479.505        2.831        0.952      193.153       53.406        0.076      332.874        1.818      851.901
12/19/2013  05:49:00      -78.005      124.911       -7.640       71.977       89.236       68.686     5180.705     7963.057     4717.814        1.980        0.893      147.267       60.603        0.169      332.936        1.921      851.907
12/19/2013  05:50:00     -145.130      317.186      -47.811      104.088      112.812       63.121    10834.363    12726.655     3984.262        7.575        1.377      348.812       53.852        0.024      332.849        1.775      851.915
12/19/2013  05:51:00     -178.820      147.103      -28.762       70.992       98.801       64.143     5039.915     9761.560     4114.387        3.668        0.946      231.551       57.794        0.062      332.795        1.688      851.913
12/19/2013  05:52:00     -143.751      230.526      -25.939       84.856      103.658       62.348     7200.521    10745.022     3887.229        4.815        1.092      271.673       61.508        0.051      332.760        1.629      851.923
12/19/2013  05:53:00      -97.762      264.744      -23.001       64.763      127.534       51.594     4194.251    16264.981     2661.904        5.164        1.156      282.218       55.121        0.038      332.795        1.689      851.939
12/19/2013  05:54:00     -183.424      260.583      -49.260       71.962       86.503       52.779     5178.524     7482.715     2785.617        5.971        0.772      318.666       52.644        0.027      332.768        1.642      851.948
12/19/2013  05:55:00     -176.243      134.019      -33.046      111.983      107.194       60.335    12540.270    11490.541     3640.350        3.889        1.384      221.410       56.648        0.065      332.745        1.606      851.947
12/19/2013  05:56:00     -115.439      163.380      -24.994       84.711       92.677       53.824     7175.898     8589.075     2897.001        2.965        0.933      200.048       52.537        0.069      332.753        1.618      851.964
12/19/2013  05:57:00     -146.470      236.171      -27.307       96.966      140.417       56.345     9402.354    19716.930     3174.720        5.513        1.615      277.904       65.759        0.056      332.737        1.592      851.985
12/19/2013  05:58:00     -191.933      158.360      -31.720       88.449      117.568       47.560     7823.180    13822.134     2261.918        4.341        1.195      248.830       48.114        0.037      332.715        1.556      851.983
12/19/2013  05:59:00     -186.489      290.267      -39.049       90.840      118.105       62.796     8251.941    13948.867     3943.345        7.335        1.307      345.011       61.678        0.032      332.686        1.508      851.987
12/19/2013  06:00:00     -197.635      235.988      -47.498       76.230      100.754       49.057     5810.986    10151.411     2406.612        5.768        0.918      307.815       37.541        0.015      332.699        1.528      852.004
12/19/2013  06:01:00     -190.220      277.814      -52.604       97.312      112.921       50.655     9469.529    12751.187     2565.954        7.045        1.239      336.696       51.700        0.024      332.707        1.541      852.009
12/19/2013  06:02:00     -110.406      262.740      -41.384       71.555       95.879       43.315     5120.070     9192.827     1876.152        4.956        0.809      284.994       36.502        0.016      332.718        1.561      852.028
12/19/2013  06:03:00     -144.955      232.342      -39.600       62.078       67.497       40.671     3853.715     4555.850     1654.123        4.331        0.503      273.851       38.785        0.020      332.712        1.548      852.031
12/19/2013  06:04:00      -67.442      168.001       -2.818       70.244      124.384       52.565     4934.253    15471.387     2763.063        2.797        1.158      181.032       66.758        0.136      332.779        1.661      852.034
12/19/2013  06:05:00      -71.108       40.754        2.396       55.563       50.228       31.994     3087.218     2522.899     1023.616        0.668        0.332       81.959       35.114        0.184      332.780        1.666      852.031
12/19/2013  06:06:00      -87.628      103.337      -22.034       65.663       83.333       37.717     4311.631     6944.380     1422.541        1.576        0.634      135.488       41.696        0.095      332.759        1.628      852.042
12/19/2013  06:07:00     -131.135      319.847      -37.483       68.430      109.807       47.683     4682.698    12057.634     2273.652        6.996        0.951      345.686       53.946        0.024      332.714        1.554      852.045
12/19/2013  06:08:00     -103.060      169.063      -16.903       56.070       80.217       43.247     3143.847     6434.811     1870.277        2.547        0.572      197.999       38.257        0.037      332.759        1.630      852.060
12/19/2013  06:09:00      -96.874      130.863      -10.110       96.493      104.861       49.096     9310.822    10995.798     2410.453        2.466        1.136      162.818       54.243        0.111      332.819        1.728      852.079
12/19/2013  06:10:00      -86.799      112.341      -16.876       67.386       69.731       41.881     4540.842     4862.373     1754.007        1.580        0.558      141.967       38.720        0.074      332.779        1.662      852.086
12/19/2013  06:11:00      -75.981      121.954      -18.319       60.712       54.790       27.708     3685.895     3001.994      767.735        1.422        0.373      143.687       25.762        0.032      332.882        1.832      852.096
12/19/2013  06:12:00     -181.659      140.824      -28.675      109.841       88.666       54.172    12065.036     7861.580     2934.588        3.825        1.143      229.851       58.399        0.065      332.739        1.594      852.094
12/19/2013  06:13:00      -51.852      100.062      -16.132       51.976       70.333       27.607     2701.544     4946.797      762.147        1.068        0.421      112.699       20.145        0.032      332.791        1.684      852.106
12/19/2013  06:14:00      -84.364      195.549      -28.159       57.757      137.681       41.677     3335.886    18955.946     1736.962        3.509        1.201      212.971       50.853        0.057      332.763        1.636      852.115
12/19/2013  06:15:00     -114.108      194.970      -29.536       66.275       81.582       47.398     4392.419     6655.577     2246.604        3.260        0.665      225.907       46.441        0.042      332.782        1.664      852.123
12/19/2013  06:16:00     -124.387      110.779      -19.498       83.156       70.259       41.816     6914.918     4936.360     1748.539        2.086        0.680      166.566       26.745        0.026      332.803        1.702      852.147
12/19/2013  06:17:00      -80.363      121.767      -21.815       60.073       71.254       34.842     3608.774     5077.130     1213.941        1.583        0.495      145.895       33.349        0.052      332.818        1.728      852.173
12/19/2013  06:18:00     -154.245      269.193      -43.220       72.289      143.193       57.661     5225.696    20504.360     3324.835        6.358        1.453      310.252       68.859        0.049      332.719        1.562      852.204
12/19/2013  06:19:00     -125.282      178.310      -29.928       90.175       76.324       34.585     8131.453     5825.390     1196.127        3.177        0.758      217.922       43.235        0.039      332.745        1.604      852.233
12/19/2013  06:20:00      -38.382      254.090      -34.223       60.605       68.978       48.071     3672.936     4758.021     2310.861        3.897        0.537      256.973       33.048        0.017      332.806        1.702      852.261
12/19/2013  06:21:00      -97.677      173.235      -28.807       70.262       81.931       37.268     4936.814     6712.611     1388.919        2.671        0.652      198.874       35.972        0.033      332.828        1.742      852.294
12/19/2013  06:22:00      -79.449      194.212      -31.797       75.518       93.491       48.448     5702.984     8740.635     2347.240        3.091        0.840      209.834       46.841        0.050      332.787        1.674      852.322
12/19/2013  06:23:00      -88.911      237.568      -30.781       56.837       98.724       45.621     3230.410     9746.511     2081.293        4.017        0.753      253.661       47.699        0.035      332.818        1.724      852.348
12/19/2013  06:24:00     -129.762      277.504      -38.886       79.955      101.115       55.102     6392.859    10224.278     3036.279        5.750        0.983      306.344       49.087        0.026      332.770        1.645      852.365
12/19/2013  06:25:00     -107.051      239.762      -27.853       57.744       84.165       40.828     3334.356     7083.733     1666.951        4.090        0.604      262.576       36.747        0.020      332.790        1.677      852.402
12/19/2013  06:26:00      -89.904      166.112      -14.930       53.807       72.611       41.418     2895.193     5272.334     1715.460        2.289        0.494      188.881       43.047        0.052      332.842        1.765      852.431
12/19/2013  06:27:00      -95.139      223.998      -21.483       53.142       88.422       39.624     2824.073     7818.504     1570.054        3.595        0.611      243.365       42.539        0.031      332.840        1.761      852.459
12/19/2013  06:28:00     -117.938      136.162      -23.808       52.241       61.315       41.206     2729.149     3759.518     1697.899        2.060        0.409      180.138       28.421        0.025      332.844        1.769      852.493
12/19/2013  06:29:00     -106.336      160.867      -26.987       91.659       65.735       42.490     8401.448     4321.101     1805.442        2.622        0.726      192.836       34.692        0.032      332.899        1.859      852.519
12/19/2013  06:30:00     -139.331      254.908      -41.663       78.883      101.218       59.716     6222.465    10245.116     3566.035        5.308        1.002      290.502       38.662        0.018      332.809        1.710      852.549
12/19/2013  06:31:00     -131.029      163.293      -19.103       89.175       97.462       60.257     7952.122     9498.933     3630.847        3.264        1.054      209.364       57.433        0.075      332.876        1.822      852.570
12/19/2013  06:32:00     -169.616      222.296      -39.607       90.602      107.439       53.113     8208.707    11543.082     2820.965        5.116        1.129      279.616       48.679        0.030      332.851        1.779      852.590
12/19/2013  06:33:00     -143.683      196.415      -34.819      110.829      102.450       56.181    12283.130    10495.954     3156.295        4.318        1.297      243.359       56.467        0.054      332.830        1.746      852.622
12/19/2013  06:34:00     -229.004      279.512      -56.814      118.679      148.231       67.762    14084.588    21972.286     4591.646        8.722        2.032      361.344       73.928        0.042      332.783        1.666      852.644
12/19/2013  06:35:00     -159.184      258.871      -33.755      106.070      111.393       67.795    11250.830    12408.310     4596.197        6.087        1.413      303.897       66.626        0.048      332.804        1.701      852.664
12/19/2013  06:36:00     -172.111      307.736      -53.403      102.315      120.492       65.366    10468.339    14518.209     4272.776        7.821        1.463      352.596       61.552        0.030      332.790        1.678      852.688
12/19/2013  06:37:00     -185.358      286.356      -45.731      115.780      114.066       67.600    13405.108    13010.975     4569.817        7.471        1.549      341.112       69.712        0.042      332.784        1.668      852.704
12/19/2013  06:38:00     -110.617      205.057      -24.920       81.077      101.573       58.470     6573.544    10316.978     3418.763        3.760        1.015      232.990       56.896        0.060      332.837        1.759      852.721
12/19/2013  06:39:00     -164.533      218.797      -26.733      113.371      115.911       65.522    12852.945    13435.431     4293.180        5.311        1.529      273.758       63.525        0.054      332.784        1.668      852.724
12/19/2013  06:40:00     -166.696      243.857      -40.959      100.554      125.937       69.070    10111.065    15860.219     4770.628        5.983        1.537      295.387       57.225        0.038      332.765        1.637      852.734
12/19/2013  06:41:00     -207.998      118.653      -29.171      129.857       83.910       40.392    16862.753     7040.854     1631.547        4.186        1.277      239.461       40.466        0.029      332.738        1.594      852.741
12/19/2013  06:42:00     -173.418      264.365      -39.368       93.978      101.347       63.693     8831.848    10271.113     4056.739        6.233        1.158      316.168       54.853        0.030      332.725        1.571      852.775
12/19/2013  06:43:00     -234.928      345.963      -56.355      119.798      172.399       75.290    14351.602    29721.289     5668.605       11.389        2.487      418.189       87.873        0.044      332.704        1.538      852.815
12/19/2013  06:44:00     -178.677      212.326      -44.112      101.754      123.896       56.893    10353.822    15350.150     3236.812        5.394        1.447      277.503       47.906        0.030      332.729        1.577      852.816
12/19/2013  06:45:00     -177.194      156.978      -22.809      115.050       87.596       56.958    13236.532     7673.036     3244.269        4.035        1.208      236.727       60.470        0.065      332.726        1.574      852.812
12/19/2013  06:46:00     -149.493      261.369      -29.782       69.457       97.030       59.603     4824.290     9414.863     3552.530        5.467        0.890      301.101       55.806        0.034      332.690        1.515      852.834
12/19/2013  06:47:00     -158.248      193.771      -33.955       55.390       91.123       42.177     3068.026     8303.418     1778.869        3.844        0.658      250.179       41.946        0.028      332.687        1.509      852.847
12/19/2013  06:48:00     -171.720      251.334      -37.956       77.509      115.243       48.559     6007.661    13280.967     2357.947        5.787        1.082      304.395       50.829        0.028      332.660        1.464      852.849
12/19/2013  06:49:00     -192.712      197.373      -41.474      120.695       89.499       62.259    14567.173     8010.000     3876.174        5.213        1.323      275.851       69.931        0.064      332.673        1.485      852.858
12/19/2013  06:50:00     -148.246      177.350      -36.004       72.756       89.916       50.572     5293.476     8084.969     2557.577        3.533        0.797      231.149       47.182        0.042      332.678        1.495      852.884
12/19/2013  06:51:00     -248.358      334.815      -69.819       97.674      136.097       61.948     9540.214    18522.307     3837.510       10.527        1.595      416.872       65.566        0.025      332.658        1.460      852.906
12/19/2013  06:52:00     -146.645      232.497      -33.888      114.995      144.294       66.625    13223.861    20820.641     4438.862        5.759        1.924      274.881       74.528        0.074      332.668        1.477      852.936
12/19/2013  06:53:00     -186.482      257.691      -58.099       80.224       93.042       51.814     6435.832     8656.802     2684.697        6.116        0.889      318.089       42.435        0.018      332.653        1.452      852.970
12/19/2013  06:54:00     -191.399      295.183      -47.580      135.929      192.430       75.305    18476.571    37029.307     5670.916        9.359        3.059      351.805       85.399        0.059      332.660        1.465      853.002
12/19/2013  06:55:00     -150.831      219.566      -35.322      108.390       94.837       55.441    11748.320     8994.106     3073.721        4.801        1.191      266.381       57.474        0.047      332.689        1.512      853.037
12/19/2013  06:56:00     -139.521      190.284      -34.318       87.628       94.205       49.512     7678.658     8874.633     2451.391        3.793        0.950      235.954       50.699        0.046      332.708        1.545      853.048
12/19/2013  06:57:00     -134.557      192.942      -14.438       98.021      101.097       75.138     9608.175    10220.598     5645.772        4.050        1.274      235.228       65.589        0.078      332.697        1.526      853.051
12/19/2013  06:58:00     -145.539      284.428      -45.121       85.759      141.653       66.754     7354.614    20065.468     4456.057        6.799        1.594      319.501       70.560        0.049      332.641        1.431      853.043
12/19/2013  06:59:00     -162.254      264.653      -32.159       95.710      108.065       56.169     9160.337    11678.136     3154.952        6.069        1.200      310.431       49.916        0.026      332.643        1.436      853.038
12/19/2013  07:00:00     -253.755      215.104      -46.459      112.366      125.007       62.966    12626.057    15626.831     3964.724        7.251        1.611      332.658       72.745        0.048      332.616        1.391      853.028
12/19/2013  07:01:00     -184.235      336.978      -46.610      141.119      171.566       84.384    19914.685    29434.812     7120.663       10.306        2.824      384.053       98.140        0.065      332.601        1.366      853.022
12/19/2013  07:02:00     -206.790      322.819      -56.670      115.832      110.836       65.229    13416.950    12284.567     4254.775        9.007        1.498      383.373       74.202        0.037      332.565        1.307      853.039
12/19/2013  07:03:00     -199.712      326.503      -46.053      154.595      110.344       73.052    23899.482    12175.835     5336.585        9.500        2.071      382.739       80.318        0.044      332.572        1.319      853.049
12/19/2013  07:04:00     -209.305      274.662      -46.660      109.743      146.926       69.914    12043.572    21587.132     4887.944        7.997        1.926      345.322       72.645        0.044      332.598        1.362      853.062
12/19/2013  07:05:00     -173.429      242.040      -28.535      100.069      108.629       65.922    10013.804    11800.291     4345.656        5.781        1.308      297.759       66.180        0.049      332.579        1.330      853.076
12/19/2013  07:06:00     -184.940      243.898      -57.373      123.955      143.817       61.334    15364.926    20683.217     3761.888        6.839        1.991      306.086       84.281        0.076      332.570        1.316      853.110
12/19/2013  07:07:00     -196.245      191.340      -43.811       84.893      130.507       57.195     7206.904    17032.147     3271.301        5.227        1.376      274.086       64.509        0.055      332.586        1.342      853.154
12/19/2013  07:08:00     -120.213      216.993      -34.638       86.322      121.202       50.903     7451.501    14690.006     2591.144        4.373        1.237      248.066       54.528        0.048      332.613        1.386      853.187
12/19/2013  07:09:00     -138.107      282.223      -45.466       95.061      145.160       64.164     9036.663    21071.342     4116.956        6.750        1.711      314.203       48.640        0.024      332.602        1.367      853.207
12/19/2013  07:10:00     -230.382      226.610      -56.800       95.523       92.691       49.681     9124.665     8591.713     2468.226        6.392        1.009      323.153       46.867        0.021      332.553        1.285      853.235
12/19/2013  07:11:00     -139.959      224.960      -22.323      127.325      142.940       69.855    16211.746    20431.728     4879.660        5.610        2.076      264.945       78.584        0.088      332.609        1.379      853.287
12/19/2013  07:12:00     -216.135      331.220      -49.406       94.098      136.414       68.233     8854.365    18608.708     4655.705        9.548        1.606      395.501       65.278        0.027      332.532        1.253      853.346
12/19/2013  07:13:00     -192.683      246.316      -41.293      115.123      100.150       65.622    13253.376    10030.114     4306.306        6.354        1.379      312.727       61.761        0.039      332.533        1.253      853.393
12/19/2013  07:14:00     -181.377      225.514      -37.080      106.297      115.898       69.407    11299.032    13432.445     4817.265        5.733        1.477      289.403       69.464        0.058      332.563        1.302      853.426
12/19/2013  07:15:00     -213.606      324.733      -49.475      151.483      142.156       81.463    22947.219    20208.264     6636.181       10.165        2.490      388.689       94.324        0.059      332.513        1.222      853.453
12/19/2013  07:16:00     -250.989      240.939      -57.368       99.686      109.682       58.958     9937.339    12030.059     3476.002        7.489        1.272      347.919       51.484        0.022      332.503        1.204      853.470
12/19/2013  07:17:00     -193.248      276.640      -45.910      121.347      123.629       66.562    14725.168    15284.061     4430.434        7.521        1.722      337.453       59.506        0.031      332.512        1.219      853.500
12/19/2013  07:18:00     -240.020      277.012      -54.933      103.235      114.889       65.506    10657.465    13199.440     4291.089        8.275        1.407      366.532       59.886        0.027      332.490        1.185      853.540
12/19/2013  07:19:00     -200.979      267.837      -45.840       92.679       99.583       63.674     8589.443     9916.735     4054.438        6.839        1.128      334.857       57.175        0.029      332.507        1.212      853.567
12/19/2013  07:20:00     -258.474      279.384      -54.423      138.129      135.151       77.984    19079.525    18265.907     6081.535        9.562        2.171      380.610       85.564        0.051      332.497        1.196      853.587
12/19/2013  07:21:00     -193.938      220.108      -34.732       98.114      101.627       59.153     9626.357    10327.983     3499.096        5.536        1.173      293.359       58.516        0.040      332.480        1.167      853.603
12/19/2013  07:22:00     -145.606      255.375      -30.037       96.321      141.144       64.994     9277.703    19921.506     4224.257        6.037        1.671      293.969       64.031        0.047      332.528        1.245      853.615
12/19/2013  07:23:00     -260.226      318.961      -53.862      125.824      132.922       85.771    15831.675    17668.173     7356.640       10.660        2.043      411.647       84.703        0.042      332.451        1.119      853.634
12/19/2013  07:24:00     -319.730      446.854      -79.760      185.025      249.320       91.113    34234.308    62160.385     8301.594       20.646        5.235      549.460      109.091        0.039      332.417        1.063      853.646
12/19/2013  07:25:00     -271.844      280.179      -70.562      107.174      114.749       60.292    11486.209    13167.263     3635.185        9.283        1.414      390.384       58.181        0.022      332.448        1.114      853.662
12/19/2013  07:26:00     -273.975      348.324      -66.164      123.198      146.099       79.421    15177.821    21344.794     6307.762       12.179        2.142      443.162       75.913        0.029      332.433        1.091      853.662
12/19/2013  07:27:00     -251.359      294.687      -50.529      119.874      144.077       63.820    14369.785    20758.290     4073.005        9.588        1.960      387.326       80.917        0.044      332.429        1.085      853.661
12/19/2013  07:28:00     -206.201      284.193      -39.231      135.239      152.834       86.513    18289.647    23358.344     7484.509        8.697        2.457      351.119       84.498        0.058      332.440        1.101      853.683
12/19/2013  07:29:00     -198.354      196.760      -26.945      119.960      138.360       71.498    14390.294    19143.477     5111.912        5.871        1.932      279.390       67.695        0.059      332.454        1.124      853.695
12/19/2013  07:30:00     -199.341      260.068      -44.590      133.628      144.657       67.191    17856.400    20925.585     4514.589        7.632        2.165      327.677       67.992        0.043      332.446        1.111      853.730
12/19/2013  07:31:00     -256.499      305.811      -51.225      163.545      137.277       94.188    26747.011    18845.027     8871.381       10.819        2.723      399.139       80.778        0.041      332.421        1.072      853.765
12/19/2013  07:32:00     -197.556      292.114      -41.844      116.116      147.040       69.722    13482.953    21620.692     4861.185        8.303        1.998      352.645       76.790        0.047      332.472        1.153      853.784
12/19/2013  07:33:00     -201.825      282.093      -43.232      118.359      133.024       78.417    14008.754    17695.342     6149.259        8.001        1.893      346.857       77.845        0.050      332.453        1.123      853.820
12/19/2013  07:34:00     -152.482      157.166      -33.032      103.455       93.884       63.501    10702.951     8814.155     4032.334        3.629        1.177      218.979       51.842        0.056      332.476        1.161      853.817
12/19/2013  07:35:00     -233.501      360.029      -60.700      105.406      120.286       61.540    11110.368    14468.658     3787.160       10.859        1.468      429.119       61.613        0.021      332.412        1.055      853.844
12/19/2013  07:36:00     -199.924      321.262      -42.005      130.417      125.364       69.800    17008.524    15716.058     4872.079        9.126        1.880      378.390       61.822        0.027      332.412        1.055      853.864
12/19/2013  07:37:00     -117.588      292.816      -28.264       86.978      164.334       64.794     7565.213    27005.706     4198.301        6.956        1.938      315.544       69.133        0.048      332.443        1.106      853.867
12/19/2013  07:38:00     -169.580      276.337      -41.654      122.848      165.733       72.656    15091.660    27467.342     5278.967        7.734        2.392      324.221       81.158        0.063      332.438        1.098      853.883
12/19/2013  07:39:00     -164.510      243.931      -35.115      103.736      112.321       62.178    10761.259    12616.030     3866.156        5.752        1.362      294.220       62.408        0.045      332.442        1.103      853.903
12/19/2013  07:40:00     -170.451      336.647      -41.621      121.737      148.836       72.573    14819.790    22152.048     5266.808        9.317        2.112      377.339       64.193        0.029      332.425        1.076      853.937
12/19/2013  07:41:00     -229.492      340.101      -59.365      113.706      195.980       62.524    12929.123    38408.145     3909.256       11.354        2.762      410.287       75.688        0.034      332.383        1.008      853.946
12/19/2013  07:42:00     -187.140      250.617      -51.682       86.766       94.704       51.124     7528.410     8968.938     2613.701        5.980        0.956      312.778       42.143        0.018      332.412        1.055      853.980
12/19/2013  07:43:00     -236.725      252.674      -50.783      134.291      110.292       71.629    18034.084    12164.263     5130.742        7.889        1.766      346.241       72.397        0.044      332.404        1.040      854.003
12/19/2013  07:44:00     -145.500      279.877      -37.477      110.323      119.346       62.094    12171.187    14243.428     3855.680        6.558        1.514      315.438       54.955        0.030      332.428        1.081      854.042
12/19/2013  07:45:00     -143.595      235.969      -25.115      107.661      113.746       61.205    11590.801    12938.198     3746.010        5.260        1.414      276.226       51.034        0.034      332.467        1.145      854.064
12/19/2013  07:46:00      -90.404      267.697      -27.892       83.726      139.268       53.570     7010.002    19395.690     2869.743        5.494        1.464      282.550       54.887        0.038      332.434        1.091      854.101
12/19/2013  07:47:00     -196.182      253.909      -46.602      140.901      104.732       62.910    19853.028    10968.796     3957.644        6.995        1.739      320.869       67.686        0.044      332.384        1.008      854.142
12/19/2013  07:48:00     -159.604      244.543      -52.327       96.806      115.839       55.199     9371.328    13418.612     3046.886        5.692        1.292      292.018       66.288        0.052      332.414        1.057      854.176
12/19/2013  07:49:00     -165.652      154.575      -11.312      112.124       93.389       66.546    12571.696     8721.478     4428.413        3.859        1.286      226.570       64.914        0.082      332.408        1.049      854.204
12/19/2013  07:50:00     -253.609      312.723      -75.109      131.951      130.185       66.030    17411.125    16948.045     4359.897       10.323        1.936      402.632       78.890        0.038      332.344        0.942      854.235
12/19/2013  07:51:00     -219.326      292.929      -52.267       86.859      130.256       56.434     7544.439    16966.618     3184.786        8.216        1.385      365.939       53.616        0.021      332.339        0.934      854.247
12/19/2013  07:52:00     -142.999      226.350      -43.499       81.135       98.573       50.841     6582.957     9716.573     2584.802        4.623        0.944      267.737       52.717        0.039      332.348        0.948      854.256
12/19/2013  07:53:00      -94.721      152.236      -19.327       75.836      141.973       53.088     5751.111    20156.427     2818.388        3.062        1.436      179.299       51.034        0.081      332.398        1.033      854.266
12/19/2013  07:54:00     -159.356      296.310      -40.105      120.228      179.024       70.279    14454.668    32049.441     4939.139        8.311        2.572      336.443       80.104        0.057      332.367        0.981      854.290
12/19/2013  07:55:00     -152.769      266.947      -39.557      113.536       95.639       55.267    12890.494     9146.849     3054.415        6.062        1.255      307.570       55.141        0.032      332.368        0.982      854.295
12/19/2013  07:56:00     -138.766      274.016      -39.768       95.577      118.586       53.706     9134.999    14062.753     2884.286        6.100        1.304      307.150       53.324        0.030      332.370        0.986      854.306
12/19/2013  07:57:00     -142.472      237.294      -38.648       87.679      125.095       58.523     7687.595    15648.814     3424.951        5.243        1.338      276.779       59.459        0.046      332.352        0.955      854.289
12/19/2013  07:58:00     -186.063      247.492      -44.769      121.030       96.685       62.209    14648.143     9348.005     3869.917        6.287        1.393      309.632       60.892        0.039      332.305        0.878      854.283
12/19/2013  07:59:00     -190.396      245.277      -35.715      104.592      162.424       73.623    10939.424    26381.396     5420.299        7.021        2.137      310.502       65.727        0.045      332.313        0.892      854.275
12/19/2013  08:00:00     -114.537      198.107      -21.388       99.430      118.040       64.423     9886.286    13933.505     4150.293        4.039        1.399      228.834       56.578        0.061      332.341        0.938      854.268
12/19/2013  08:01:00     -213.466      251.570      -50.486      101.934      137.050       67.802    10390.493    18782.700     4597.139        7.258        1.689      329.932       69.028        0.044      332.349        0.950      854.260
12/19/2013  08:02:00     -127.152      278.793      -38.667       89.848       91.979       53.345     8072.621     8460.216     2845.704        5.738        0.969      306.420       50.355        0.027      332.359        0.967      854.289
12/19/2013  08:03:00      -93.713      272.811      -22.513      103.466      163.435       64.291    10705.119    26710.945     4133.386        6.263        2.077      288.458       53.427        0.034      332.344        0.942      854.318
12/19/2013  08:04:00     -165.760      137.269      -24.533      143.720      144.769       70.635    20655.323    20957.978     4989.245        4.675        2.330      215.219       80.201        0.139      332.391        1.023      854.382
12/19/2013  08:05:00     -123.489      138.470      -19.083       72.485      105.203       53.529     5254.006    11067.580     2865.314        2.698        0.959      185.536       33.913        0.033      332.356        0.964      854.448
12/19/2013  08:06:00     -206.974      305.760      -55.768      123.902      149.711       69.735    15351.675    22413.499     4862.949        9.103        2.131      369.225       86.955        0.055      332.291        0.856      854.513
12/19/2013  08:07:00      -98.919      224.155      -33.265       64.418      114.584       47.713     4149.691    13129.410     2276.500        4.034        0.978      245.011       57.514        0.055      332.364        0.976      854.570
12/19/2013  08:08:00     -155.123      175.355      -42.025       90.931       87.776       51.544     8268.382     7704.695     2656.802        3.760        0.931      234.121       55.928        0.057      332.355        0.961      854.626
12/19/2013  08:09:00     -141.032      305.023      -41.434       86.723      138.069       58.965     7520.959    19062.977     3476.891        7.235        1.503      336.049       62.587        0.035      332.335        0.928      854.658
12/19/2013  08:10:00     -182.601      196.859      -41.739       81.329       97.716       47.973     6614.347     9548.401     2301.384        4.615        0.923      268.508       46.724        0.030      332.318        0.900      854.688
12/19/2013  08:11:00     -169.791      275.101      -48.907      105.705      136.344       65.873    11173.618    18589.606     4339.219        7.050        1.705      323.280       76.995        0.057      332.266        0.815      854.699
12/19/2013  08:12:00     -127.472      220.371      -25.801       78.968      130.843       57.161     6235.941    17119.921     3267.327        4.605        1.331      254.583       46.536        0.033      332.317        0.899      854.727
12/19/2013  08:13:00     -153.214      249.958      -46.856       96.808       97.735       62.715     9371.724     9552.157     3933.133        5.550        1.143      293.178       61.302        0.044      332.306        0.879      854.765
12/19/2013  08:14:00     -151.253      182.020      -29.237       85.243       85.052       46.535     7266.408     7233.767     2165.508        3.676        0.833      236.662       40.985        0.030      332.290        0.854      854.802
12/19/2013  08:15:00     -162.091      248.795      -32.455      107.977      126.633       64.067    11659.069    16035.849     4104.603        6.051        1.590      296.938       65.794        0.049      332.259        0.803      854.827
12/19/2013  08:16:00     -104.527      171.654      -20.670       95.470       96.701       53.918     9114.439     9351.172     2907.142        3.109        1.069      200.975       50.227        0.062      332.265        0.813      854.850
12/19/2013  08:17:00     -159.729      233.797      -29.352       64.264      118.332       51.932     4129.867    14002.547     2696.958        5.093        1.041      283.151       35.431        0.016      332.244        0.779      854.842
12/19/2013  08:18:00     -159.531      221.127      -30.116       91.423      149.929       58.548     8358.176    22478.563     3427.827        5.475        1.713      272.667       63.924        0.055      332.232        0.757      854.855
12/19/2013  08:19:00     -237.505      307.088      -59.054      123.259      148.084       59.174    15192.787    21928.970     3501.609        9.740        2.031      388.216       68.567        0.031      332.179        0.670      854.860
12/19/2013  08:20:00     -215.785      321.666      -55.985      115.751      152.984       68.625    13398.366    23404.002     4709.410        9.733        2.076      387.340       63.995        0.027      332.170        0.656      854.885
12/19/2013  08:21:00     -173.925      183.541      -28.346       87.453       82.311       54.487     7648.080     6775.091     2968.887        4.106        0.870      252.858       41.340        0.027      332.184        0.678      854.902
12/19/2013  08:22:00     -174.787      199.875      -33.369       98.676       90.603       61.340     9737.047     8208.937     3762.631        4.666        1.085      265.519       60.259        0.052      332.200        0.704      854.921
12/19/2013  08:23:00     -226.124      270.810      -63.116       91.972      101.489       61.900     8458.876    10299.955     3831.642        7.552        1.130      352.804       54.354        0.024      332.167        0.649      854.948
12/19/2013  08:24:00     -190.671      151.437      -42.336      118.533      111.609       60.365    14050.072    12456.664     3643.880        4.561        1.508      243.493       53.924        0.049      332.166        0.649      854.969
12/19/2013  08:25:00     -171.871      217.055      -42.779       96.439      110.961       54.962     9300.501    12312.280     3020.850        5.155        1.232      276.862       49.942        0.033      332.167        0.650      854.985
12/19/2013  08:26:00     -237.897      327.199      -67.196      121.484      133.191       65.749    14758.436    17739.802     4322.878       10.249        1.841      404.542       75.047        0.034      332.161        0.639      854.999
12/19/2013  08:27:00     -223.305      348.968      -62.475      126.681      154.007       74.137    16048.082    23718.257     5496.255       11.040        2.263      414.299       84.435        0.042      332.148        0.620      855.006
12/19/2013  08:28:00     -214.031      238.169      -49.215      138.486      124.496       64.326    19178.465    15499.338     4137.789        7.188        1.941      320.209       70.907        0.049      332.147        0.616      855.004
12/19/2013  08:29:00     -203.782      227.578      -32.393      142.321      143.609       76.220    20255.125    20623.637     5809.470        7.052        2.334      305.482       89.318        0.085      332.146        0.615      855.005
12/19/2013  08:30:00     -178.005      238.856      -31.198      100.867      147.291       75.519    10174.148    21694.696     5703.168        6.364        1.879      297.889       71.757        0.058      332.126        0.584      854.988
12/19/2013  08:31:00     -260.127      215.045      -37.926      154.087      117.598       64.361    23742.836    13829.362     4142.332        7.852        2.086      337.507       67.737        0.040      332.136        0.600      854.961
12/19/2013  08:32:00     -236.183      235.546      -49.669       97.397      116.166       57.636     9486.219    13494.470     3321.931        7.001        1.315      333.563       61.540        0.034      332.093        0.528      854.958
12/19/2013  08:33:00     -152.729      198.426      -40.260       87.397       92.984       54.845     7638.304     8645.939     3008.006        4.180        0.965      250.398       56.291        0.051      332.139        0.605      854.986
12/19/2013  08:34:00     -168.874      207.093      -38.888      116.251      124.839       61.012    13514.337    15584.696     3722.413        5.286        1.641      267.219       70.768        0.070      332.143        0.610      855.001
12/19/2013  08:35:00     -135.496      265.652      -17.466       88.913      102.694       67.304     7905.554    10546.047     4529.778        5.610        1.149      298.211       65.257        0.048      332.141        0.608      855.030
12/19/2013  08:36:00     -193.840      224.312      -45.589       80.965       95.367       54.267     6555.339     9094.937     2944.878        5.428        0.930      296.462       48.859        0.027      332.116        0.566      855.038
12/19/2013  08:37:00     -180.434      189.367      -30.912       88.730      132.826       60.522     7872.948    17642.699     3662.928        4.927        1.459      261.565       60.974        0.054      332.117        0.568      855.034
12/19/2013  08:38:00     -166.126      188.032      -40.102       83.099      100.369       44.296     6905.406    10074.010     1962.160        4.175        0.947      250.906       48.024        0.037      332.132        0.592      855.043
12/19/2013  08:39:00     -148.094      180.210      -26.901       81.107       98.004       52.685     6578.411     9604.796     2775.702        3.704        0.948      233.254       48.822        0.044      332.133        0.594      855.052
12/19/2013  08:40:00     -127.198      189.646      -33.167       86.411       94.362       58.802     7466.897     8904.212     3457.626        3.653        0.991      228.352       54.378        0.057      332.194        0.695      855.057
12/19/2013  08:41:00     -170.576      258.384      -45.805      111.066      123.097       58.307    12335.669    15152.951     3399.727        6.442        1.544      309.611       71.828        0.054      332.134        0.597      855.050
12/19/2013  08:42:00     -178.990      164.831      -28.764       82.050       93.718       45.671     6732.133     8783.110     2085.827        3.881        0.880      243.324       47.449        0.038      332.152        0.625      855.032
12/19/2013  08:43:00     -170.204      349.786      -56.307      105.071      148.922       63.224    11040.009    22177.886     3997.269        9.585        1.861      388.999       61.765        0.025      332.136        0.600      855.010
12/19/2013  08:44:00     -131.413      253.403      -24.225      104.841      119.558       72.293    10991.683    14294.005     5226.230        5.629        1.526      285.451       81.136        0.081      332.175        0.663      854.981
12/19/2013  08:45:00     -171.943      209.441      -54.406       76.637       83.706       52.246     5873.264     7006.731     2729.619        4.600        0.780      270.979       50.514        0.035      332.166        0.647      854.972
12/19/2013  08:46:00     -110.768      158.982      -13.465      115.381      119.641       57.398    13312.676    14313.966     3294.538        3.432        1.546      193.764       69.313        0.128      332.217        0.734      854.996
12/19/2013  08:47:00     -198.093      132.324      -35.671      101.303       80.072       45.677    10262.362     6411.546     2086.364        3.839        0.938      238.223       46.372        0.038      332.170        0.656      855.044
12/19/2013  08:48:00     -194.010      225.622      -46.244       91.691      116.896       57.857     8407.214    13664.642     3347.390        5.805        1.271      297.566       61.497        0.043      332.190        0.689      855.086
12/19/2013  08:49:00     -185.797      170.260      -36.853       61.664      124.104       55.288     3802.482    15401.680     3056.797        4.356        1.113      252.010       53.800        0.046      332.183        0.677      855.120
12/19/2013  08:50:00     -151.210      219.354      -27.057       72.166      100.083       53.499     5207.929    10016.564     2862.172        4.490        0.904      266.422       49.394        0.034      332.198        0.702      855.140
12/19/2013  08:51:00     -167.603      167.842      -38.372       76.070       81.042       46.665     5786.680     6567.831     2177.649        3.613        0.727      237.196       47.077        0.039      332.219        0.736      855.148
12/19/2013  08:52:00     -100.232      193.577      -20.220       67.836       69.024       46.766     4601.663     4764.307     2187.020        2.974        0.578      217.988       43.758        0.040      332.260        0.804      855.158
12/19/2013  08:53:00     -199.554      299.726      -53.046      119.861       90.890       54.940    14366.584     8260.957     3018.362        7.905        1.282      360.080       67.330        0.035      332.192        0.690      855.175
12/19/2013  08:54:00     -174.654      156.005      -28.880      112.970      103.650       53.951    12762.238    10743.384     2910.710        4.104        1.321      234.183       62.876        0.072      332.195        0.697      855.199
12/19/2013  08:55:00     -207.390      241.487      -52.714       92.683      118.041       56.575     8590.174    13933.796     3200.767        6.491        1.286      318.318       58.095        0.033      332.156        0.632      855.221
12/19/2013  08:56:00     -203.618      232.123      -43.438      110.249      105.372       49.101    12154.903    11103.344     2410.948        6.144        1.283      308.774       43.149        0.020      332.165        0.646      855.248
12/19/2013  08:57:00     -166.338      201.372      -30.437      117.073      131.054       57.291    13706.186    17175.114     3282.263        5.165        1.708      261.187       56.968        0.048      332.222        0.743      855.285
12/19/2013  08:58:00     -169.306      221.842      -40.286       93.578      128.306       51.403     8756.881    16462.514     2642.232        5.368        1.393      279.067       51.240        0.034      332.230        0.754      855.314
12/19/2013  08:59:00     -204.636      322.285      -50.331      107.773      143.906       65.795    11615.107    20708.798     4328.920        9.246        1.833      381.764       68.874        0.033      332.167        0.651      855.331
12/19/2013  09:00:00     -138.450      161.624      -24.424      112.335       89.728       60.165    12619.106     8051.153     3619.810        3.508        1.215      212.816       66.292        0.097      332.251        0.791      855.345
12/19/2013  09:01:00     -219.743      256.883      -65.411      108.749      113.060       52.012    11826.340    12782.510     2705.264        7.293        1.366      338.047       64.107        0.036      332.169        0.653      855.378
12/19/2013  09:02:00     -126.814      102.399       -7.924      106.684       84.456       65.943    11381.374     7132.793     4348.443        2.474        1.143      162.995       62.089        0.145      332.236        0.766      855.419
12/19/2013  09:03:00     -187.186      181.120      -27.315      134.517       95.790       46.802    18094.792     9175.720     2190.443        4.902        1.473      260.467       46.516        0.032      332.236        0.764      855.462
12/19/2013  09:04:00     -170.960      269.626      -41.842      111.072      127.002       70.804    12336.925    16129.486     5013.174        6.857        1.674      319.257       76.389        0.057      332.185        0.681      855.505
12/19/2013  09:05:00     -182.170      220.956      -35.972       81.965      119.427       53.211     6718.309    14262.800     2831.395        5.355        1.191      286.369       54.607        0.036      332.212        0.726      855.525
12/19/2013  09:06:00     -175.147      147.952      -29.079       69.171      129.854       51.949     4784.666    16862.189     2698.709        3.887        1.217      229.274       64.310        0.079      332.217        0.734      855.551
12/19/2013  09:07:00     -160.340      179.803      -41.341       62.159       73.179       35.699     3863.754     5355.138     1274.413        3.512        0.525      240.911       37.285        0.024      332.225        0.745      855.586
12/19/2013  09:08:00     -140.322      231.877      -41.501       86.742       93.086       46.792     7524.159     8664.932     2189.498        4.678        0.919      271.030       46.153        0.029      332.228        0.751      855.603
12/19/2013  09:09:00     -187.965      234.389      -50.472      107.392      124.689       57.673    11532.985    15547.454     3326.229        6.161        1.520      300.448       68.003        0.051      332.184        0.679      855.628
12/19/2013  09:10:00     -204.232      290.923      -60.891      103.445       93.914       57.721    10700.962     8819.907     3331.707        7.645        1.143      355.453       59.874        0.028      332.173        0.661      855.669
12/19/2013  09:11:00     -169.659      195.684      -35.978       95.650      101.480       55.317     9148.915    10298.284     3060.011        4.544        1.125      258.991       49.635        0.037      332.186        0.682      855.698
12/19/2013  09:12:00     -182.740      323.184      -44.378       99.307       99.489       65.227     9861.904     9898.149     4254.602        8.191        1.201      371.270       68.584        0.034      332.161        0.639      855.728
12/19/2013  09:13:00     -132.501      230.807      -28.808       85.298       85.180       53.678     7275.711     7255.635     2881.354        4.453        0.871      266.137       52.037        0.038      332.190        0.688      855.763
12/19/2013  09:14:00     -134.751      186.862      -35.576       91.007       95.033       41.521     8282.332     9031.286     1723.990        3.669        0.952      230.381       43.821        0.036      332.248        0.785      855.776
12/19/2013  09:15:00     -180.870      128.930      -25.349      100.776      120.993       62.286    10155.884    14639.405     3879.604        3.932        1.434      222.119       68.310        0.095      332.182        0.676      855.777
12/19/2013  09:16:00     -163.375      284.887      -43.040      113.477      123.502       64.081    12876.966    15252.739     4106.418        7.096        1.612      328.408       74.012        0.051      332.179        0.671      855.777
12/19/2013  09:17:00     -137.101      272.335      -29.491       75.767      121.879       56.324     5740.714    14854.510     3172.381        5.880        1.188      304.898       44.794        0.022      332.156        0.632      855.799
12/19/2013  09:18:00     -207.134      301.200      -64.778      126.018      103.751       61.368    15880.565    10764.279     3766.060        8.411        1.521      365.549       74.423        0.041      332.127        0.584      855.854
12/19/2013  09:19:00     -162.312      221.623      -40.241       79.146      101.415       64.938     6264.118    10285.026     4217.005        4.892        1.038      274.703       66.076        0.058      332.186        0.681      855.914
12/19/2013  09:20:00     -162.901      240.830      -43.424       92.174       85.068       53.226     8496.038     7236.502     2832.983        5.249        0.928      290.751       54.891        0.036      332.158        0.634      855.972
12/19/2013  09:21:00     -196.820      196.664      -44.526       90.433      101.732       54.423     8178.060    10349.381     2961.887        5.044        1.074      278.235       51.855        0.035      332.156        0.633      855.998
12/19/2013  09:22:00     -177.884      190.312      -37.487       69.966       93.702       50.839     4895.246     8780.152     2584.637        4.276        0.813      260.503       42.314        0.026      332.164        0.645      856.020
12/19/2013  09:23:00     -153.463      186.338      -29.169       91.915       97.720       52.421     8448.288     9549.160     2748.013        3.993        1.037      241.397       59.982        0.062      332.152        0.626      856.035
12/19/2013  09:24:00     -216.498      202.299      -38.548      124.260       90.081       63.202    15440.542     8114.652     3994.484        5.841        1.377      296.304       59.467        0.040      332.129        0.587      856.067
12/19/2013  09:25:00     -144.444      184.593      -23.403       70.887      110.779       49.233     5024.954    12272.042     2423.933        3.760        0.986      234.390       53.537        0.052      332.192        0.691      856.128
12/19/2013  09:26:00     -136.457      186.121      -24.138       86.640       91.604       59.407     7506.427     8391.346     3529.176        3.663        0.971      230.785       50.735        0.048      332.168        0.652      856.193
12/19/2013  09:27:00     -152.852      136.170      -24.721      115.992      120.791       59.604    13454.150    14590.440     3552.606        3.705        1.580      204.710       73.690        0.130      332.197        0.700      856.231
12/19/2013  09:28:00     -269.596      214.093      -65.856      100.742       98.894       51.419    10148.963     9779.954     2643.925        7.271        1.129      344.264       48.319        0.020      332.108        0.554      856.260
12/19/2013  09:29:00     -165.355      267.749      -44.693       80.390      114.028       46.816     6462.579    13002.323     2191.778        6.134        1.083      314.693       45.034        0.020      332.140        0.605      856.276
12/19/2013  09:30:00     -152.888      207.148      -35.564       69.760       78.739       50.665     4866.393     6199.898     2566.976        4.059        0.682      257.459       35.812        0.019      332.161        0.640      856.298
12/19/2013  09:31:00     -191.468      242.536      -39.221      107.660      148.145       67.750    11590.609    21946.975     4590.053        6.757        1.906      309.004       76.228        0.061      332.132        0.593      856.336
12/19/2013  09:32:00     -155.099      221.322      -26.158       84.977      128.717       55.797     7221.158    16567.954     3113.251        5.031        1.345      270.257       57.136        0.045      332.174        0.663      856.370
12/19/2013  09:33:00     -183.611      229.273      -43.251      103.654       75.793       51.401    10744.081     5744.617     2642.016        5.364        0.957      293.733       39.259        0.018      332.149        0.620      856.396
12/19/2013  09:34:00     -201.874      180.832      -36.056       96.790       87.385       54.026     9368.380     7636.109     2918.770        4.733        0.996      271.022       52.228        0.037      332.162        0.641      856.421
12/19/2013  09:35:00     -250.359      236.344      -51.965       98.385       93.164       59.079     9679.608     8679.575     3490.328        7.154        1.092      344.294       50.022        0.021      332.134        0.594      856.451
12/19/2013  09:36:00     -178.895      201.898      -48.854       78.182       69.190       48.257     6112.433     4787.198     2328.746        4.419        0.661      269.752       40.336        0.022      332.123        0.578      856.475
12/19/2013  09:37:00     -239.054      278.432      -63.578      106.500      111.728       66.962    11342.178    12483.094     4483.908        8.351        1.415      366.976       64.553        0.031      332.116        0.566      856.508
12/19/2013  09:38:00      -90.137      157.563       -4.259       85.644      116.210       51.645     7334.930    13504.766     2667.246        2.823        1.175      181.524       56.268        0.096      332.215        0.732      856.522
12/19/2013  09:39:00     -194.938      221.026      -33.172      142.429      120.968       67.044    20286.025    14633.323     4494.850        6.368        1.971      294.709       76.799        0.068      332.164        0.646      856.525
12/19/2013  09:40:00     -202.912      217.264      -37.206       97.274      137.578       59.663     9462.153    18927.597     3559.622        6.085        1.597      297.283       53.040        0.032      332.145        0.613      856.555
12/19/2013  09:41:00     -173.635      225.116      -37.386       92.855       85.588       58.464     8622.133     7325.277     3418.036        5.079        0.968      284.300       55.285        0.038      332.159        0.636      856.596
12/19/2013  09:42:00     -157.482      133.596      -31.319      109.641       92.587       55.585    12021.219     8572.323     3089.692        3.365        1.184      206.515       51.461        0.062      332.196        0.699      856.628
12/19/2013  09:43:00     -178.947      227.896      -39.743       80.880       97.327       52.722     6541.611     9472.504     2779.563        5.216        0.940      289.756       47.231        0.027      332.180        0.671      856.653
12/19/2013  09:44:00     -176.074      186.740      -31.909       81.785       79.333       52.504     6688.866     6293.739     2756.716        4.131        0.787      256.659       37.939        0.022      332.176        0.663      856.664
12/19/2013  09:45:00     -130.011      225.745      -31.844       95.675      117.242       59.457     9153.695    13745.676     3535.113        4.765        1.322      260.507       66.154        0.064      332.186        0.683      856.651
12/19/2013  09:46:00     -128.368      190.298      -24.823      103.608       91.563       58.690    10734.644     8383.745     3444.469        3.793        1.128      229.546       54.125        0.056      332.231        0.755      856.612
12/19/2013  09:47:00     -123.320      235.527      -24.451       90.253      111.662       52.781     8145.542    12468.359     2785.836        4.734        1.170      265.858       54.382        0.042      332.198        0.702      856.571
12/19/2013  09:48:00     -121.689      156.990      -27.450       44.217       61.653       37.913     1955.163     3801.104     1437.426        2.370        0.360      198.631       20.989        0.011      332.258        0.803      856.546
12/19/2013  09:49:00     -129.212      243.657      -37.399       56.210       84.259       42.069     3159.612     7099.532     1769.765        4.474        0.601      275.797       35.633        0.017      332.184        0.678      856.537
12/19/2013  09:50:00      -66.281      154.967      -25.349       66.597       91.928       37.937     4435.185     8450.815     1439.222        2.169        0.716      168.547       30.088        0.032      332.274        0.829      856.538
12/19/2013  09:51:00     -190.292      145.580      -31.701       99.161       75.155       50.394     9832.967     5648.250     2539.510        3.821        0.901      239.593       44.813        0.035      332.232        0.757      856.544
12/19/2013  09:52:00     -164.506      250.013      -39.355       79.616       83.024       54.756     6338.716     6893.041     2998.203        5.367        0.811      299.280       48.781        0.027      332.181        0.674      856.558
12/19/2013  09:53:00     -139.385      206.571      -36.058       71.524       77.117       51.754     5115.700     5947.096     2678.503        3.857        0.687      249.198       48.188        0.037      332.227        0.750      856.597
12/19/2013  09:54:00     -162.239      167.207      -23.873       78.335       72.690       58.077     6136.374     5283.902     3372.977        3.482        0.740      232.980       46.541        0.040      332.222        0.742      856.652
12/19/2013  09:55:00     -158.034      142.275      -30.912       76.802       89.794       43.603     5898.583     8062.893     1901.182        3.101        0.793      212.643       48.459        0.052      332.250        0.788      856.697
12/19/2013  09:56:00     -163.064      243.479      -52.376       67.865      120.390       43.262     4605.618    14493.764     1871.638        5.479        1.049      293.039       29.839        0.010      332.234        0.759      856.748
12/19/2013  09:57:00     -207.446      192.326      -43.993       82.069       92.576       51.706     6735.321     8570.343     2673.469        4.997        0.899      282.884       47.193        0.028      332.232        0.758      856.769
12/19/2013  09:58:00     -143.383      286.031      -44.323       97.805      111.094       55.856     9565.830    12341.943     3119.884        6.468        1.251      319.957       49.557        0.024      332.215        0.730      856.770
12/19/2013  09:59:00     -117.075      233.379      -26.928       50.365       69.026       45.806     2536.589     4764.613     2098.228        3.915        0.470      261.098       33.158        0.016      332.235        0.764      856.744
12/19/2013  10:00:00     -118.965      142.396      -27.803       73.637       71.718       43.554     5422.445     5143.508     1896.942        2.383        0.623      185.551       35.396        0.036      332.299        0.872      856.711
12/19/2013  10:01:00     -132.383      166.739      -42.064       65.296       77.860       43.337     4263.540     6062.154     1878.084        2.965        0.610      212.901       42.710        0.040      332.239        0.768      856.695
12/19/2013  10:02:00     -151.497      181.056      -43.701       79.793      137.466       51.400     6366.980    18896.799     2641.973        4.277        1.395      236.077       62.549        0.070      332.283        0.843      856.717
12/19/2013  10:03:00     -170.598       85.956      -17.955       80.532       76.854       45.634     6485.415     5906.527     2082.473        2.564        0.724      191.028       33.248        0.030      332.282        0.841      856.738
12/19/2013  10:04:00     -181.620      128.809      -37.394       83.571       70.050       45.975     6984.157     4907.054     2113.705        3.249        0.700      222.660       48.073        0.047      332.275        0.829      856.738
12/19/2013  10:05:00     -114.696      258.505      -35.534       61.486       75.367       43.235     3780.487     5680.152     1869.306        4.628        0.566      282.808       40.042        0.020      332.249        0.785      856.739
12/19/2013  10:06:00     -159.510      145.650      -39.235       63.075       92.661       35.830     3978.515     8586.141     1283.778        3.102        0.692      216.003       28.131        0.017      332.322        0.907      856.732
12/19/2013  10:07:00     -118.653      184.724      -31.633       87.531       91.689       42.112     7661.757     8406.877     1773.405        3.352        0.892      219.548       42.143        0.037      332.278        0.834      856.737
12/19/2013  10:08:00      -81.989      133.850      -18.317       52.302       71.509       37.200     2735.527     5113.518     1383.854        1.710        0.462      156.965       37.214        0.056      332.377        0.998      856.739
12/19/2013  10:09:00     -101.714      139.805      -18.194       94.010       79.207       40.137     8837.898     6273.694     1610.941        2.347        0.836      172.890       40.114        0.054      332.402        1.040      856.752
12/19/2013  10:10:00     -134.206      177.336      -38.039       60.215       65.792       43.771     3625.804     4328.525     1915.907        3.039        0.494      222.394       30.223        0.018      332.326        0.912      856.772
12/19/2013  10:11:00     -135.871      153.904      -25.606       63.197       77.051       44.713     3993.838     5936.889     1999.284        2.736        0.597      205.299       42.695        0.043      332.303        0.875      856.781
12/19/2013  10:12:00     -116.206       72.059       -5.121       77.421       48.201       39.245     5993.997     2323.367     1540.183        1.429        0.493      136.735       31.259        0.052      332.338        0.936      856.794
12/19/2013  10:13:00     -123.525      165.562      -22.741       70.152       89.562       44.640     4921.267     8021.395     1992.750        2.906        0.747      206.566       29.143        0.020      332.349        0.951      856.807
12/19/2013  10:14:00      -69.065      242.944      -16.800       53.611       85.386       42.251     2874.099     7290.789     1785.185        3.801        0.598      252.570       44.396        0.031      332.379        1.000      856.830
12/19/2013  10:15:00      -66.121      210.269      -24.023       52.163       71.489       34.682     2721.002     5110.624     1202.864        2.910        0.452      220.420       30.642        0.019      332.430        1.084      856.874
12/19/2013  10:16:00      -41.024      145.132       -8.320       48.196       50.136       31.316     2322.863     2513.628      980.667        1.432        0.291      150.819       26.706        0.031      332.596        1.360      856.929
12/19/2013  10:17:00      -73.876      123.654      -12.464       56.898       99.094       41.354     3237.361     9819.588     1710.138        1.783        0.738      144.042       40.106        0.078      332.632        1.419      857.006
12/19/2013  10:18:00     -102.753      159.121      -17.696       58.633      100.132       40.143     3437.852    10026.404     1611.500        2.563        0.754      189.414       37.996        0.040      332.461        1.137      857.035
12/19/2013  10:19:00     -137.705      120.767      -25.968       52.949       81.095       39.236     2803.574     6576.319     1539.489        2.257        0.546      183.159       46.994        0.066      332.461        1.136      857.054
12/19/2013  10:20:00     -165.720      128.414      -20.787       92.841       80.438       47.036     8619.376     6470.234     2212.406        3.084        0.865      209.650       46.397        0.049      332.419        1.068      857.034
12/19/2013  10:21:00     -171.347      178.673      -34.162       78.337       71.926       54.470     6136.700     5173.381     2967.000        3.836        0.714      247.556       54.156        0.048      332.394        1.025      857.023
12/19/2013  10:22:00     -154.847      169.604      -33.395       54.302       63.689       32.687     2948.688     4056.226     1068.434        3.096        0.404      229.658       29.730        0.017      332.385        1.011      857.044
12/19/2013  10:23:00     -100.245      140.512      -19.041       45.321       57.322       29.039     2053.984     3285.831      843.289        1.817        0.309      172.605       26.375        0.023      332.427        1.081      857.066
12/19/2013  10:24:00     -139.804      132.982      -29.200       69.096       85.183       45.362     4774.325     7256.070     2057.688        2.608        0.704      192.949       45.220        0.055      332.463        1.140      857.112
12/19/2013  10:25:00     -134.608       76.962      -29.397       68.190       83.314       37.976     4649.832     6941.148     1442.180        1.897        0.652      155.056       37.500        0.058      332.522        1.238      857.184
12/19/2013  10:26:00     -174.452      134.995      -29.200       96.651       79.321       47.662     9341.335     6291.824     2271.632        3.370        0.895      220.584       44.596        0.041      332.426        1.079      857.257
12/19/2013  10:27:00     -184.077      290.695      -55.332       60.872       54.546       41.744     3705.435     2975.242     1742.543        6.493        0.421      344.075       33.301        0.009      332.352        0.956      857.298
12/19/2013  10:28:00     -196.103      222.840      -50.679       69.400      101.247       45.332     4816.330    10250.940     2055.032        5.390        0.856      296.840       50.669        0.029      332.382        1.006      857.326
12/19/2013  10:29:00     -183.766      162.262      -26.508       99.991       81.464       43.152     9998.194     6636.415     1862.074        3.965        0.925      245.151       43.126        0.031      332.442        1.104      857.336
12/19/2013  10:30:00     -128.494      137.942      -27.915       77.479       50.455       36.830     6003.012     2545.696     1356.418        2.311        0.495      188.518       40.200        0.045      332.455        1.127      857.325
12/19/2013  10:31:00     -167.296      228.420      -41.443       92.269      118.212       51.668     8513.570    13974.095     2669.606        5.351        1.258      283.132       63.660        0.051      332.433        1.090      857.335
12/19/2013  10:32:00     -150.869      235.674      -28.316       84.008       88.751       54.214     7057.393     7876.775     2939.145        4.849        0.894      279.828       54.287        0.038      332.445        1.110      857.334
12/19/2013  10:33:00     -133.650      111.047      -18.690       65.889      118.859       47.214     4341.406    14127.559     2229.183        2.562        1.035      173.764       49.173        0.080      332.504        1.208      857.327
12/19/2013  10:34:00     -145.002      182.312      -28.530       80.965       70.019       55.066     6555.367     4902.644     3032.291        3.478        0.725      232.945       43.736        0.035      332.458        1.130      857.321
12/19/2013  10:35:00     -133.114      217.804      -29.519       90.806       70.668       45.563     8245.717     4993.929     2076.017        4.067        0.766      255.261       44.623        0.031      332.432        1.086      857.301
12/19/2013  10:36:00      -20.557      251.563      -38.876       61.247       53.614       27.770     3751.256     2874.474      771.165        3.631        0.370      252.402       23.801        0.009      332.424        1.074      857.246
12/19/2013  10:37:00      -31.718      253.897      -35.151       58.129       45.594       33.361     3378.959     2078.774     1112.936        3.664        0.329      255.871       21.495        0.007      332.452        1.119      857.195
12/19/2013  10:38:00      -33.829      220.768      -21.021       66.312       84.221       36.792     4397.340     7093.167     1353.666        3.158        0.642      223.345       41.911        0.035      332.541        1.267      857.155
12/19/2013  10:39:00       -0.440      282.528      -23.561       45.329       93.001       41.639     2054.683     8649.099     1733.790        4.641        0.622      282.529       47.084        0.028      332.470        1.149      857.151
12/19/2013  10:40:00      -21.882      225.682      -20.004       48.533       71.819       42.800     2355.426     5158.040     1831.881        3.058        0.467      226.741       43.584        0.037      332.474        1.157      857.225
12/19/2013  10:41:00      -39.978      152.332       -8.714       51.479      111.587       45.589     2650.077    12451.569     2078.346        2.103        0.859      157.490       54.456        0.120      332.542        1.272      857.322
12/19/2013  10:42:00      -71.709      169.172      -23.216       59.741       82.856       35.427     3568.945     6865.157     1255.100        2.299        0.584      183.743       39.121        0.045      332.603        1.370      857.336
12/19/2013  10:43:00      -12.712      212.623      -23.009       41.059       45.977       33.671     1685.839     2113.839     1133.722        2.542        0.247      213.003       24.237        0.013      332.502        1.205      857.293
12/19/2013  10:44:00      -64.317      161.481      -14.314       50.178       71.979       34.735     2517.814     5180.975     1206.543        1.966        0.445      173.818       33.424        0.037      332.549        1.281      857.254
12/19/2013  10:45:00      -28.715      105.322       -1.925       34.248       55.022       26.888     1172.905     3027.469      722.973        0.842        0.246      109.166       27.985        0.066      332.732        1.586      857.230
12/19/2013  10:46:00       12.390       78.261       -1.569       67.567       55.431       31.479     4565.246     3072.621      990.897        0.745        0.431       79.236       26.131        0.109      332.765        1.641      857.281
12/19/2013  10:47:00       70.893       80.994       31.365       67.966       58.781       45.076     4619.339     3455.263     2031.865        1.134        0.505      107.638       15.961        0.022      332.725        1.573      857.305
12/19/2013  10:48:00       59.201      157.792       -4.607       68.153       99.135       58.660     4644.872     9827.671     3440.993        2.317        0.896      168.532       54.028        0.103      332.568        1.314      857.354
12/19/2013  10:49:00       62.465      119.436       16.044       69.474       86.975       61.877     4826.673     7564.641     3828.773        1.732        0.811      134.785       59.997        0.198      332.614        1.389      857.362
12/19/2013  10:50:00       32.767      124.301       -3.541       70.108       81.556       53.152     4915.067     6651.345     2825.182        1.546        0.720      128.548       48.061        0.140      332.659        1.464      857.338
12/19/2013  10:51:00       26.132       69.053       15.247       39.935      103.324       41.418     1594.814    10675.808     1715.414        0.983        0.699       73.832       36.380        0.243      332.701        1.534      857.281
12/19/2013  10:52:00       10.771      102.804      -26.945       77.127       42.435       34.121     5948.530     1800.695     1164.223        1.016        0.446      103.366       30.497        0.087      332.705        1.540      857.170
12/19/2013  10:53:00        4.692      180.920      -18.399       41.638       96.739       39.301     1733.729     9358.404     1544.556        2.286        0.632      180.981       49.417        0.075      332.638        1.428      857.068
12/19/2013  10:54:00       98.025       71.296       22.615       87.730       60.282       45.906     7696.506     3633.961     2107.383        1.432        0.672      121.211       26.658        0.048      332.680        1.499      856.980
12/19/2013  10:55:00       81.557       77.566       10.812       75.286       60.604       42.442     5667.966     3672.892     1801.289        1.196        0.557      112.552       32.969        0.086      332.684        1.505      856.960
12/19/2013  10:56:00      139.133      108.103       13.529       98.146       83.553       53.676     9632.640     6981.123     2881.103        2.536        0.975      176.194       43.760        0.062      332.647        1.444      856.976
12/19/2013  10:57:00       91.076      118.774        1.337      123.103       79.876       50.222    15154.356     6380.242     2522.258        2.323        1.203      149.673       51.794        0.120      332.639        1.432      857.041
12/19/2013  10:58:00      124.904      248.829      -27.639      120.609      119.606       67.997    14546.507    14305.702     4623.565        5.587        1.674      278.418       63.767        0.052      332.559        1.297      857.157
12/19/2013  10:59:00      113.481      139.992        7.149      104.019       80.270       59.251    10819.900     6443.260     3510.652        2.665        1.039      180.210       46.884        0.068      332.558        1.296      857.288
12/19/2013  11:00:00       39.478      184.369      -13.761       61.990      136.663       49.858     3842.769    18676.799     2485.791        3.037        1.250      188.548       64.382        0.117      332.662        1.470      857.369
12/19/2013  11:01:00       80.637      110.618        1.843       56.837       68.316       58.673     3230.440     4667.059     3442.505        1.504        0.567      136.889       44.327        0.105      332.680        1.500      857.388
12/19/2013  11:02:00       60.947      151.435        8.221       88.931      130.466       76.843     7908.656    17021.387     5904.812        2.877        1.542      163.239       66.745        0.167      332.624        1.405      857.353
12/19/2013  11:03:00       66.305      178.703       10.458       88.058       95.982       85.706     7754.258     9212.497     7345.524        3.037        1.216      190.607       70.679        0.137      332.528        1.246      857.285
12/19/2013  11:04:00       28.890      205.675       -6.394      103.077      109.105       76.342    10624.768    11903.961     5828.035        3.576        1.418      207.694       64.808        0.097      332.518        1.230      857.228
12/19/2013  11:05:00      118.608      102.072       17.634      125.801       89.741       52.714    15825.792     8053.381     2778.717        2.572        1.333      156.482       39.655        0.064      332.618        1.395      857.237
12/19/2013  11:06:00      276.680      202.106       40.903      105.109       94.657       85.104    11047.861     8959.899     7242.703        7.316        1.363      342.635       60.637        0.031      332.553        1.287      857.303
12/19/2013  11:07:00      192.673      175.544      -11.723      123.113       97.139       71.693    15156.842     9436.064     5139.947        4.890        1.487      260.650       61.264        0.055      332.564        1.304      857.403
12/19/2013  11:08:00      107.316      216.815      -21.610       90.648      118.746       80.108     8217.129    14100.642     6417.307        4.386        1.437      241.920       80.795        0.112      332.565        1.307      857.502
12/19/2013  11:09:00      129.040      277.534      -12.011      138.186      153.398       74.486    19095.422    23530.941     5548.227        7.099        2.409      306.067       90.095        0.087      332.555        1.292      857.525
12/19/2013  11:10:00      167.247      229.012      -13.887      169.635      122.672       95.400    28775.893    15048.327     9101.192        6.676        2.646      283.581       71.708        0.064      332.538        1.264      857.485
12/19/2013  11:11:00       76.765      259.758       -3.234       98.257      185.502      110.095     9654.425    34411.168    12120.999        6.477        2.809      270.864      111.131        0.168      332.505        1.210      857.458
12/19/2013  11:12:00      102.608      260.406      -18.590      132.647      158.551      103.306    17595.278    25138.393    10672.039        6.604        2.670      279.892       96.866        0.120      332.533        1.254      857.370
12/19/2013  11:13:00      117.468      184.619        8.088      125.565      151.443      110.611    15766.524    22935.087    12234.878        4.943        2.547      218.822       94.838        0.188      332.479        1.167      857.277
12/19/2013  11:14:00       80.765      245.294       -3.061      102.823      182.444      108.476    10572.467    33285.937    11767.083        6.115        2.781      258.249      115.458        0.200      332.487        1.180      857.235
12/19/2013  11:15:00       30.558      326.378      -45.399       73.079      142.471       61.363     5340.550    20297.871     3765.397        6.946        1.470      327.805       67.014        0.042      332.545        1.275      857.249
12/19/2013  11:16:00      104.449      227.503      -20.866      134.218      153.161       65.257    18014.362    23458.404     4258.422        5.441        2.287      250.334       66.179        0.070      332.644        1.438      857.290
12/19/2013  11:17:00       94.782      167.012        2.790      115.892      128.827       77.133    13430.917    16596.470     5949.431        3.642        1.799      192.032       63.259        0.109      332.615        1.389      857.337
12/19/2013  11:18:00      124.508      222.731       -6.979      120.530      171.529       84.558    14527.507    29422.093     7149.971        5.812        2.555      255.170       84.546        0.110      332.591        1.350      857.368
12/19/2013  11:19:00      181.024      191.424       20.545      168.465      114.905       90.319    28380.509    13203.089     8157.456        5.978        2.487      263.463       66.978        0.065      332.558        1.295      857.342
12/19/2013  11:20:00      183.246      115.176       48.826      144.318       97.834       83.505    20827.574     9571.435     6973.155        4.329        1.869      216.437       55.391        0.065      332.500        1.200      857.297
12/19/2013  11:21:00       82.792      191.340       -6.389      120.484      126.233       82.333    14516.411    15934.685     6778.754        4.036        1.861      208.484       81.204        0.152      332.509        1.214      857.288
12/19/2013  11:22:00       64.588      246.038        3.684      121.496      191.121      109.617    14761.330    36527.379    12015.901        6.400        3.165      254.374      115.834        0.207      332.485        1.175      857.338
12/19/2013  11:23:00       29.900      136.240        2.646       71.008       82.924       54.165     5042.076     6876.416     2933.893        1.715        0.743      139.482       42.705        0.094      332.616        1.393      857.339
12/19/2013  11:24:00      120.958      151.813      -21.328      101.646      112.852       56.495    10331.942    12735.496     3191.717        3.219        1.313      194.108       58.900        0.092      332.583        1.339      857.226
12/19/2013  11:25:00       79.556      107.632       14.452      105.452       88.825       71.662    11120.066     7889.850     5135.460        2.113        1.207      133.843       46.379        0.120      332.623        1.405      857.179
12/19/2013  11:26:00      100.172      199.706       -9.607      105.915      108.929       85.308    11218.032    11865.583     7277.441        4.018        1.518      223.421       77.119        0.119      332.529        1.247      857.208
12/19/2013  11:27:00       43.562      199.212      -10.823       93.808      100.343       54.535     8799.905    10068.620     2974.062        3.177        1.092      203.919       55.867        0.075      332.625        1.407      857.247
12/19/2013  11:28:00       45.168      186.703       -5.568       91.196      135.855       65.259     8316.687    18456.665     4258.721        3.398        1.552      192.089       59.311        0.095      332.647        1.443      857.254
12/19/2013  11:29:00      120.008      109.731       21.745      103.874       74.020       61.717    10789.801     5479.012     3808.929        2.349        1.004      162.612       44.992        0.077      332.684        1.505      857.251
12/19/2013  11:30:00      176.767      161.339       14.604      117.187       75.281       73.055    13732.909     5667.195     5337.083        4.111        1.237      239.325       53.641        0.050      332.578        1.327      857.217
12/19/2013  11:31:00      160.818      215.063      -16.761      124.763      150.304       85.618    15565.828    22591.198     7330.360        5.893        2.274      268.541       85.226        0.101      332.503        1.206      857.197
12/19/2013  11:32:00      104.396      195.918      -21.221       99.190      101.091       75.509     9838.721    10219.332     5701.659        3.774        1.288      221.996       61.174        0.076      332.514        1.222      857.138
12/19/2013  11:33:00       63.730      144.515       -2.499       95.514       99.251       62.242     9122.870     9850.787     3874.115        2.390        1.142      157.943       57.532        0.133      332.585        1.341      857.091
12/19/2013  11:34:00      141.914      147.051       23.298      132.763      102.332       82.269    17626.036    10471.773     6768.195        3.858        1.743      204.362       67.680        0.110      332.532        1.254      857.065
12/19/2013  11:35:00      126.649      184.877       -0.788      117.832      136.360       92.985    13884.449    18594.019     8646.157        4.567        2.056      224.097       80.220        0.128      332.542        1.270      857.081
12/19/2013  11:36:00       80.845      234.757      -19.375      108.499      132.692       76.967    11771.983    17607.209     5923.976        4.866        1.765      248.287       80.069        0.104      332.542        1.268      857.064
12/19/2013  11:37:00       71.701      236.881      -19.205       90.574      161.609       77.389     8203.598    26117.391     5989.073        5.096        2.016      247.495       78.907        0.102      332.555        1.291      857.077
12/19/2013  11:38:00       50.429      229.241      -18.256       83.589      138.058       77.237     6987.168    19060.124     5965.564        4.371        1.601      234.722       79.803        0.116      332.539        1.266      857.116
12/19/2013  11:39:00       33.132      158.435        1.168       88.212      100.138       59.239     7781.402    10027.564     3509.305        2.376        1.066      161.862       58.461        0.130      332.555        1.292      857.166
12/19/2013  11:40:00       95.826      148.403        7.981      112.316      130.622       67.316    12614.962    17062.122     4531.486        3.273        1.710      176.652       74.954        0.180      332.582        1.335      857.184
12/19/2013  11:41:00      176.506      132.319        5.892      155.920       97.433       77.951    24310.998     9493.170     6076.413        4.428        1.994      220.596       59.496        0.073      332.592        1.353      857.180
12/19/2013  11:42:00      161.367      231.664       -2.401      150.140      111.176       89.642    22542.001    12360.190     8035.762        6.132        2.147      282.325       74.259        0.069      332.537        1.260      857.181
12/19/2013  11:43:00      133.393      266.175      -17.329      125.466      146.318      105.384    15741.614    21408.837    11105.875        6.859        2.413      297.729      101.888        0.117      332.469        1.150      857.206
12/19/2013  11:44:00       73.318      178.859        8.059       84.700      110.504       76.845     7174.087    12211.180     5905.221        3.136        1.265      193.303       72.817        0.142      332.545        1.274      857.294
12/19/2013  11:45:00      107.726      133.100        0.614      114.633       77.689       54.337    13140.666     6035.525     2952.506        2.572        1.106      171.232       46.061        0.072      332.577        1.329      857.336
12/19/2013  11:46:00      174.456      142.030        8.539      122.913      106.998       73.240    15107.688    11448.562     5364.151        4.129        1.596      224.961       60.161        0.072      332.618        1.395      857.294
12/19/2013  11:47:00      151.866      190.465        7.424      113.580      128.877       88.169    12900.496    16609.168     7773.774        4.833        1.864      243.599       82.723        0.115      332.449        1.116      857.190
12/19/2013  11:48:00      224.334      135.425       17.372      138.683      112.502       82.454    19232.875    12656.811     6798.627        5.382        1.934      262.042       41.655        0.025      332.492        1.188      857.113
12/19/2013  11:49:00      200.781      161.844       -0.580      139.732       82.437       65.544    19525.156     6795.840     4295.968        4.856        1.531      257.889       46.252        0.032      332.508        1.214      857.089
12/19/2013  11:50:00      252.665      176.973       18.840      119.915      105.108       89.133    14379.580    11047.698     7944.655        6.444        1.669      308.478       67.254        0.048      332.443        1.106      857.075
12/19/2013  11:51:00      143.021      151.201        7.709      108.606      101.142       78.001    11795.307    10229.773     6084.139        3.574        1.405      208.127       55.596        0.071      332.483        1.173      857.085
12/19/2013  11:52:00      143.820      102.864       28.268       92.839       71.924       52.048     8619.109     5173.103     2708.995        2.428        0.825      176.820       33.842        0.037      332.514        1.223      857.073
12/19/2013  11:53:00       89.209      175.545        0.600      106.722       99.980       77.635    11389.594     9995.972     6027.246        3.309        1.371      196.912       65.471        0.111      332.431        1.087      857.045
12/19/2013  11:54:00      173.306      154.418        3.481      122.851       91.285       73.419    15092.401     8332.994     5390.362        4.135        1.441      232.120       48.243        0.043      332.466        1.145      857.007
12/19/2013  11:55:00      280.320      214.186       30.196      133.039       90.745       75.602    17699.471     8234.717     5715.628        7.850        1.582      352.781       44.391        0.016      332.417        1.065      856.960
12/19/2013  11:56:00      249.913      161.974       30.304      106.704       94.449       64.564    11385.803     8920.657     4168.522        5.704        1.224      297.812       32.094        0.012      332.462        1.137      856.925
12/19/2013  11:57:00      208.281      142.678       15.966       97.926       91.658       72.665     9589.475     8401.208     5280.241        4.363        1.164      252.464       56.377        0.050      332.370        0.986      856.892
12/19/2013  11:58:00      141.182      103.688       29.686       93.468       64.765       51.721     8736.285     4194.544     2675.071        2.358        0.780      175.167       36.378        0.043      332.484        1.173      856.834
12/19/2013  11:59:00       95.762       59.692       16.970       94.793       57.188       41.837     8985.771     3270.450     1750.373        1.351        0.700      112.842       30.648        0.074      332.471        1.154      856.780
12/19/2013  12:00:00       84.573       83.895       12.562       73.143       72.780       62.150     5349.939     5296.964     3862.574        1.443        0.725      119.126       42.907        0.130      332.511        1.221      856.746
12/19/2013  12:01:00       56.513       92.078       -3.128       52.476       67.081       42.892     2753.696     4499.830     1839.765        1.039        0.455      108.037       41.854        0.150      332.602        1.371      856.714
12/19/2013  12:02:00       96.214       93.727       12.933       70.336       58.728       38.004     4947.198     3448.954     1444.342        1.402        0.492      134.320       26.483        0.039      332.650        1.450      856.683
12/19/2013  12:03:00      -11.042      213.391      -19.276       55.966       89.636       40.738     3132.199     8034.674     1659.545        2.943        0.641      213.676       41.778        0.038      332.527        1.245      856.672
12/19/2013  12:04:00        9.544      120.348        4.500       58.001       80.104       48.334     3364.059     6416.620     2336.188        1.335        0.606      120.726       47.885        0.157      332.626        1.409      856.646
12/19/2013  12:05:00       45.550       86.224        8.391       52.566       67.320       47.023     2763.209     4531.955     2211.145        0.954        0.475       97.516       39.923        0.168      332.620        1.400      856.655
12/19/2013  12:06:00      126.599       78.315        7.107       97.110       53.801       48.240     9430.272     2894.498     2327.079        1.843        0.733      148.864       36.670        0.061      332.599        1.366      856.684
12/19/2013  12:07:00       76.873      203.091      -18.454       79.080      108.144       63.735     6253.699    11695.152     4062.116        3.475        1.101      217.153       68.827        0.100      332.393        1.025      856.717
12/19/2013  12:08:00       27.132      158.401       -6.649       59.348      106.009       56.381     3522.136    11237.843     3178.829        2.190        0.897      160.708       51.317        0.102      332.440        1.102      856.716
12/19/2013  12:09:00       61.936      140.076      -14.247       62.405      111.391       56.606     3894.342    12407.988     3204.265        2.158        0.975      153.158       67.563        0.195      332.506        1.211      856.676
12/19/2013  12:10:00       81.369       95.144       -1.042       72.864       38.498       36.453     5309.191     1482.065     1328.827        1.190        0.406      125.193       27.399        0.048      332.605        1.375      856.656
12/19/2013  12:11:00       65.083       68.617       28.698       75.057       62.004       53.941     5633.594     3844.513     2909.598        1.108        0.619       94.573       40.560        0.184      332.679        1.499      856.628
12/19/2013  12:12:00      195.506      155.285       10.283      108.307       92.466       78.549    11730.328     8549.899     6169.929        4.444        1.323      249.672       58.893        0.056      332.475        1.159      856.627
12/19/2013  12:13:00       97.454       91.108       11.766       84.617       56.948       44.728     7160.055     3243.121     2000.619        1.517        0.620      133.409       34.249        0.066      332.448        1.117      856.628
12/19/2013  12:14:00        9.654      152.867      -24.093       32.158       61.521       26.503     1034.145     3784.839      702.409        1.478        0.276      153.171       34.657        0.051      332.373        0.992      856.607
12/19/2013  12:15:00       61.615       76.690        2.889       69.305       58.149       32.977     4803.178     3381.329     1087.512        0.948        0.464       98.375       22.861        0.054      332.526        1.246      856.585
12/19/2013  12:16:00      128.107       87.192        3.783       64.844       40.436       40.390     4204.724     1635.092     1631.376        1.575        0.374      154.964       16.298        0.011      332.620        1.399      856.571
12/19/2013  12:17:00       51.165      106.710        3.842       82.957       70.967       55.929     6881.811     5036.288     3128.087        1.453        0.752      118.343       44.171        0.139      332.608        1.382      856.549
12/19/2013  12:18:00       15.212      161.939      -18.214       41.867       69.891       36.333     1752.817     4884.808     1320.075        1.737        0.398      162.652       34.185        0.044      332.366        0.980      856.501
12/19/2013  12:19:00       76.675       68.035       30.718       67.488       61.479       56.018     4554.653     3779.667     3138.060        1.146        0.574      102.508       39.357        0.147      332.516        1.230      856.439
12/19/2013  12:20:00      118.585      116.673       91.057       78.676       45.855       54.769     6189.983     2102.672     2999.591        2.363        0.565      166.358       54.307        0.107      332.341        0.940      856.394
12/19/2013  12:21:00      116.764       62.465       23.081       59.650       45.195       38.677     3558.151     2042.565     1495.927        1.258        0.355      132.422       22.042        0.028      332.436        1.097      856.423
12/19/2013  12:22:00       47.250       39.517       33.481       66.148       54.328       47.024     4375.571     2951.499     2211.268        0.723        0.477       61.597       23.277        0.143      332.695        1.526      856.435
12/19/2013  12:23:00       98.256       64.643       27.929       92.053       51.073       44.836     8473.839     2608.485     2010.251        1.385        0.655      117.613       25.992        0.049      332.718        1.563      856.459
12/19/2013  12:24:00       42.068       56.484        5.231       81.369       53.260       31.680     6620.922     2836.607     1003.625        0.772        0.523       70.428       26.774        0.145      332.724        1.573      856.430
12/19/2013  12:25:00       35.838       68.077       -6.289       32.739       66.821       32.969     1071.869     4465.110     1086.977        0.629        0.331       76.934       25.001        0.106      332.530        1.252      856.368
12/19/2013  12:26:00       61.423       69.742       -7.105       47.867       49.461       36.785     2291.242     2446.354     1353.131        0.739        0.305       92.934       35.084        0.143      332.591        1.354      856.312
12/19/2013  12:27:00      170.289      111.997       27.193       66.672       50.099       42.932     4445.216     2509.932     1843.139        2.554        0.440      203.817       34.094        0.028      332.478        1.165      856.295
12/19/2013  12:28:00      149.455      109.018       16.845       65.991       45.053       40.114     4354.772     2029.815     1609.099        2.125        0.400      184.991       30.438        0.027      332.449        1.116      856.265
12/19/2013  12:29:00      143.517       93.064       21.203       71.302       56.919       37.398     5084.011     3239.757     1398.587        1.971        0.486      171.050       22.602        0.017      332.437        1.098      856.287
12/19/2013  12:30:00       62.030       75.800       -1.209       86.218       63.518       39.008     7433.465     4034.545     1521.663        1.129        0.649       97.946       34.732        0.126      332.587        1.346      856.289
12/19/2013  12:31:00       68.153      134.077        2.175      114.261       92.613       55.084    13055.519     8577.114     3034.238        2.364        1.233      150.404       54.473        0.131      332.640        1.431      856.355
12/19/2013  12:32:00        3.381      227.312      -23.910       62.689       79.594       42.688     3929.850     6335.236     1822.225        3.217        0.604      227.337       46.106        0.041      332.612        1.384      856.387
12/19/2013  12:33:00      -42.968      239.234      -33.012       64.916       63.876       29.286     4214.053     4080.093      857.669        3.466        0.458      243.062       19.912        0.007      332.529        1.247      856.403
12/19/2013  12:34:00      -10.140      146.025        5.372       62.172       71.871       47.908     3865.382     5165.462     2295.224        1.639        0.566      146.377       44.165        0.091      332.665        1.474      856.405
12/19/2013  12:35:00       95.116      110.929       21.502      105.860       70.630       64.894    11206.260     4988.576     4211.253        2.111        1.020      146.124       50.188        0.118      332.544        1.273      856.385
12/19/2013  12:36:00       55.487      105.580       25.993       88.433      108.896       86.141     7820.467    11858.414     7420.348        2.100        1.355      119.272       71.772        0.362      332.554        1.291      856.375
12/19/2013  12:37:00       77.438      132.507        3.391       71.399      100.623       70.933     5097.760    10125.053     5031.561        2.191        1.013      153.475       62.774        0.167      332.458        1.133      856.389
12/19/2013  12:38:00       73.456      124.758       -7.379       57.717       88.527       60.235     3331.259     7836.948     3628.201        1.790        0.740      144.777       48.673        0.113      332.474        1.158      856.365
12/19/2013  12:39:00       42.779      100.785        7.106       55.786       98.505       48.989     3112.069     9703.332     2399.934        1.362        0.761      109.488       54.388        0.247      332.539        1.265      856.372
12/19/2013  12:40:00       17.541      242.953      -33.866       55.832       91.672       37.493     3117.163     8403.819     1405.726        3.670        0.646      243.585       39.379        0.026      332.495        1.192      856.396
12/19/2013  12:41:00       23.609      125.248       -3.636       83.146       74.226       46.040     6913.238     5509.489     2119.683        1.540        0.727      127.454       45.283        0.126      332.557        1.296      856.428
12/19/2013  12:42:00       44.655      191.115       -7.387      103.941      111.403       71.343    10803.792    12410.629     5089.791        3.343        1.415      196.263       68.171        0.121      332.497        1.195      856.454
12/19/2013  12:43:00       48.736      179.187       -2.045       74.478      116.310       66.760     5547.002    13528.130     4456.956        2.901        1.177      185.697       67.501        0.132      332.438        1.099      856.461
12/19/2013  12:44:00       40.708      132.666        4.636       69.740       86.057       55.403     4863.640     7405.890     3069.438        1.731        0.767      138.771       51.068        0.135      332.503        1.207      856.460
12/19/2013  12:45:00       83.860      151.355       -2.669       67.805       92.261       57.039     4597.539     8512.008     3253.424        2.315        0.818      173.034       55.955        0.105      332.509        1.217      856.459
12/19/2013  12:46:00       21.598      168.103      -11.818       52.717      103.076       58.027     2779.088    10624.661     3367.093        2.282        0.839      169.485       62.362        0.135      332.576        1.327      856.452
12/19/2013  12:47:00       12.500      213.988      -33.275       44.945       52.965       35.087     2020.033     2805.268     1231.109        2.655        0.303      214.353       24.509        0.013      332.510        1.216      856.456
12/19/2013  12:48:00       -4.808      148.249      -15.554       41.528       63.164       32.769     1724.542     3989.665     1073.786        1.451        0.339      148.327       34.532        0.054      332.684        1.506      856.479
12/19/2013  12:49:00       95.999      140.703       -9.622       94.847       90.537       59.564     8995.864     8196.944     3547.845        2.492        1.037      170.332       57.779        0.115      332.632        1.420      856.495
12/19/2013  12:50:00      183.187      108.432       16.416       81.781       73.156       43.256     6688.150     5351.779     1871.094        2.975        0.696      212.873       26.615        0.016      332.558        1.295      856.514
12/19/2013  12:51:00       90.834      107.754        4.188      105.111       73.901       51.926    11048.312     5461.409     2696.357        1.954        0.960      140.932       39.069        0.077      332.742        1.602      856.523
12/19/2013  12:52:00       54.818      119.219       -7.211       71.432       73.972       64.547     5102.505     5471.823     4166.336        1.600        0.737      131.218       58.467        0.199      332.796        1.691      856.551
12/19/2013  12:53:00      169.911      150.677        5.382       99.225       65.229       59.973     9845.654     4254.859     3596.800        3.465        0.885      227.097       42.975        0.036      332.701        1.532      856.540
12/19/2013  12:54:00      156.820      117.573       33.860      112.943       59.688       48.165    12756.082     3562.660     2319.856        2.910        0.932      196.000       42.554        0.047      332.632        1.419      856.506
12/19/2013  12:55:00      119.011       82.367       40.932       71.554       51.417       52.095     5119.940     2643.739     2713.844        1.655        0.524      144.735       38.679        0.071      332.917        1.890      856.486
12/19/2013  12:56:00      107.380       85.349       16.813       84.741       37.847       42.077     7181.066     1432.385     1770.508        1.474        0.519      137.167       26.649        0.038      332.735        1.588      856.502
12/19/2013  12:57:00      -11.929      216.726      -25.940       69.362       75.636       46.934     4811.027     5720.867     2202.755        3.026        0.637      217.054       40.291        0.034      332.704        1.536      856.511
12/19/2013  12:58:00       20.310       52.760       31.993       67.164       58.244       61.735     4510.952     3392.379     3811.257        0.797        0.586       56.535       49.737        0.774      333.067        2.139      856.506
12/19/2013  12:59:00       99.774      125.275        7.159       82.650       77.608       61.815     6831.016     6023.023     3821.098        2.118        0.834      160.152       45.572        0.081      332.901        1.862      856.496
12/19/2013  13:00:00       26.355      152.525       -8.208       73.375       78.322       51.824     5383.881     6134.333     2685.693        1.911        0.710      154.785       57.768        0.139      332.813        1.719      856.509
12/19/2013  13:01:00       -5.859       91.453        0.146       76.814       75.562       37.441     5900.368     5709.546     1401.852        1.070        0.651       91.641       39.661        0.187      332.979        1.992      856.469
12/19/2013  13:02:00       91.922       71.434        0.665       33.620       44.598       30.826     1130.285     1988.938      950.220        0.881        0.203      116.415       23.283        0.040      333.016        2.056      856.458
12/19/2013  13:03:00      126.325      137.438        8.743       89.818       67.444       55.159     8067.341     4548.715     3042.562        2.529        0.783      186.674       43.952        0.055      332.847        1.774      856.438
12/19/2013  13:04:00       25.932       77.019        0.295       32.498       72.948       31.283     1056.126     5321.453      978.625        0.698        0.368       81.268       35.294        0.189      333.033        2.083      856.450
12/19/2013  13:05:00       14.952       14.694       13.488       32.293       26.381       16.804     1042.821      695.958      282.379        0.132        0.101       20.964       14.996        0.512      333.274        2.481      856.424
12/19/2013  13:06:00      108.095       81.953        7.589       57.067       41.004       44.927     3256.640     1681.347     2018.454        1.271        0.348      135.649       27.967        0.043      333.094        2.184      856.388
12/19/2013  13:07:00      142.933       97.159       15.021       73.085       68.348       50.200     5341.367     4671.487     2520.018        2.131        0.627      172.829       27.728        0.026      333.011        2.046      856.375
12/19/2013  13:08:00      118.511       82.129       17.867      122.739       69.285       52.092    15064.917     4800.417     2713.572        2.184        1.129      144.188       33.381        0.054      333.158        2.290      856.419
12/19/2013  13:09:00      316.533      195.346       30.602      108.572       86.603       81.295    11787.854     7500.113     6608.855        8.259        1.295      371.959       31.762        0.007      332.966        1.969      856.472
12/19/2013  13:10:00      163.077      150.634       24.957      131.273       81.425       70.071    17232.693     6630.055     4909.935        3.934        1.439      222.001       47.260        0.045      333.096        2.184      856.480
12/19/2013  13:11:00      177.246      222.376      -27.399      120.193      121.179       78.840    14446.280    14684.313     6215.819        5.848        1.767      284.371       65.467        0.053      332.897        1.856      856.445
12/19/2013  13:12:00      143.019      186.437        4.451      126.253      118.757       80.069    15939.860    14103.297     6411.123        4.584        1.823      234.975       74.377        0.100      332.844        1.768      856.441
12/19/2013  13:13:00      216.169      183.268        7.292      138.196      103.267       75.692    19098.158    10664.121     5729.219        5.792        1.775      283.402       47.802        0.028      332.820        1.728      856.466
12/19/2013  13:14:00      180.905      114.459        7.825       80.005       79.011       59.758     6400.794     6242.711     3571.021        3.105        0.811      214.073       36.247        0.029      332.945        1.936      856.489
12/19/2013  13:15:00      130.734       84.785        4.812      107.170       59.387       55.587    11485.402     3526.812     3089.926        2.120        0.905      155.820       30.633        0.039      332.854        1.786      856.487
12/19/2013  13:16:00       -8.134      145.417       -9.417       63.676       59.154       38.831     4054.663     3499.152     1507.823        1.518        0.453      145.645       25.015        0.029      332.857        1.792      856.426
12/19/2013  13:17:00        2.025       82.968       -1.300       59.775       75.714       37.789     3573.065     5732.617     1427.994        0.881        0.537       82.992       44.848        0.292      332.983        2.000      856.390
12/19/2013  13:18:00       50.455      159.254       12.188      104.900       85.896       38.854    11004.023     7378.145     1509.620        2.397        0.995      167.056       42.302        0.064      332.845        1.772      856.411
12/19/2013  13:19:00      232.940      136.249       28.003      104.136       88.300       69.037    10844.296     7796.893     4766.104        4.850        1.170      269.861       47.780        0.031      332.715        1.554      856.412
12/19/2013  13:20:00      172.464      133.411       44.237      121.012       81.654       70.785    14643.919     6667.434     5010.479        3.791        1.316      218.042       34.453        0.025      332.715        1.556      856.348
12/19/2013  13:21:00       50.894      217.260      -23.622       67.980      114.976       56.824     4621.255    13219.595     3229.014        3.571        1.053      223.142       64.989        0.085      332.651        1.450      856.330
12/19/2013  13:22:00        3.872      250.238      -36.154       67.079       74.054       35.920     4499.529     5483.972     1290.253        3.761        0.564      250.268       32.782        0.017      332.650        1.448      856.337
12/19/2013  13:23:00       48.294      242.135      -22.683       68.684      141.208       74.347     4717.466    19939.606     5527.483        4.583        1.509      246.904       82.436        0.111      332.595        1.356      856.384
12/19/2013  13:24:00      -16.290      263.457      -27.073       49.127       71.318       39.293     2413.442     5086.323     1543.928        3.972        0.452      263.960       36.585        0.019      332.600        1.364      856.423
12/19/2013  13:25:00       20.748      108.467        4.532       58.579       66.109       43.676     3431.457     4370.440     1907.604        1.096        0.485      110.434       42.666        0.149      332.725        1.574      856.374
12/19/2013  13:26:00      -65.695      293.925      -30.896       66.681       76.641       40.123     4446.397     5873.814     1609.828        5.179        0.597      301.177       38.989        0.017      332.717        1.558      856.322
12/19/2013  13:27:00      107.148      122.132        5.210      110.442      100.507       60.501    12197.357    10101.743     3660.424        2.619        1.298      162.472       44.192        0.074      332.920        1.896      856.283
12/19/2013  13:28:00      102.238      172.878       -4.258       93.326      115.913       66.523     8709.664    13435.935     4425.305        3.346        1.329      200.847       71.516        0.127      332.835        1.754      856.272
12/19/2013  13:29:00       54.092       91.847       14.929       92.483       98.770       74.189     8553.133     9755.483     5503.963        1.769        1.191      106.592       61.352        0.331      332.894        1.853      856.237
12/19/2013  13:30:00      -14.624      211.333      -21.975       74.788       84.163       42.314     5593.192     7083.460     1790.449        2.991        0.723      211.838       31.851        0.023      332.897        1.856      856.221
12/19/2013  13:31:00        2.276      290.259      -32.603       61.895       83.645       48.850     3830.946     6996.481     2386.357        4.926        0.661      290.268       49.302        0.029      332.781        1.662      856.289
12/19/2013  13:32:00      110.290      142.912        6.549      130.628      100.124       55.995    17063.545    10024.787     3135.453        3.142        1.511      180.520       57.616        0.102      333.005        2.034      856.379
12/19/2013  13:33:00       78.513       92.819        1.292       64.250       49.445       40.561     4128.060     2444.838     1645.165        1.150        0.411      121.571       33.153        0.074      333.117        2.222      856.381
12/19/2013  13:34:00       48.522      212.223      -19.933       69.015      111.132       60.645     4763.002    12350.325     3677.868        3.429        1.040      217.699       62.301        0.082      333.000        2.026      856.312
12/19/2013  13:35:00      117.883      137.821        2.921       94.049       72.039       51.630     8845.176     5189.555     2665.611        2.480        0.835      181.358       41.493        0.052      332.918        1.892      856.267
12/19/2013  13:36:00      122.996      138.686       16.117      125.172       78.255       66.300    15668.121     6123.873     4395.675        3.040        1.309      185.369       51.651        0.078      332.894        1.853      856.304
12/19/2013  13:37:00      189.289      172.677        5.399      116.108       87.784       65.058    13481.148     7705.949     4232.553        4.554        1.271      256.218       52.604        0.042      332.913        1.881      856.307
12/19/2013  13:38:00       93.972      219.233      -33.137       83.670       91.478       53.989     7000.742     8368.245     2914.844        3.813        0.914      238.524       36.957        0.024      332.970        1.976      856.202
12/19/2013  13:39:00      108.001      103.337        6.679       78.417       48.116       45.119     6149.199     2315.131     2035.706        1.644        0.525      149.475       34.338        0.053      332.847        1.776      856.107
12/19/2013  13:40:00       57.880       81.698        7.948       78.809       58.869       55.334     6210.808     3465.616     3061.906        1.141        0.637      100.124       37.215        0.138      332.997        2.024      856.095
12/19/2013  13:41:00       36.970      103.010       -5.966       64.570       87.910       46.570     4169.286     7728.102     2168.791        1.304        0.703      109.444       37.027        0.114      333.028        2.073      856.135
12/19/2013  13:42:00       62.514      109.069       12.375      111.549       59.243       48.540    12443.199     3509.768     2356.126        1.713        0.915      125.714       49.712        0.156      333.023        2.065      856.092
12/19/2013  13:43:00       24.405      129.023       -0.127       78.814       77.535       55.380     6211.659     6011.697     3066.972        1.626        0.765      131.311       45.455        0.120      333.095        2.185      856.043
12/19/2013  13:44:00       57.948      189.127      -11.598       84.765      112.528       68.992     7185.033    12662.464     4759.919        3.193        1.230      197.805       68.001        0.118      333.029        2.073      856.096
12/19/2013  13:45:00       56.236      137.218        4.910       74.024      107.452       64.363     5479.497    11545.921     4142.646        2.159        1.058      148.294       71.028        0.229      332.899        1.861      856.184
12/19/2013  13:46:00      -14.523      146.635        1.651       62.756       61.373       42.469     3938.355     3766.691     1803.576        1.561        0.475      147.352       30.984        0.044      333.020        2.062      856.206
12/19/2013  13:47:00       49.721       39.658        8.680       53.408       39.560       35.767     2852.365     1564.969     1279.283        0.491        0.285       63.600       30.203        0.226      333.302        2.527      856.125
12/19/2013  13:48:00       54.010       33.971       21.400       53.952       37.663       30.274     2910.788     1418.524      916.516        0.489        0.262       63.805       23.657        0.137      333.287        2.504      856.076
12/19/2013  13:49:00       13.067       83.953      -15.587       33.832       54.366       32.970     1144.606     2955.660     1087.022        0.632        0.259       84.964       22.887        0.073      333.240        2.424      856.125
12/19/2013  13:50:00      112.070      120.920       12.985       99.251       84.189       59.251     9850.713     7087.854     3510.702        2.390        1.022      164.867       51.992        0.099      333.051        2.111      856.145
12/19/2013  13:51:00      131.891      118.659        6.776       88.115       74.392       58.044     7764.281     5534.240     3369.106        2.409        0.833      177.412       41.876        0.056      332.950        1.944      856.105
12/19/2013  13:52:00      106.716      105.134       -0.645       89.125       65.306       50.317     7943.248     4264.921     2531.837        1.859        0.737      149.805       37.768        0.064      332.975        1.986      856.053
12/19/2013  13:53:00       63.179      120.727       -0.888       55.292       74.857       56.568     3057.212     5603.509     3199.990        1.521        0.593      136.259       46.416        0.116      333.108        2.206      856.082
12/19/2013  13:54:00      153.017      115.401       22.305      110.754       77.945       73.428    12266.476     6075.392     5391.671        3.048        1.187      191.654       28.745        0.022      333.154        2.281      856.131
12/19/2013  13:55:00      140.568      182.504       -7.985      144.545       98.797       76.539    20893.356     9760.923     5858.168        4.482        1.826      230.363       44.652        0.038      332.713        1.552      856.136
12/19/2013  13:56:00       33.870      140.555       -8.460       55.197       78.914       58.232     3046.747     6227.413     3390.920        1.682        0.633      144.578       55.012        0.145      332.859        1.794      856.096
12/19/2013  13:57:00        0.821      297.885      -39.141       46.824       57.429       36.301     2192.490     3298.115     1317.768        4.854        0.340      297.886       26.640        0.008      332.827        1.739      856.118
12/19/2013  13:58:00      -15.551      192.897      -22.675       51.494       58.522       32.295     2651.674     3424.794     1042.984        2.254        0.356      193.523       32.142        0.028      332.815        1.722      856.156
12/19/2013  13:59:00      -21.689      177.743      -20.898       27.427       36.080       17.742      752.216     1301.764      314.775        1.743        0.118      179.061       15.763        0.008      332.677        1.494      856.101
12/19/2013  14:00:00       23.476      123.512       -7.813       54.955       51.529       28.341     3020.017     2655.264      803.224        1.117        0.324      125.723       34.091        0.074      332.823        1.736      856.003
12/19/2013  14:01:00       61.005       40.321       10.300       55.046       55.627       33.742     3030.025     3094.324     1138.548        0.636        0.363       73.126       32.160        0.193      332.811        1.719      855.924
12/19/2013  14:02:00       41.242       81.844       -8.064       35.462       36.723       27.951     1257.525     1348.593      781.235        0.593        0.169       91.648       26.819        0.086      332.902        1.867      855.880
12/19/2013  14:03:00       51.389       71.586       -2.822       51.348       48.797       32.686     2636.604     2381.114     1068.363        0.693        0.304       88.122       22.288        0.064      333.016        2.056      855.885
12/19/2013  14:04:00       86.271       10.938       35.052       61.777       54.043       38.610     3816.411     2920.665     1490.719        0.851        0.411       86.961       34.835        0.160      332.927        1.909      855.876
12/19/2013  14:05:00       68.972       70.595       72.304       51.176       50.095       39.844     2618.943     2509.551     1587.509        1.084        0.336       98.695       33.161        0.113      332.993        2.017      855.880
12/19/2013  14:06:00       86.720       68.496       65.867       84.726       67.403       49.899     7178.551     4543.217     2489.925        1.538        0.711      110.508       46.821        0.180      333.005        2.036      855.889
12/19/2013  14:07:00       56.258      -50.613       27.300       78.433       78.502       41.053     6151.773     6162.508     1685.366        1.023        0.700       75.675       27.654        0.134      333.293        2.512      855.892
12/19/2013  14:08:00       25.501       31.540      -10.344       29.460       24.165       24.372      867.863      583.933      593.974        0.190        0.102       40.559        7.575        0.035      333.308        2.538      855.891
12/19/2013  14:09:00       18.120       54.225       -9.929       27.139       28.179       16.098      736.551      794.047      259.155        0.258        0.089       57.172        7.137        0.016      333.260        2.458      855.902
12/19/2013  14:10:00      -17.567      137.489       -6.790       55.515       78.058       38.572     3081.904     6093.127     1487.769        1.496        0.533      138.607       40.914        0.087      333.205        2.366      855.902
12/19/2013  14:11:00        2.766      174.709      -13.904       51.868       82.952       33.234     2690.252     6881.021     1104.495        2.070        0.534      174.731       35.689        0.042      333.059        2.124      855.904
12/19/2013  14:12:00       30.270      104.354        7.567       49.427       97.879       43.896     2442.990     9580.231     1926.885        1.290        0.698      108.656       51.622        0.226      333.141        2.261      855.916
12/19/2013  14:13:00       82.816      107.477       -2.480       64.402       84.688       39.135     4147.633     7172.060     1531.577        1.563        0.643      135.683       43.040        0.101      333.095        2.183      855.943
12/19/2013  14:14:00      -10.729      126.905      -13.926       42.762       75.541       26.534     1828.613     5706.383      704.030        1.233        0.412      127.358       38.150        0.090      332.975        1.986      855.962
12/19/2013  14:15:00       45.864       36.664       15.029       33.478       27.922       28.756     1120.790      779.617      826.931        0.320        0.136       58.718       21.346        0.132      333.135        2.251      855.949
12/19/2013  14:16:00       42.650       49.942        9.146       29.697       35.486       31.865      881.912     1259.235     1015.402        0.378        0.158       65.676       24.140        0.135      333.151        2.276      855.944
12/19/2013  14:17:00       18.885        9.404        4.300       25.243       17.519       18.063      637.220      306.919      326.271        0.087        0.064       21.097       14.816        0.493      333.322        2.560      855.941
12/19/2013  14:18:00       18.448       93.987      -11.276       38.757       45.159       30.119     1502.099     2039.327      907.152        0.687        0.222       95.781       22.992        0.058      333.146        2.269      855.944
12/19/2013  14:19:00      -11.676      138.278       -4.256       42.645       79.565       37.189     1818.561     6330.617     1383.015        1.440        0.477      138.770       41.444        0.089      333.103        2.198      855.956
12/19/2013  14:20:00       60.727      100.022      -12.055       68.879       63.594       42.878     4744.308     4044.136     1838.514        1.223        0.531      117.013       34.796        0.088      333.101        2.196      855.983
12/19/2013  14:21:00       27.905      124.735      -15.892       61.900       58.226       34.766     3831.628     3390.218     1208.675        1.251        0.422      127.819       32.071        0.063      332.983        2.001      856.007
12/19/2013  14:22:00      -46.408       84.191       -5.674       42.323       47.649       24.369     1791.263     2270.388      593.848        0.696        0.233       96.135       18.833        0.038      333.239        2.423      856.015
12/19/2013  14:23:00       81.717       59.234        4.112       57.715       35.808       34.118     3331.026     1282.244     1164.023        0.799        0.289      100.927       21.991        0.047      333.199        2.357      856.016
12/19/2013  14:24:00      156.792       89.591       28.391       63.229       56.141       54.091     3997.866     3151.766     2925.847        2.174        0.504      180.583       24.015        0.018      333.048        2.106      856.008
12/19/2013  14:25:00       15.053      107.290       -5.167       64.732       82.257       42.150     4190.195     6766.271     1776.593        1.225        0.637      108.340       37.372        0.119      333.159        2.290      856.034
12/19/2013  14:26:00       30.555      106.006       -7.117       53.459       72.578       42.765     2857.820     5267.497     1828.810        1.109        0.498      110.321       40.876        0.137      333.200        2.357      856.076
12/19/2013  14:27:00       89.518      119.269        6.424       95.268       94.374       69.014     9076.056     8906.484     4762.985        2.251        1.137      149.126       54.911        0.136      333.119        2.224      856.123
12/19/2013  14:28:00      157.804      114.043       15.745       87.151       56.821       51.635     7595.377     3228.643     2666.148        2.582        0.675      194.699       37.080        0.036      332.833        1.750      856.128
12/19/2013  14:29:00      133.884      101.244       28.123       60.035       47.306       44.613     3604.224     2237.865     1990.328        1.840        0.392      167.855       23.770        0.020      332.819        1.729      856.077
12/19/2013  14:30:00       33.462       87.364       -6.653       60.003       77.048       34.093     3600.350     5936.378     1162.300        0.975        0.535       93.553       28.373        0.092      333.016        2.054      856.032
12/19/2013  14:31:00       28.193      196.288      -10.923       71.836       81.618       44.018     5160.380     6661.563     1937.596        2.660        0.688      198.303       39.632        0.040      332.922        1.896      856.013
12/19/2013  14:32:00       82.299      111.284        1.793       53.509       58.662       34.938     2863.220     3441.204     1220.663        1.334        0.376      138.410       30.970        0.050      333.047        2.106      855.997
12/19/2013  14:33:00      161.774      108.317       28.293       79.632       62.388       57.808     6341.224     3892.320     3341.767        2.614        0.679      194.688       40.554        0.043      332.982        1.997      855.982
12/19/2013  14:34:00      132.901      132.185      105.993       79.791       57.006       46.466     6366.655     3249.692     2159.058        2.907        0.589      187.445       19.138        0.010      333.075        2.149      855.956
12/19/2013  14:35:00       95.637       71.631       62.783       68.900       60.952       42.227     4747.182     3715.086     1783.150        1.423        0.512      119.488       19.185        0.026      333.047        2.108      855.955
12/19/2013  14:36:00      201.843      123.139       34.469      104.165       73.153       57.794    10850.391     5351.363     3340.141        3.831        0.977      236.440       32.350        0.019      332.875        1.821      855.949
12/19/2013  14:37:00      166.508       63.646       51.956       95.383       73.282       74.408     9097.924     5370.243     5536.522        2.724        1.000      178.258       50.682        0.081      332.812        1.715      855.952
12/19/2013  14:38:00      190.168      131.947        7.428       68.396       43.765       44.255     4678.061     1915.349     1958.542        3.109        0.428      231.460       18.559        0.006      332.769        1.643      855.962
12/19/2013  14:39:00      128.279       55.820       12.232       50.539       43.270       44.070     2554.177     1872.263     1942.142        1.304        0.318      139.897       31.655        0.051      332.841        1.766      855.965
12/19/2013  14:40:00      153.337       64.438       21.721       85.878       55.252       46.739     7374.985     3052.739     2184.563        2.037        0.631      166.326       38.851        0.055      332.778        1.660      855.981
12/19/2013  14:41:00      180.989       84.429       23.024       52.000       49.334       41.894     2704.008     2433.880     1755.121        2.365        0.345      199.713       20.624        0.011      332.756        1.623      856.025
12/19/2013  14:42:00      114.220       96.274       17.053       76.136       56.647       45.275     5796.692     3208.867     2049.852        1.683        0.553      149.382       28.254        0.036      332.694        1.522      856.014
12/19/2013  14:43:00       49.838       80.661       -2.678       49.933       41.543       30.040     2493.339     1725.834      902.416        0.706        0.256       94.815       21.524        0.052      332.742        1.603      855.960
12/19/2013  14:44:00       41.676       35.232       11.372       47.149       34.057       29.272     2223.010     1159.875      856.834        0.367        0.212       54.573       18.252        0.112      332.775        1.658      855.927
12/19/2013  14:45:00        0.724       75.923       -2.605       47.109       61.295       29.380     2219.215     3757.115      863.180        0.630        0.342       75.927       34.730        0.209      332.890        1.848      855.963
12/19/2013  14:46:00      109.221       86.925        1.408       61.714       78.552       40.576     3808.563     6170.410     1646.393        1.555        0.581      139.589       34.544        0.061      332.848        1.777      856.064
12/19/2013  14:47:00       44.009      139.636      -19.701       41.212       49.371       35.794     1698.459     2437.465     1281.189        1.362        0.271      146.407       28.862        0.039      332.807        1.711      856.188
12/19/2013  14:48:00       -1.358       82.903       -1.298       49.316       55.898       31.593     2432.080     3124.588      998.149        0.671        0.328       82.914       34.722        0.175      332.981        1.997      856.231
12/19/2013  14:49:00       21.488       48.557       -1.172       35.061       46.692       30.242     1229.307     2180.124      914.599        0.357        0.216       53.100       28.855        0.295      332.949        1.944      856.209
12/19/2013  14:50:00        6.261       16.054        0.132       28.024       30.551       17.762      785.339      933.390      315.480        0.117        0.102       17.232       19.000        1.216      333.210        2.376      856.237
12/19/2013  14:51:00       -0.534      167.945      -23.514       36.756       76.981       25.295     1351.002     5926.137      639.840        1.834        0.396      167.946       37.075        0.049      332.891        1.847      856.294
12/19/2013  14:52:00       28.808       62.115        7.111       52.333       66.550       31.685     2738.769     4428.861     1003.964        0.645        0.409       68.471       32.228        0.222      333.002        2.032      856.317
12/19/2013  14:53:00      144.959       69.123       17.960       57.744       41.812       30.287     3334.411     1748.205      917.280        1.606        0.300      160.596       18.980        0.014      332.933        1.917      856.286
12/19/2013  14:54:00      105.470       59.473        5.015       69.707       51.485       32.602     4859.080     2650.688     1062.862        1.163        0.429      121.082       30.536        0.064      332.834        1.755      856.205
12/19/2013  14:55:00       35.741       33.770       16.153       40.691       45.962       32.299     1655.743     2112.480     1043.243        0.374        0.241       49.172       29.202        0.353      332.899        1.861      856.173
12/19/2013  14:56:00       36.648       97.551       -1.376       47.561       67.962       42.649     2262.004     4618.775     1818.978        0.978        0.435      104.208       46.335        0.198      332.755        1.624      856.216
12/19/2013  14:57:00       63.644       50.016        7.073       60.731       42.124       28.168     3688.301     1774.433      793.414        0.643        0.313       80.945       17.262        0.045      332.770        1.648      856.279
12/19/2013  14:58:00       75.195       65.873       10.238       60.401       49.602       24.068     3648.243     2460.332      579.252        0.839        0.334       99.968       19.579        0.038      332.797        1.695      856.317
12/19/2013  14:59:00      116.531       74.653        8.731       59.884       53.447       32.816     3586.066     2856.625     1076.871        1.337        0.376      138.393       20.282        0.021      332.786        1.677      856.340
12/19/2013  15:00:00      114.447       94.691       21.309       59.950       44.322       38.283     3594.057     1964.398     1465.584        1.477        0.351      148.541       29.397        0.039      332.732        1.585      856.360
12/19/2013  15:01:00      181.710       94.269       20.131       53.090       42.588       32.960     2818.582     1813.717     1086.387        2.401        0.286      204.707       11.657        0.003      332.725        1.571      856.386
12/19/2013  15:02:00      132.036       90.378       -5.486       79.123       37.658       43.311     6260.513     1418.099     1875.836        1.759        0.478      160.006       25.591        0.026      332.741        1.599      856.406
12/19/2013  15:03:00       49.114      121.855      -18.978       37.215       46.017       31.125     1384.921     2117.610      968.767        1.105        0.224      131.381       28.691        0.048      332.764        1.641      856.428
12/19/2013  15:04:00       53.802       55.943       11.768       50.744       34.728       28.013     2575.001     1206.054      784.718        0.536        0.228       77.617       24.947        0.103      332.794        1.688      856.454
12/19/2013  15:05:00       56.755       36.975       -1.021       54.395       33.821       25.114     2958.811     1143.849      630.718        0.466        0.237       67.737       16.243        0.057      332.779        1.666      856.491
12/19/2013  15:06:00        2.121       11.819      -10.108       27.079       22.247       13.661      733.291      494.923      186.636        0.083        0.071       12.008       11.950        0.990      332.791        1.685      856.536
12/19/2013  15:07:00       -4.757        1.479        3.384       18.278       13.812       10.705      334.096      190.768      114.602        0.034        0.032        4.981        6.134        1.516      332.822        1.737      856.576
12/19/2013  15:08:00        0.677       89.311      -13.907       30.207       31.556       19.283      912.459      995.750      371.833        0.522        0.114       89.313       13.897        0.024      332.850        1.782      856.611
12/19/2013  15:09:00       39.170       56.721        2.391       47.858       45.693       29.636     2290.408     2087.894      878.313        0.501        0.263       68.932       32.089        0.217      332.849        1.782      856.632
12/19/2013  15:10:00       24.145       97.134      -13.135       26.072       50.197       17.408      679.744     2519.689      303.038        0.685        0.175      100.090       19.784        0.039      332.835        1.757      856.600
12/19/2013  15:11:00       27.751       32.656       27.220       50.524       30.607       31.066     2552.708      936.814      965.079        0.352        0.223       42.854       22.418        0.274      332.873        1.821      856.569
12/19/2013  15:12:00       49.845       53.483        5.275       59.684       39.927       35.056     3562.238     1594.160     1228.900        0.588        0.319       73.109       28.827        0.155      332.808        1.712      856.587
12/19/2013  15:13:00       44.717       22.511       15.132       59.981       31.321       39.083     3597.750      981.017     1527.500        0.442        0.305       50.063       36.128        0.521      332.824        1.738      856.579
12/19/2013  15:14:00      -17.882       75.834       -4.890       22.579       39.529       20.775      509.818     1562.553      431.612        0.430        0.125       77.914       19.311        0.061      332.826        1.741      856.552
12/19/2013  15:15:00       16.994       35.730        4.235       27.972       18.884       15.084      782.424      356.613      227.520        0.147        0.068       39.566       11.996        0.092      332.797        1.695      856.535
12/19/2013  15:16:00       49.212       72.616      -10.171       32.530       52.460       21.549     1058.228     2752.022      464.353        0.604        0.214       87.721       23.819        0.074      332.806        1.708      856.540
12/19/2013  15:17:00       10.542       57.843       -1.244       29.237       40.870       19.726      854.831     1670.395      389.132        0.319        0.146       58.796       22.039        0.141      332.797        1.695      856.564
12/19/2013  15:18:00      -27.210       29.632        8.412       36.600       33.059       23.280     1339.532     1092.899      541.945        0.233        0.149       40.230       13.686        0.116      332.859        1.797      856.584
12/19/2013  15:19:00       41.571       27.777       -1.923       38.312       26.461       20.568     1467.795      700.206      423.036        0.255        0.130       49.997       17.596        0.124      332.814        1.723      856.618
12/19/2013  15:20:00        6.123      100.498      -12.497       27.643       28.243       20.850      764.156      797.640      434.721        0.614        0.100      100.684       15.353        0.023      332.792        1.686      856.628
12/19/2013  15:21:00      -31.817       85.651      -18.249       30.312       34.247       15.022      918.790     1172.874      225.659        0.550        0.116       91.370       15.107        0.027      332.934        1.920      856.667
12/19/2013  15:22:00      -26.528      175.688      -20.790       39.389       59.497       22.981     1551.490     3539.928      528.124        1.881        0.281      177.680       23.376        0.017      332.776        1.659      856.733
12/19/2013  15:23:00      -28.392      192.618      -26.277       31.441       33.229       16.786      988.531     1104.181      281.759        2.049        0.119      194.699       15.563        0.006      332.785        1.671      856.799
12/19/2013  15:24:00      -13.348      128.087       -9.504       39.464       57.838       27.358     1557.393     3345.243      748.463        1.116        0.283      128.781       28.322        0.048      332.837        1.760      856.832
12/19/2013  15:25:00       21.950       67.442        3.027       30.654       56.070       27.245      939.684     3143.792      742.306        0.493        0.241       70.925       30.077        0.180      332.807        1.708      856.850
12/19/2013  15:26:00       17.038       99.412       -8.239       41.110       42.548       23.418     1690.001     1810.311      548.425        0.714        0.202      100.862       23.129        0.053      332.758        1.630      856.869
12/19/2013  15:27:00       37.700       81.355       -2.041       37.024       52.776       27.270     1370.803     2785.319      743.665        0.647        0.245       89.665       32.134        0.128      332.746        1.610      856.870
12/19/2013  15:28:00       30.920       25.957       13.642       37.195       27.868       26.148     1383.477      776.649      683.726        0.233        0.142       40.371       18.536        0.211      332.758        1.629      856.851
12/19/2013  15:29:00       60.616       63.690       -0.546       28.685       33.069       30.829      822.840     1093.530      950.451        0.530        0.143       87.924       23.950        0.074      332.740        1.601      856.840
12/19/2013  15:30:00       57.843       42.526        4.531       26.751       23.759       20.742      715.595      564.501      430.237        0.344        0.086       71.793       16.333        0.052      332.735        1.593      856.837
12/19/2013  15:31:00       46.197       42.473       -1.185       19.475       25.286       15.255      379.259      639.376      232.711        0.260        0.063       62.754       13.569        0.047      332.774        1.656      856.823
12/19/2013  15:32:00       27.134       96.323       -6.252       35.650       65.622       30.317     1270.900     4306.300      919.093        0.827        0.325      100.072       34.131        0.116      332.737        1.594      856.803
12/19/2013  15:33:00       64.105       94.494       -0.563       44.570       66.734       33.218     1986.516     4453.386     1103.465        1.029        0.377      114.186       38.791        0.115      332.742        1.603      856.789
12/19/2013  15:34:00       87.872       49.052       -1.457       39.159       29.458       22.776     1533.393      867.785      518.753        0.652        0.146      100.636        9.119        0.008      332.742        1.603      856.778
12/19/2013  15:35:00      101.517       77.315       16.794       34.454       30.179       29.501     1187.093      910.776      870.293        0.977        0.148      127.606       12.654        0.010      332.709        1.547      856.777
12/19/2013  15:36:00      129.423       67.736       13.194       43.559       26.092       24.150     1897.422      680.794      583.238        1.234        0.158      146.076       15.463        0.011      332.723        1.571      856.785
12/19/2013  15:37:00      115.257       81.641       17.583       24.641       17.388       21.729      607.179      302.347      472.149        1.082        0.069      141.242       15.062        0.011      332.738        1.598      856.792
12/19/2013  15:38:00       69.926       53.795        5.887       32.385       20.082       22.569     1048.805      403.287      509.378        0.489        0.098       88.225       14.389        0.027      332.745        1.608      856.813
12/19/2013  15:39:00       22.304       87.427       -6.033       40.400       47.721       23.670     1632.141     2277.278      560.287        0.632        0.223       90.227       23.411        0.067      332.727        1.578      856.842
12/19/2013  15:40:00       36.147      158.199      -18.736       38.770       67.676       35.410     1503.146     4580.103     1253.848        1.701        0.367      162.276       38.726        0.057      332.737        1.594      856.885
12/19/2013  15:41:00       29.158       76.347        4.680       40.263       57.738       45.075     1621.108     3333.657     2031.711        0.684        0.349       81.726       34.916        0.183      332.728        1.580      856.917
12/19/2013  15:42:00       57.277       61.437        9.133       47.438       43.089       41.076     2250.364     1856.672     1687.238        0.647        0.290       83.996       29.638        0.125      332.708        1.546      856.925
12/19/2013  15:43:00       38.921       76.809       -5.725       51.938       49.552       35.824     2697.546     2455.372     1283.324        0.694        0.322       86.108       27.661        0.103      332.706        1.541      856.923
12/19/2013  15:44:00       57.116       60.759       -5.878       34.472       46.656       32.797     1188.318     2176.784     1075.626        0.571        0.222       83.390       25.280        0.092      332.724        1.573      856.902
12/19/2013  15:45:00       56.766       43.764        4.248       41.796       27.902       25.871     1746.868      778.495      669.297        0.417        0.160       71.678       13.869        0.037      332.724        1.573      856.899
12/19/2013  15:46:00       69.456       82.276       -5.436       46.810       51.628       30.020     2191.140     2665.417      901.200        0.869        0.288      107.673       30.613        0.081      332.751        1.618      856.908
12/19/2013  15:47:00       21.726      111.088      -11.175       44.234       67.163       31.294     1956.611     4510.834      979.333        1.019        0.372      113.193       34.301        0.092      332.775        1.657      856.931
12/19/2013  15:48:00       33.273       89.949        1.288       41.650       33.890       31.245     1734.749     1148.518      976.242        0.653        0.193       95.906       20.791        0.047      332.755        1.624      856.927
12/19/2013  15:49:00       53.536      114.274       -8.658       50.946       57.910       35.435     2595.452     3353.575     1255.667        1.160        0.360      126.192       33.793        0.072      332.769        1.648      856.905
12/19/2013  15:50:00      109.075       85.683        9.914       73.645       47.345       36.431     5423.566     2241.542     1327.234        1.416        0.450      138.704       22.617        0.027      332.785        1.673      856.884
12/19/2013  15:51:00       42.738      123.902      -10.285       42.579       43.180       34.367     1812.946     1864.532     1181.115        1.107        0.243      131.066       29.409        0.050      332.773        1.655      856.851
12/19/2013  15:52:00       35.982       91.090      -10.891       35.795       51.219       32.765     1281.297     2623.398     1073.531        0.734        0.249       97.939       29.066        0.088      332.764        1.639      856.855
12/19/2013  15:53:00       70.755      116.207       -3.186       62.135       47.705       41.944     3860.786     2275.720     1759.276        1.321        0.395      136.052       39.991        0.086      332.757        1.627      856.845
12/19/2013  15:54:00       48.657       61.917        6.083       40.842       40.990       33.572     1668.055     1680.151     1127.085        0.536        0.224       78.748       24.577        0.097      332.780        1.664      856.836
12/19/2013  15:55:00       33.785      154.000      -12.702       41.053      103.958       38.998     1685.320    10807.258     1520.835        1.951        0.701      157.662       51.067        0.105      332.754        1.621      856.829
12/19/2013  15:56:00       39.072      153.734      -15.891       53.081       86.157       42.905     2817.633     7422.972     1840.852        1.875        0.604      158.622       35.916        0.051      332.741        1.599      856.846
12/19/2013  15:57:00      125.009      141.924       -8.600       81.471       65.600       57.995     6637.529     4303.301     3363.368        2.507        0.715      189.129       43.206        0.052      332.727        1.574      856.882
12/19/2013  15:58:00       81.093      146.649       -6.261       66.287       76.108       49.465     4393.957     5792.443     2446.787        2.038        0.632      167.577       50.408        0.090      332.693        1.519      856.892
12/19/2013  15:59:00      127.199      170.497       -0.975      100.256      105.241       80.971    10051.282    11075.721     6556.237        3.646        1.384      212.718       75.322        0.125      332.663        1.469      856.877
12/19/2013  16:00:00      176.976      127.556        8.863      123.165       83.366       65.106    15169.737     6949.832     4238.778        3.701        1.318      218.154       44.962        0.042      332.624        1.405      856.884
12/19/2013  16:01:00      204.225      170.303       28.074      151.961      100.507       89.800    23092.074    10101.719     8064.016        5.637        2.063      265.915       74.873        0.079      332.577        1.326      856.881
12/19/2013  16:02:00      103.115      174.985      -14.379       98.273       95.047       61.852     9657.680     9033.897     3825.718        3.198        1.126      203.107       59.481        0.086      332.556        1.291      856.882
12/19/2013  16:03:00      101.981      115.844       10.512       79.707       82.047       54.982     6353.233     6731.684     3023.068        2.002        0.805      154.337       49.217        0.102      332.547        1.277      856.929
12/19/2013  16:04:00       64.125      249.984      -22.622       76.682      139.089       60.561     5880.098    19345.801     3667.607        4.800        1.445      258.077       66.253        0.066      332.478        1.164      856.951
12/19/2013  16:05:00       94.684      133.657       11.476      104.227      103.320       68.328    10863.234    10675.047     4668.656        2.658        1.310      163.797       61.040        0.139      332.443        1.109      856.944
12/19/2013  16:06:00       97.768       93.283        5.899      107.591       68.708       53.816    11575.724     4720.749     2896.150        1.874        0.960      135.131       42.067        0.097      332.436        1.096      856.916
12/19/2013  16:07:00       94.783      117.254       -0.791       85.165       70.255       42.872     7252.995     4935.699     1837.984        1.838        0.701      150.772       38.090        0.064      332.417        1.065      856.949
12/19/2013  16:08:00      114.200      135.810        3.151       90.482       74.120       57.294     8186.989     5493.743     3282.621        2.423        0.848      177.443       43.877        0.061      332.396        1.031      856.980
12/19/2013  16:09:00       69.173      128.687        5.401       67.725       74.416       48.328     4586.694     5537.814     2335.602        1.692        0.623      146.100       46.866        0.103      332.368        0.985      857.034
12/19/2013  16:10:00      106.091      160.272       -2.690       88.648      109.907       74.373     7858.508    12079.604     5531.378        3.121        1.273      192.205       73.544        0.146      332.364        0.974      857.069
12/19/2013  16:11:00       68.250      128.316        8.862       73.853       98.510       60.335     5454.193     9704.184     3640.281        2.000        0.940      145.338       62.525        0.185      332.348        0.951      857.118
12/19/2013  16:12:00      120.295      166.090       -2.482      100.341       97.314       78.573    10068.306     9469.995     6173.645        3.388        1.286      205.078       69.735        0.116      332.338        0.932      857.161
12/19/2013  16:13:00       70.850      184.615       -4.478       84.036       98.847       81.908     7061.976     9770.702     6708.917        3.133        1.177      197.743       78.332        0.157      332.328        0.918      857.189
12/19/2013  16:14:00       92.243      132.797       -0.054       82.083       96.549       67.796     6737.675     9321.789     4596.350        2.340        1.033      161.690       66.746        0.170      332.300        0.870      857.175
12/19/2013  16:15:00      133.716      183.943       -2.223       81.001      125.108       71.420     6561.183    15652.012     5100.791        3.951        1.366      227.409       67.512        0.088      332.307        0.881      857.125
12/19/2013  16:16:00       83.234      105.087        8.431       83.300       72.012       54.889     6938.853     5185.770     3012.774        1.659        0.757      134.056       38.231        0.081      332.294        0.863      857.107
12/19/2013  16:17:00       88.333      103.189        5.851       76.351       64.304       56.772     5829.471     4134.972     3223.043        1.583        0.659      135.834       48.857        0.129      332.285        0.846      857.129
12/19/2013  16:18:00       88.061       83.354       17.085       81.387       59.389       43.289     6623.821     3527.080     1873.900        1.351        0.601      121.254       28.491        0.055      332.274        0.830      857.144
12/19/2013  16:19:00      116.340       93.446        6.023       95.387       59.414       44.018     9098.662     3529.991     1937.607        1.843        0.728      149.222       30.992        0.043      332.264        0.813      857.126
12/19/2013  16:20:00       90.688      113.957        1.788       83.107       67.585       53.995     6906.701     4567.711     2915.464        1.780        0.719      145.638       44.083        0.092      332.231        0.760      857.096
12/19/2013  16:21:00      156.754      104.725       26.188       99.387       63.733       48.475     9877.728     4061.834     2349.863        2.625        0.814      188.518       25.450        0.018      332.259        0.806      857.082
12/19/2013  16:22:00      182.091      127.524       19.542      106.473       70.274       54.549    11336.526     4938.426     2975.592        3.452        0.963      222.305       40.934        0.034      332.246        0.782      857.082
12/19/2013  16:23:00      130.321       95.614       31.165      104.414       78.450       55.180    10902.320     6154.358     3044.841        2.360        1.005      161.634       39.188        0.059      332.237        0.768      857.092
12/19/2013  16:24:00      185.349      154.592       19.631      116.582       73.044       58.158    13591.257     5335.452     3382.323        4.047        1.115      241.356       37.948        0.025      332.229        0.754      857.116
12/19/2013  16:25:00      153.218      169.679        5.723      116.858      108.736       82.456    13655.678    11823.530     6798.977        4.228        1.614      228.619       59.304        0.067      332.228        0.753      857.118
12/19/2013  16:26:00      106.428      107.062       -2.006       77.380       71.066       52.153     5987.601     5050.358     2719.976        1.827        0.688      150.961       36.747        0.059      332.197        0.701      857.100
12/19/2013  16:27:00      130.512       80.592       34.765       89.782       68.426       48.369     8060.856     4682.087     2339.537        1.991        0.754      153.389       32.110        0.044      332.203        0.713      857.051
12/19/2013  16:28:00      190.670      111.581        7.690      110.036       71.039       47.426    12107.965     5046.610     2249.187        3.413        0.970      220.919       24.128        0.012      332.189        0.686      857.042
12/19/2013  16:29:00      135.698       98.726       26.855       76.207       63.862       45.714     5807.557     4078.343     2089.770        2.043        0.599      167.811       17.543        0.011      332.171        0.658      857.069
12/19/2013  16:30:00      252.282      178.743       33.477      112.109       81.867       62.919    12568.472     6702.228     3958.850        5.997        1.161      309.185       34.899        0.013      332.182        0.675      857.076
12/19/2013  16:31:00      117.235       87.696       22.468       71.220       58.298       53.731     5072.239     3398.627     2887.028        1.665        0.568      146.406       34.330        0.055      332.156        0.635      857.087
12/19/2013  16:32:00      150.453      107.067        3.515       74.085       80.190       59.646     5488.537     6430.385     3557.685        2.479        0.774      184.660       47.472        0.066      332.142        0.611      857.103
12/19/2013  16:33:00      154.532      112.480       19.637       84.167       50.009       41.211     7084.119     2500.901     1698.331        2.410        0.564      191.133       33.579        0.031      332.135        0.597      857.105
12/19/2013  16:34:00      145.072      109.814       12.630       84.270       68.866       60.895     7101.386     4742.577     3708.153        2.441        0.778      181.947       45.816        0.063      332.122        0.578      857.103
12/19/2013  16:35:00      129.728      118.597       -4.892       59.128       55.795       46.012     3496.179     3113.125     2117.083        1.982        0.436      175.768       36.628        0.043      332.114        0.563      857.102
12/19/2013  16:36:00      108.041       82.938       -8.823       67.697       43.974       39.825     4582.830     1933.675     1586.009        1.336        0.405      136.204       26.835        0.039      332.097        0.538      857.097
12/19/2013  16:37:00      217.339      147.211       28.856       85.457       66.831       68.477     7302.857     4466.367     4689.134        4.310        0.823      262.502       36.752        0.020      332.138        0.602      857.095
12/19/2013  16:38:00      196.579      129.386       23.740       98.741       74.176       61.417     9749.862     5502.076     3772.105        3.748        0.951      235.338       37.452        0.025      332.113        0.561      857.105
12/19/2013  16:39:00      201.969      143.877       17.293       87.716       67.996       65.775     7694.055     4623.508     4326.383        3.921        0.832      247.976       41.463        0.028      332.112        0.559      857.114
12/19/2013  16:40:00      130.717      100.957        9.165       67.629       41.199       42.008     4573.641     1697.338     1764.634        1.770        0.402      165.164       18.838        0.013      332.086        0.519      857.116
12/19/2013  16:41:00      196.860      113.128       36.083       91.146       63.390       48.490     8307.673     4018.256     2351.270        3.376        0.734      227.050       39.883        0.031      332.088        0.520      857.116
12/19/2013  16:42:00      151.999      126.020        3.072      108.281       73.819       44.431    11724.764     5449.280     1974.128        2.907        0.957      197.446       39.295        0.040      332.061        0.477      857.128
12/19/2013  16:43:00      120.658       78.813        6.462       80.111       69.816       41.983     6417.704     4874.214     1762.543        1.693        0.653      144.117       29.379        0.042      332.046        0.453      857.137
12/19/2013  16:44:00      166.295      110.775       14.593       91.950       62.717       52.266     8454.833     3933.455     2731.730        2.763        0.756      199.813       32.816        0.027      332.050        0.457      857.134
12/19/2013  16:45:00      128.684      100.221       10.955       69.180       52.666       50.259     4785.869     2773.698     2525.960        1.840        0.504      163.106       32.876        0.041      332.037        0.439      857.141
12/19/2013  16:46:00      139.738       90.914       20.797       79.492       53.609       42.126     6319.031     2873.969     1774.574        1.959        0.548      166.710       28.375        0.029      332.025        0.418      857.134
12/19/2013  16:47:00      234.775      144.747       19.571       85.813       74.870       60.134     7363.893     5605.564     3616.063        4.652        0.829      275.810       29.496        0.011      332.053        0.462      857.140
12/19/2013  16:48:00      101.074       96.907        9.341       75.769       52.078       50.966     5740.927     2712.123     2597.506        1.537        0.553      140.025       41.202        0.087      332.022        0.414      857.176
12/19/2013  16:49:00      116.850       88.457        9.185       66.353       44.230       41.271     4402.725     1956.297     1703.314        1.481        0.403      146.556       30.752        0.044      331.996        0.369      857.208
12/19/2013  16:50:00      151.194       98.016       28.589       76.710       54.708       49.336     5884.495     2992.985     2434.028        2.230        0.566      180.185       35.862        0.040      332.005        0.383      857.216
12/19/2013  16:51:00       51.696       56.529        6.138       56.349       47.547       33.388     3175.222     2260.755     1114.734        0.623        0.328       76.603       18.618        0.059      331.978        0.343      857.227
12/19/2013  16:52:00      102.807      111.563        3.788       73.133       55.681       50.899     5348.365     3100.419     2590.683        1.703        0.552      151.709       40.407        0.071      332.009        0.392      857.241
12/19/2013  16:53:00      104.664       63.336       18.170       74.627       44.819       36.382     5569.166     2008.755     1323.648        1.210        0.445      122.336       13.142        0.012      332.025        0.419      857.262
12/19/2013  16:54:00      140.956       85.307       24.133       48.391       49.509       46.669     2341.730     2451.146     2177.994        1.735        0.349      164.760       29.601        0.032      331.964        0.317      857.310
12/19/2013  16:55:00      196.602      147.147       24.941       92.268       72.758       58.461     8513.462     5293.676     3417.746        3.907        0.861      245.570       44.146        0.032      332.005        0.385      857.336
12/19/2013  16:56:00      128.050       85.464       17.781       66.927       54.931       39.616     4479.165     3017.363     1569.415        1.654        0.453      153.951       25.762        0.028      331.974        0.334      857.354
12/19/2013  16:57:00      160.674      125.342       16.920       67.784       57.530       56.528     4594.615     3309.655     3195.379        2.645        0.555      203.781       27.768        0.019      331.980        0.343      857.371
12/19/2013  16:58:00      139.236       80.420       11.591       55.457       46.408       37.455     3075.496     2153.695     1402.911        1.631        0.332      160.792       25.674        0.025      331.976        0.337      857.395
12/19/2013  16:59:00      139.239       93.158       22.198       68.120       58.395       43.034     4640.312     3409.961     1851.883        1.923        0.495      167.529       28.412        0.029      332.007        0.388      857.438
12/19/2013  17:00:00       86.236       82.315       20.998       77.324       47.787       40.516     5978.925     2283.575     1641.550        1.228        0.495      119.216       19.873        0.028      331.995        0.369      857.501
12/19/2013  17:01:00       89.140      156.478      -15.634       72.109       74.611       52.748     5199.708     5566.737     2782.324        2.311        0.677      180.087       44.410        0.061      331.978        0.338      857.545
12/19/2013  17:02:00       71.833      110.884        1.331       79.973       67.538       51.333     6395.742     4561.411     2635.072        1.552        0.680      132.118       38.366        0.084      331.976        0.338      857.595
12/19/2013  17:03:00       38.730       81.718       -4.471       46.725       49.766       38.890     2183.217     2476.635     1512.411        0.718        0.309       90.431       33.694        0.139      331.954        0.303      857.633
12/19/2013  17:04:00       47.826       68.477       -1.776       51.242       53.800       38.496     2625.717     2894.391     1481.948        0.699        0.350       83.525       33.109        0.157      331.921        0.246      857.700
12/19/2013  17:05:00       50.698      160.369       -8.626       64.282       90.493       56.466     4132.137     8188.898     3188.434        2.193        0.775      168.192       53.142        0.100      331.919        0.241      857.737
12/19/2013  17:06:00       68.180      107.859      -11.702       47.455       78.203       49.690     2251.990     6115.737     2469.088        1.363        0.542      127.601       48.780        0.146      331.915        0.237      857.774
12/19/2013  17:07:00       45.164       94.279        0.962       47.195       58.505       40.922     2227.414     3422.845     1674.576        0.913        0.366      104.539       34.344        0.108      331.888        0.194      857.766
12/19/2013  17:08:00       49.241       74.184        7.155       49.050       49.346       36.546     2405.861     2434.997     1335.635        0.708        0.309       89.039       29.770        0.112      331.872        0.167      857.727
12/19/2013  17:09:00       35.427       75.629        5.925       50.769       55.828       36.632     2577.461     3116.715     1341.921        0.702        0.352       83.515       34.473        0.170      331.842        0.118      857.718
12/19/2013  17:10:00       59.258       84.186        4.028       48.317       46.671       37.355     2334.504     2178.212     1395.401        0.826        0.295      102.950       31.335        0.093      331.854        0.137      857.744
12/19/2013  17:11:00       57.532       81.444        4.328       66.969       55.977       42.826     4484.803     3133.377     1834.072        0.971        0.473       99.715       35.476        0.127      331.836        0.106      857.771
12/19/2013  17:12:00       45.951      107.765       -5.582       62.052       66.950       38.105     3850.421     4482.323     1451.961        1.177        0.489      117.152       41.255        0.124      331.802        0.051      857.809
12/19/2013  17:13:00       81.824       95.816       -4.303       65.351       57.402       48.912     4270.789     3295.046     2392.350        1.292        0.498      126.000       34.932        0.077      331.820        0.080      857.849
12/19/2013  17:14:00       66.494       98.188       -2.627       49.192       59.679       41.558     2419.854     3561.641     1727.086        1.089        0.385      118.584       38.007        0.103      331.805        0.057      857.854
12/19/2013  17:15:00       90.307       75.374       11.191       49.734       34.571       29.978     2473.443     1195.122      898.682        0.926        0.228      117.629       19.848        0.028      331.789        0.030      857.856
12/19/2013  17:16:00      118.754       86.384       10.195       60.645       46.619       37.382     3677.781     2173.299     1397.382        1.446        0.362      146.850       26.925        0.034      331.782        0.019      857.851
12/19/2013  17:17:00      104.700       74.998       12.004       50.794       39.085       35.389     2580.077     1527.667     1252.382        1.104        0.268      128.789       25.245        0.038      331.782        0.019      857.832
12/19/2013  17:18:00       65.348      103.770        0.087       61.230       60.302       45.437     3749.156     3636.372     2064.483        1.224        0.473      122.632       36.060        0.086      331.772        0.003      857.814
12/19/2013  17:19:00      110.193      122.546       14.067       80.620       59.364       41.846     6499.587     3524.089     1751.054        1.956        0.589      164.803       32.138        0.038      331.753       -0.031      857.793
12/19/2013  17:20:00      166.355      108.648       14.154       51.164       53.093       42.251     2617.785     2818.856     1785.123        2.345        0.361      198.692       31.271        0.025      331.738       -0.055      857.757
12/19/2013  17:21:00      101.954       93.049        1.189       74.884       57.519       37.881     5607.687     3308.412     1434.974        1.470        0.518      138.031       24.171        0.031      331.721       -0.081      857.723
12/19/2013  17:22:00       94.018       63.495        9.899       52.641       34.269       33.115     2771.084     1174.361     1096.579        0.900        0.252      113.450       19.576        0.030      331.712       -0.094      857.706
12/19/2013  17:23:00      141.417      106.543        8.937       72.025       42.255       37.581     5187.653     1785.456     1412.320        1.991        0.419      177.059       29.162        0.027      331.706       -0.108      857.718
12/19/2013  17:24:00       97.247       63.516       20.318       56.492       41.228       33.197     3191.295     1699.713     1102.056        0.995        0.300      116.152       23.466        0.041      331.690       -0.131      857.720
12/19/2013  17:25:00      104.400       75.073       13.851       69.455       61.883       43.032     4823.981     3829.476     1851.726        1.361        0.525      128.590       32.028        0.062      331.688       -0.137      857.707
12/19/2013  17:26:00      171.152      115.216       15.485       71.400       63.111       43.406     5098.020     3983.029     1884.050        2.688        0.548      206.319       34.690        0.028      331.682       -0.147      857.693
12/19/2013  17:27:00      176.893      124.346       25.966       76.546       57.797       49.570     5859.235     3340.542     2457.172        2.954        0.583      216.225       36.038        0.028      331.680       -0.150      857.683
12/19/2013  17:28:00      135.732      101.818       17.562       64.004       45.924       40.982     4096.476     2109.016     1679.533        1.849        0.394      169.677       23.883        0.020      331.669       -0.169      857.683
12/19/2013  17:29:00      192.048      128.537       38.398       52.340       45.432       39.982     2739.424     2064.031     1598.583        3.064        0.320      231.094       30.008        0.017      331.689       -0.137      857.682
12/19/2013  17:30:00      139.998       83.245       14.935       53.999       42.447       39.928     2915.869     1801.759     1594.261        1.653        0.316      162.877       19.630        0.015      331.654       -0.192      857.684
12/19/2013  17:31:00       99.368       64.685       13.692       48.672       39.907       31.376     2368.952     1592.539      984.431        0.959        0.247      118.567       23.629        0.040      331.644       -0.210      857.674
12/19/2013  17:32:00      133.921       92.861       21.382       90.307       71.669       37.514     8155.413     5136.508     1407.323        2.085        0.735      162.966       30.111        0.034      331.655       -0.192      857.655
12/19/2013  17:33:00      144.917       73.769       18.153       74.244       50.358       37.500     5512.122     2535.969     1406.248        1.811        0.473      162.613       20.875        0.016      331.648       -0.202      857.626
12/19/2013  17:34:00      158.232       87.805        8.575       52.711       32.365       31.336     2778.501     1047.490      981.938        1.881        0.240      180.961       19.751        0.012      331.614       -0.258      857.616
12/19/2013  17:35:00      147.246       77.079        6.355       58.133       53.713       41.261     3379.497     2885.125     1702.445        1.781        0.398      166.200       10.404        0.004      331.602       -0.278      857.617
12/19/2013  17:36:00      151.112      100.619       20.147       91.988       71.975       44.223     8461.801     5180.394     1955.650        2.448        0.780      181.546       18.833        0.011      331.592       -0.296      857.639
12/19/2013  17:37:00      144.020      100.160       18.820       75.648       59.590       57.833     5722.629     3550.920     3344.693        2.187        0.631      175.425       37.896        0.047      331.598       -0.285      857.665
12/19/2013  17:38:00      149.951       89.979       19.085       69.663       37.114       43.661     4852.954     1377.419     1906.316        1.954        0.407      174.876       16.463        0.009      331.578       -0.318      857.671
12/19/2013  17:39:00      135.134       97.544       10.152       80.719       63.788       53.880     6515.497     4068.933     2903.099        2.068        0.674      166.661       43.565        0.068      331.568       -0.333      857.667
12/19/2013  17:40:00      172.192      106.856       23.387       69.590       49.903       49.092     4842.742     2490.281     2409.985        2.568        0.487      202.653       22.057        0.012      331.549       -0.366      857.685
12/19/2013  17:41:00       92.458      110.578        7.399       60.476       72.242       56.114     3657.406     5218.849     3148.804        1.643        0.601      144.138       49.205        0.117      331.556       -0.353      857.687
12/19/2013  17:42:00      112.599       64.370       17.099       62.860       41.381       48.327     3951.348     1712.370     2335.452        1.256        0.400      129.700       16.228        0.016      331.546       -0.369      857.688
12/19/2013  17:43:00      164.838       75.630        8.370       76.856       52.594       44.381     5906.815     2766.115     1969.702        2.180        0.532      181.359       24.974        0.019      331.534       -0.390      857.692
12/19/2013  17:44:00      164.460      118.781       13.558       81.241       56.487       48.792     6600.113     3190.747     2380.631        2.675        0.609      202.869       29.167        0.021      331.531       -0.396      857.679
12/19/2013  17:45:00      154.312       98.962       37.008       74.509       58.918       45.116     5551.627     3471.365     2035.408        2.301        0.553      183.319       26.216        0.020      331.518       -0.418      857.642
12/19/2013  17:46:00      132.551       96.918       20.427       68.147       43.804       38.512     4644.004     1918.781     1483.209        1.771        0.402      164.203       30.056        0.034      331.497       -0.452      857.599
12/19/2013  17:47:00      158.305      103.774       11.815       65.980       52.829       57.806     4353.391     2790.884     3341.545        2.323        0.524      189.287       30.833        0.027      331.517       -0.420      857.574
12/19/2013  17:48:00       89.202       92.061       15.963       68.699       64.872       41.731     4719.563     4208.391     1741.437        1.368        0.533      128.188       31.400        0.060      331.487       -0.469      857.549
12/19/2013  17:49:00       59.371      118.646       -3.189       51.808       86.766       56.755     2684.046     7528.336     3221.087        1.552        0.672      132.672       52.519        0.157      331.485       -0.473      857.527
12/19/2013  17:50:00       38.549      125.838       -0.640       69.071       94.323       56.748     4770.756     8896.889     3220.373        1.710        0.844      131.610       56.752        0.186      331.477       -0.484      857.511
12/19/2013  17:51:00      141.139      126.158        2.236      104.345       65.275       51.595    10887.782     4260.774     2662.081        2.682        0.891      189.304       43.260        0.052      331.467       -0.504      857.517
12/19/2013  17:52:00      101.916      112.830       -8.173       69.744       59.923       51.812     4864.257     3590.750     2684.520        1.716        0.557      152.045       41.381        0.074      331.457       -0.518      857.530
12/19/2013  17:53:00       73.960       86.029        0.163       59.657       54.437       54.710     3558.931     2963.439     2993.205        1.119        0.476      113.450       36.171        0.102      331.445       -0.537      857.538
12/19/2013  17:54:00       82.823      123.748       -1.858       72.217       58.866       43.985     5215.349     3465.166     1934.703        1.639        0.531      148.907       34.730        0.054      331.422       -0.573      857.575
12/19/2013  17:55:00       60.211      113.160       -0.472       54.897       83.035       46.223     3013.680     6894.855     2136.538        1.424        0.602      128.181       46.364        0.131      331.427       -0.566      857.608
12/19/2013  17:56:00       65.200       68.208       12.806       64.348       57.340       49.914     4140.617     3287.851     2491.378        0.949        0.496       94.358       31.784        0.113      331.418       -0.580      857.640
12/19/2013  17:57:00       53.325      146.356       -6.075       60.962       69.589       51.560     3716.318     4842.601     2658.418        1.776        0.561      155.768       51.751        0.110      331.427       -0.567      857.663
12/19/2013  17:58:00       60.727       86.953       -2.591       50.755       43.384       35.180     2576.086     1882.168     1237.614        0.847        0.285      106.059       25.576        0.058      331.408       -0.596      857.672
12/19/2013  17:59:00       58.564      110.419        2.461       56.298       70.700       43.840     3169.409     4998.522     1921.982        1.286        0.504      124.988       42.429        0.115      331.393       -0.620      857.633
12/19/2013  18:00:00       66.722      104.789        1.270       69.658       62.093       49.471     4852.207     3855.596     2447.356        1.329        0.558      124.228       42.876        0.119      331.402       -0.606      857.625
12/19/2013  18:01:00       52.386       91.804       -1.060       50.435       51.553       36.177     2543.736     2657.713     1308.797        0.884        0.326      105.699       29.400        0.077      331.368       -0.661      857.650
12/19/2013  18:02:00       56.043      102.700       -7.732       58.630       65.713       40.151     3437.485     4318.238     1612.078        1.156        0.468      116.996       35.832        0.094      331.346       -0.698      857.665
12/19/2013  18:03:00       52.594      154.746       -5.995       65.039       80.954       48.765     4230.117     6553.611     2378.056        1.995        0.658      163.439       48.878        0.089      331.348       -0.697      857.670
12/19/2013  18:04:00       69.107      147.684      -16.646       80.558       68.192       53.408     6489.597     4650.199     2852.418        2.043        0.700      163.053       41.605        0.065      331.330       -0.726      857.676
12/19/2013  18:05:00       41.822       73.613       -4.999       35.522       52.985       34.930     1261.824     2807.379     1220.137        0.624        0.264       84.664       32.753        0.150      331.314       -0.751      857.645
12/19/2013  18:06:00       94.694       96.726        4.180       65.708       60.229       44.216     4317.508     3627.584     1955.085        1.412        0.495      135.362       34.767        0.066      331.328       -0.728      857.612
12/19/2013  18:07:00       44.666       54.825       18.306       48.467       45.616       30.171     2349.060     2080.855      910.301        0.534        0.267       70.716       17.160        0.059      331.299       -0.775      857.592
12/19/2013  18:08:00       46.722       93.824        3.989       50.156       66.443       48.364     2515.586     4414.610     2339.117        1.013        0.463      104.814       44.355        0.179      331.349       -0.693      857.580
12/19/2013  18:09:00       53.189       66.673        2.002       45.613       42.261       33.474     2080.554     1785.991     1120.536        0.613        0.249       85.290       24.704        0.084      331.340       -0.707      857.567
12/19/2013  18:10:00       60.521       67.039        2.570       41.931       35.420       34.386     1758.215     1254.542     1182.371        0.618        0.210       90.316       24.932        0.076      331.327       -0.730      857.583
12/19/2013  18:11:00       51.032       69.544        3.170       30.459       32.577       24.432      927.749     1061.232      596.927        0.502        0.129       86.259       17.707        0.042      331.294       -0.783      857.594
12/19/2013  18:12:00       52.231       68.215        4.848       31.576       33.419       25.598      997.053     1116.798      655.240        0.509        0.138       85.915       20.784        0.059      331.290       -0.791      857.597
12/19/2013  18:13:00       56.437       63.089       -0.354       37.076       37.698       35.226     1374.625     1421.126     1240.868        0.560        0.202       84.648       25.633        0.092      331.283       -0.802      857.598
12/19/2013  18:14:00       75.010       63.185       19.525       35.000       28.957       38.707     1225.010      838.527     1498.203        0.678        0.178       98.076       21.043        0.046      331.290       -0.789      857.579
12/19/2013  18:15:00       64.568       64.780        2.797       36.586       30.997       27.771     1338.557      960.810      771.225        0.572        0.154       91.463       18.594        0.041      331.272       -0.819      857.571
12/19/2013  18:16:00       72.036       68.919        3.792       35.381       42.869       32.487     1251.837     1837.780     1055.380        0.705        0.207       99.695       31.010        0.097      331.277       -0.811      857.577
12/19/2013  18:17:00       36.157       88.589       -5.616       32.103       46.689       27.690     1030.628     2179.867      766.752        0.658        0.199       95.684       24.869        0.068      331.298       -0.776      857.603
12/19/2013  18:18:00       38.432       71.005        3.881       48.159       59.936       40.515     2319.242     3592.323     1641.491        0.704        0.378       80.738       35.659        0.195      331.327       -0.731      857.617
12/19/2013  18:19:00       55.888       59.858        5.499       46.137       31.314       32.092     2128.653      980.559     1029.908        0.544        0.207       81.893       21.816        0.071      331.304       -0.769      857.640
12/19/2013  18:20:00       65.090      100.276        0.113       49.847       60.845       42.477     2484.717     3702.079     1804.306        1.114        0.400      119.549       36.613        0.094      331.355       -0.685      857.679
12/19/2013  18:21:00       59.700      106.190      -15.536       54.360       53.190       37.964     2955.004     2829.221     1441.260        1.115        0.361      121.821       28.333        0.054      331.357       -0.681      857.745
12/19/2013  18:22:00       34.613       78.002        0.612       48.826       58.111       33.351     2383.985     3376.932     1112.286        0.708        0.344       85.337       24.700        0.084      331.347       -0.696      857.807
12/19/2013  18:23:00       53.124       96.921       -9.125       40.718       58.476       41.581     1657.996     3419.422     1728.948        0.955        0.340      110.525       38.903        0.124      331.338       -0.711      857.860
12/19/2013  18:24:00       32.883       77.954        4.305       34.130       41.284       32.345     1164.829     1704.374     1046.173        0.555        0.196       84.605       27.198        0.103      331.317       -0.747      857.896
12/19/2013  18:25:00       65.033      120.690      -16.337       41.894       49.355       33.101     1755.084     2435.962     1095.698        1.217        0.264      137.096       27.125        0.039      331.301       -0.772      857.915
12/19/2013  18:26:00       43.242      110.182       -7.493       43.610       46.705       39.973     1901.823     2181.364     1597.866        0.987        0.284      118.363       33.474        0.080      331.271       -0.821      857.938
12/19/2013  18:27:00       57.655      147.647      -20.954       55.985       53.860       36.575     3134.272     2900.952     1337.741        1.647        0.369      158.504       30.415        0.037      331.267       -0.827      857.979
12/19/2013  18:28:00       49.087       50.611        4.959       36.455       41.264       30.203     1328.997     1702.732      912.204        0.447        0.197       70.506       18.776        0.071      331.260       -0.839      857.996
12/19/2013  18:29:00       39.007      113.552       -5.966       47.336       66.000       43.433     2240.713     4356.051     1886.420        1.147        0.424      120.065       37.109        0.096      331.253       -0.850      858.017
12/19/2013  18:30:00       46.246       80.214        3.838       51.781       67.672       40.328     2681.263     4579.463     1626.312        0.874        0.444       92.590       40.188        0.188      331.283       -0.801      858.051
12/19/2013  18:31:00       23.145      112.294       -2.044       45.495       68.558       33.437     2069.750     4700.246     1118.029        1.052        0.394      114.655       34.045        0.088      331.285       -0.800      858.061
12/19/2013  18:32:00       86.530      127.381        5.911       81.249       56.156       45.607     6601.469     3153.446     2080.026        1.779        0.592      153.992       41.350        0.072      331.275       -0.816      858.051
12/19/2013  18:33:00       48.493       79.344       -4.923       42.947       46.253       32.657     1844.412     2139.354     1066.508        0.686        0.253       92.990       27.889        0.090      331.289       -0.792      858.048
12/19/2013  18:34:00       77.255       86.019        3.357       50.734       44.296       32.780     2573.984     1962.156     1074.508        0.949        0.281      115.618       26.843        0.054      331.268       -0.825      858.052
12/19/2013  18:35:00       82.322       82.003       -5.823       54.635       42.565       32.958     2984.966     1811.772     1086.218        0.971        0.294      116.196       24.862        0.046      331.296       -0.780      858.074
12/19/2013  18:36:00      146.301       93.857       13.569       49.068       46.985       39.527     2407.666     2207.589     1562.361        1.829        0.309      173.819       25.809        0.022      331.318       -0.745      858.104
12/19/2013  18:37:00      131.811       92.004        5.709       51.937       41.048       32.809     2697.477     1684.924     1076.452        1.566        0.273      160.745       10.027        0.004      331.323       -0.736      858.118
12/19/2013  18:38:00       91.393       62.536       14.608       47.879       34.288       33.904     2292.386     1175.696     1149.493        0.855        0.231      110.740       20.853        0.035      331.323       -0.735      858.139
12/19/2013  18:39:00       88.879       62.435        5.773       74.071       53.067       36.657     5486.462     2816.060     1343.772        1.074        0.482      108.617       31.181        0.082      331.328       -0.729      858.130
12/19/2013  18:40:00       87.302       64.405        7.291       39.765       41.958       34.110     1581.235     1760.455     1163.475        0.816        0.225      108.488       29.931        0.076      331.346       -0.699      858.128
12/19/2013  18:41:00       84.002       62.550       18.867       31.397       26.502       31.773      985.759      702.367     1009.506        0.701        0.135      104.732       17.712        0.029      331.329       -0.726      858.159
12/19/2013  18:42:00      141.042       97.236        6.717       60.704       57.736       34.929     3684.927     3333.407     1220.027        1.881        0.412      171.311       17.118        0.010      331.366       -0.666      858.192
12/19/2013  18:43:00       85.705       71.341       -0.462       39.692       59.551       30.655     1575.445     3546.294      939.747        0.925        0.303      111.511       31.792        0.081      331.364       -0.668      858.215
12/19/2013  18:44:00      169.280      119.993       10.381       53.883       43.144       45.823     2903.410     1861.372     2099.702        2.501        0.343      207.495       23.368        0.013      331.344       -0.704      858.232
12/19/2013  18:45:00       63.140       56.050       14.076       53.598       37.350       37.240     2872.757     1395.026     1386.820        0.649        0.283       84.429       24.054        0.081      331.335       -0.716      858.233
12/19/2013  18:46:00       91.688       72.513        7.575       59.070       39.059       34.605     3489.315     1525.625     1197.484        0.997        0.311      116.897       23.285        0.040      331.332       -0.722      858.228
12/19/2013  18:47:00       82.512       79.651       13.523       54.900       46.963       43.751     3014.000     2205.567     1914.150        1.023        0.357      114.684       32.959        0.083      331.346       -0.700      858.244
12/19/2013  18:48:00       90.892       84.262       14.069       53.336       45.949       41.502     2844.731     2111.268     1722.427        1.112        0.334      123.942       32.929        0.071      331.343       -0.704      858.258
12/19/2013  18:49:00       78.128      104.502      -13.632       59.445       53.715       35.933     3533.733     2885.321     1291.180        1.246        0.386      130.479       31.950        0.060      331.355       -0.684      858.275
12/19/2013  18:50:00       47.991       52.451       11.822       37.820       32.128       32.539     1430.387     1032.209     1058.768        0.436        0.176       71.093       19.322        0.074      331.369       -0.661      858.286
12/19/2013  18:51:00       71.357       75.586       -0.315       54.431       50.317       35.098     2962.759     2531.777     1231.858        0.876        0.336      103.947       29.312        0.080      331.353       -0.689      858.280
12/19/2013  18:52:00       87.751       80.069        7.722       45.852       45.611       40.493     2102.443     2080.375     1639.711        1.000        0.291      118.791       32.015        0.073      331.341       -0.707      858.258
12/19/2013  18:53:00       58.813       85.595       11.204       52.845       52.952       39.600     2792.564     2803.928     1568.186        0.904        0.358      103.853       33.542        0.104      331.342       -0.705      858.256
12/19/2013  18:54:00       91.655       83.607      -11.581       56.464       40.354       23.998     3188.217     1628.414      575.928        1.046        0.270      124.059       17.358        0.020      331.334       -0.720      858.252
12/19/2013  18:55:00       41.519       43.971       20.303       41.461       35.252       34.041     1718.990     1242.688     1158.821        0.409        0.206       60.476       21.783        0.130      331.349       -0.693      858.223
12/19/2013  18:56:00       75.252       81.732        0.373       38.751       41.411       37.654     1501.619     1714.887     1417.828        0.849        0.232      111.099       27.268        0.060      331.332       -0.720      858.195
12/19/2013  18:57:00       96.979       74.316       16.281       84.136       43.785       32.242     7078.816     1917.083     1039.574        1.261        0.502      122.179       23.678        0.038      331.322       -0.739      858.171
12/19/2013  18:58:00       80.499       88.142       17.146       75.014       46.687       48.832     5627.163     2179.680     2384.567        1.237        0.510      119.369       33.549        0.079      331.321       -0.740      858.154
12/19/2013  18:59:00       87.556       74.866       11.557       53.487       43.027       36.721     2860.855     1851.293     1348.461        0.973        0.303      115.199       27.768        0.058      331.310       -0.759      858.168
12/19/2013  19:00:00      100.938       70.002       21.785       47.966       35.840       36.354     2300.706     1284.487     1321.630        1.023        0.245      122.836       29.372        0.057      331.341       -0.707      858.190
12/19/2013  19:01:00       69.049       45.368       19.678       52.074       34.649       31.118     2711.693     1200.532      968.333        0.605        0.244       82.620       18.139        0.048      331.329       -0.726      858.228
12/19/2013  19:02:00       95.277       60.276       10.207       75.792       43.070       34.521     5744.477     1855.039     1191.703        1.080        0.440      112.743       19.899        0.031      331.294       -0.782      858.270
12/19/2013  19:03:00       81.518       64.499      -13.207       50.139       33.767       22.494     2513.881     1140.200      506.001        0.757        0.208      103.948       17.851        0.029      331.292       -0.787      858.293
12/19/2013  19:04:00       96.905       77.596       12.769       50.669       41.528       41.652     2567.390     1724.604     1734.892        1.080        0.301      124.145       17.576        0.020      331.265       -0.829      858.315
12/19/2013  19:05:00       88.478       94.911       -0.907       60.386       45.818       38.895     3646.514     2099.308     1512.825        1.205        0.363      129.755       31.406        0.059      331.275       -0.815      858.328
12/19/2013  19:06:00      118.230      107.326        5.745       77.917       49.740       45.279     6071.100     2474.087     2050.146        1.806        0.530      159.678       32.164        0.041      331.278       -0.810      858.315
12/19/2013  19:07:00      128.584       86.066        7.287       77.822       56.667       42.371     6056.297     3211.153     1795.344        1.753        0.553      154.730       30.862        0.040      331.266       -0.830      858.307
12/19/2013  19:08:00       50.546       40.496       11.572       63.480       42.919       32.955     4029.728     1842.054     1086.023        0.564        0.348       64.768       19.021        0.086      331.260       -0.839      858.295
12/19/2013  19:09:00      115.906       95.286       17.993       73.579       53.736       37.645     5413.841     2887.528     1417.146        1.628        0.486      150.045       25.376        0.029      331.266       -0.829      858.288
12/19/2013  19:10:00      117.783       89.891       11.034       63.628       36.176       38.185     4048.481     1308.677     1458.131        1.444        0.341      148.166       29.345        0.039      331.258       -0.841      858.293
12/19/2013  19:11:00       68.654       49.213        4.279       41.715       33.010       27.182     1740.155     1089.659      738.885        0.536        0.178       84.470       14.450        0.029      331.236       -0.879      858.314
12/19/2013  19:12:00       45.413       91.065       -6.214       42.598       56.135       39.793     1814.611     3151.150     1583.503        0.847        0.327      101.760       32.799        0.104      331.219       -0.907      858.359
12/19/2013  19:13:00       46.472      143.050       -8.370       45.077       83.847       51.110     2031.921     7030.353     2612.244        1.718        0.584      150.410       50.900        0.115      331.228       -0.893      858.419
12/19/2013  19:14:00       68.265      107.326       -8.835       51.386       53.773       37.396     2640.512     2891.531     1398.435        1.159        0.347      127.196       28.133        0.049      331.233       -0.884      858.460
12/19/2013  19:15:00       72.574      101.900        0.198       72.406       78.602       49.982     5242.635     6178.288     2498.208        1.478        0.696      125.102       43.342        0.120      331.221       -0.905      858.477
12/19/2013  19:16:00       63.766       91.860        0.388       59.033       58.262       46.789     3484.837     3394.455     2189.257        1.079        0.453      111.823       40.220        0.129      331.210       -0.922      858.479
12/19/2013  19:17:00       87.646       77.661       12.885       70.943       48.501       33.861     5032.872     2352.336     1146.586        1.120        0.427      117.103       18.708        0.026      331.191       -0.953      858.478
12/19/2013  19:18:00       87.108       83.630       -0.292       71.066       49.531       50.657     5050.378     2453.301     2566.154        1.232        0.503      120.755       36.444        0.091      331.193       -0.948      858.469
12/19/2013  19:19:00      127.642      109.672       12.497       81.715       52.792       49.824     6677.302     2786.990     2482.448        2.021        0.597      168.286       32.315        0.037      331.166       -0.997      858.469
12/19/2013  19:20:00       71.859      101.176        4.056       57.251       64.726       52.033     3277.711     4189.414     2707.480        1.279        0.509      124.099       41.427        0.111      331.125       -1.063      858.475
12/19/2013  19:21:00       51.829       74.939        4.769       54.562       67.580       45.222     2977.026     4567.033     2045.039        0.896        0.479       91.116       41.121        0.204      331.106       -1.092      858.465
12/19/2013  19:22:00       78.151      111.027        6.310       57.124       50.121       41.244     3263.192     2512.076     1701.104        1.297        0.374      135.774       33.807        0.062      331.083       -1.131      858.452
12/19/2013  19:23:00       99.061       77.300        9.440       55.336       44.666       33.195     3062.069     1995.065     1101.913        1.102        0.308      125.652       23.319        0.034      331.077       -1.142      858.462
12/19/2013  19:24:00       85.300       55.789        3.547       47.232       36.332       33.158     2230.876     1320.026     1099.436        0.752        0.233      101.924       15.461        0.023      331.097       -1.108      858.494
12/19/2013  19:25:00      129.948       79.572       20.809       53.367       40.319       36.436     2848.071     1625.585     1327.560        1.473        0.290      152.375       24.042        0.025      331.126       -1.061      858.549
12/19/2013  19:26:00      105.382       39.908        9.854       68.419       42.099       37.286     4681.138     1772.340     1390.210        1.032        0.392      112.685        4.932        0.002      331.115       -1.079      858.602
12/19/2013  19:27:00      163.814       67.356       29.119       67.067       52.090       40.710     4498.045     2713.412     1657.294        2.054        0.443      177.121       30.330        0.029      331.124       -1.067      858.620
12/19/2013  19:28:00       60.210       18.520       17.864       46.444       41.846       32.119     2157.091     1751.126     1031.639        0.461        0.247       62.994       23.683        0.141      331.113       -1.082      858.608
12/19/2013  19:29:00      115.568       54.576        9.994       45.955       43.989       28.816     2111.884     1935.067      830.344        1.066        0.244      127.807       22.727        0.032      331.128       -1.058      858.602
12/19/2013  19:30:00      116.832       57.513        6.437       37.415       44.842       24.544     1399.898     2010.775      602.403        1.051        0.201      130.221       21.887        0.028      331.116       -1.077      858.598
12/19/2013  19:31:00       46.668       40.852       38.010       43.661       32.855       28.682     1906.322     1079.422      822.661        0.455        0.190       62.023       26.485        0.182      331.125       -1.062      858.598
12/19/2013  19:32:00       34.714       42.214        5.591       16.628       17.860       22.793      276.480      318.975      519.530        0.207        0.056       54.654       10.499        0.037      331.064       -1.160      858.631
12/19/2013  19:33:00       40.413       55.784        2.543       23.844       25.981       24.003      568.514      674.996      576.126        0.329        0.091       68.884       14.651        0.045      331.062       -1.164      858.688
12/19/2013  19:34:00       64.033       44.780        7.474       23.291       21.974       18.003      542.488      482.852      324.108        0.376        0.067       78.137        9.501        0.015      331.084       -1.130      858.750
12/19/2013  19:35:00       35.128       57.916      -13.793       29.948       28.176       24.264      896.904      793.903      588.718        0.353        0.114       67.736       17.746        0.069      331.055       -1.178      858.809
12/19/2013  19:36:00       22.863      111.377      -14.425       29.591       43.181       27.114      875.617     1864.567      735.177        0.830        0.174      113.699       24.823        0.048      331.051       -1.184      858.839
12/19/2013  19:37:00       27.356       66.199       -5.427       37.127       41.800       26.399     1378.414     1747.260      696.882        0.449        0.191       71.629       23.941        0.112      331.014       -1.245      858.866
12/19/2013  19:38:00       46.381       46.484        5.574       26.068       34.434       31.588      679.521     1185.720      997.791        0.360        0.143       65.665       19.625        0.089      330.980       -1.299      858.886
12/19/2013  19:39:00       34.153       80.410        4.254       40.008       47.537       31.940     1600.673     2259.741     1020.190        0.626        0.244       87.362       27.522        0.099      330.939       -1.367      858.901
12/19/2013  19:40:00        6.966      126.452      -14.662       34.951       41.663       20.664     1221.559     1735.808      426.984        0.982        0.169      126.643       14.022        0.012      330.909       -1.416      858.919
12/19/2013  19:41:00       18.331      127.190      -10.210       27.696       56.326       24.007      767.054     3172.673      576.333        1.057        0.226      128.504       24.086        0.035      330.888       -1.451      858.936
12/19/2013  19:42:00       48.849       50.175        8.554       35.028       38.270       35.369     1226.961     1464.598     1250.994        0.446        0.197       70.027       27.956        0.159      330.883       -1.458      858.934
12/19/2013  19:43:00       25.552       52.598        5.184       31.510       40.348       29.045      992.877     1627.968      843.587        0.345        0.173       58.476       21.683        0.137      330.888       -1.450      858.912
12/19/2013  19:44:00       28.733       87.477       -3.083       31.663       46.961       28.660     1002.557     2205.323      821.417        0.626        0.201       92.075       19.423        0.045      330.905       -1.422      858.888
12/19/2013  19:45:00       50.602       70.489       -2.709       28.595       28.966       22.358      817.651      839.047      499.888        0.485        0.108       86.771       12.124        0.020      330.893       -1.442      858.884
12/19/2013  19:46:00       32.497       77.639      -15.068       23.087       31.712       21.711      533.023     1005.670      471.352        0.466        0.101       84.166       15.772        0.035      330.869       -1.480      858.884
12/19/2013  19:47:00       34.313       68.216       -3.637       43.203       36.257       28.059     1866.535     1314.542      787.312        0.491        0.198       76.360       27.482        0.130      330.868       -1.482      858.900
12/19/2013  19:48:00       36.791       49.107        8.326       37.329       36.047       27.747     1393.463     1299.372      769.914        0.365        0.173       61.360       25.395        0.171      330.880       -1.464      858.926
12/19/2013  19:49:00       11.072       55.540       -4.847       31.557       27.851       18.047      995.837      775.706      325.701        0.266        0.105       56.632       14.993        0.070      330.890       -1.447      858.945
12/19/2013  19:50:00       29.664       62.008       -8.818       15.206       31.536       14.421      231.227      994.519      207.976        0.312        0.072       68.738       13.930        0.041      330.901       -1.430      858.940
12/19/2013  19:51:00       12.753       66.115       -9.265       19.614       37.633       20.013      384.726     1416.262      400.514        0.341        0.110       67.334       18.394        0.075      330.898       -1.434      858.924
12/19/2013  19:52:00       24.470       23.768        8.643       16.987       23.578       16.636      288.563      555.925      276.754        0.118        0.056       34.113       13.388        0.154      330.913       -1.411      858.905
12/19/2013  19:53:00       61.127       52.681       -1.856       38.730       26.271       20.055     1500.040      690.163      402.198        0.455        0.130       80.696       14.177        0.031      330.888       -1.451      858.900
12/19/2013  19:54:00       56.557       47.953       -2.428       25.867       23.879       21.663      669.093      570.202      469.297        0.361        0.085       74.150       13.556        0.033      330.840       -1.528      858.902
12/19/2013  19:55:00       33.784       58.082       -2.370       26.329       29.672       17.072      693.208      880.439      291.468        0.319        0.093       67.193       14.488        0.046      330.847       -1.517      858.918
12/19/2013  19:56:00       30.339       64.357       -5.502       20.499       34.614       19.713      420.225     1198.148      388.620        0.355        0.100       71.149       17.657        0.062      330.907       -1.419      858.931
12/19/2013  19:57:00       29.140       32.989        8.551       26.120       16.971       21.509      682.251      288.028      462.652        0.172        0.072       44.016       15.271        0.120      330.909       -1.417      858.935
12/19/2013  19:58:00       29.136       57.211        4.652       37.561       27.155       25.682     1410.818      737.391      659.589        0.348        0.140       64.203       17.042        0.070      330.882       -1.463      858.951
12/19/2013  19:59:00       49.173      111.537      -10.926       32.560       57.959       34.850     1060.154     3359.219     1214.546        1.030        0.282      121.895       34.395        0.080      330.867       -1.484      858.962
12/19/2013  20:00:00       38.102      110.782      -11.845       35.002       52.396       23.325     1225.112     2745.372      544.055        0.919        0.226      117.152       21.752        0.034      330.870       -1.479      858.963
12/19/2013  20:01:00       29.147      123.353       -8.883       29.539       46.524       24.100      872.554     2164.450      580.826        0.988        0.181      126.750       19.928        0.025      330.895       -1.441      858.956
12/19/2013  20:02:00       36.544       71.928       -2.606       31.584       41.696       25.916      997.541     1738.558      671.618        0.496        0.170       80.679       23.882        0.088      330.873       -1.474      858.970
12/19/2013  20:03:00        9.827       66.175        0.677       29.958       45.945       26.866      897.489     2110.935      721.797        0.410        0.187       66.901       25.127        0.141      330.876       -1.470      859.007
12/19/2013  20:04:00       21.960       83.114       -6.700       32.044       42.969       22.441     1026.821     1846.320      503.587        0.541        0.169       85.966       26.056        0.092      330.894       -1.441      859.040
12/19/2013  20:05:00       -1.408       60.887      -12.745       23.475       54.534       24.479      551.096     2973.975      599.220        0.400        0.206       60.903       30.561        0.252      330.879       -1.467      859.064
12/19/2013  20:06:00       -8.801      141.237      -21.333       21.263       20.031       14.277      452.132      401.232      203.828        1.077        0.053      141.511        8.937        0.004      330.929       -1.385      859.076
12/19/2013  20:07:00        6.826      155.082      -22.355       27.170       29.848       16.905      738.194      890.896      285.793        1.326        0.096      155.232       13.620        0.008      330.885       -1.456      859.079
12/19/2013  20:08:00       13.640       73.630        9.553       33.348       56.381       34.341     1112.075     3178.847     1179.291        0.558        0.274       74.883       36.960        0.244      330.888       -1.450      859.053
12/19/2013  20:09:00       27.381       55.190       -5.385       25.351       36.378       23.916      642.667     1323.368      571.973        0.318        0.127       61.609       18.839        0.094      330.863       -1.491      859.001
12/19/2013  20:10:00       42.953       58.438        7.308       44.523       32.148       21.446     1982.306     1033.472      459.926        0.439        0.174       72.525       20.518        0.080      330.886       -1.452      858.958
12/19/2013  20:11:00       42.329       33.438       10.391       30.856       42.614       19.628      952.077     1815.978      385.250        0.309        0.158       53.943       23.448        0.189      330.921       -1.396      858.929
12/19/2013  20:12:00       41.212       32.157        3.634       21.592       12.619       12.263      466.201      159.244      150.383        0.176        0.039       52.273        4.579        0.008      330.881       -1.462      858.934
12/19/2013  20:13:00       44.297       59.200       -2.340       24.326       30.423       21.677      591.743      925.577      469.899        0.373        0.099       73.938       21.004        0.081      330.896       -1.439      858.943
12/19/2013  20:14:00       21.075       89.792      -13.866       30.314       27.720       13.975      918.942      768.411      195.301        0.529        0.094       92.232       13.257        0.021      330.898       -1.434      858.962
12/19/2013  20:15:00       16.330       60.300       -2.651       27.540       34.793       21.445      758.466     1210.551      459.884        0.317        0.121       62.472       22.421        0.129      330.935       -1.373      858.975
12/19/2013  20:16:00        8.192       94.228      -13.075       25.362       35.450       18.254      643.243     1256.715      333.204        0.567        0.112       94.583       13.082        0.019      330.958       -1.335      858.976
12/19/2013  20:17:00       37.098       86.261      -14.313       28.881       36.444       18.561      834.102     1328.197      344.501        0.576        0.125       93.900       19.738        0.044      330.915       -1.406      858.980
12/19/2013  20:18:00       25.092       30.795        2.081       40.429       18.125       19.143     1634.469      328.520      366.464        0.196        0.116       39.723       17.312        0.190      330.931       -1.379      858.987
12/19/2013  20:19:00       12.172       79.886      -11.873       24.441       25.383       15.224      597.351      644.308      231.767        0.407        0.074       80.808       14.911        0.034      330.948       -1.351      859.011
12/19/2013  20:20:00       33.862       68.877       -6.389       18.788       26.602       19.985      353.008      707.645      399.411        0.370        0.073       76.751       18.377        0.057      330.943       -1.358      859.032
12/19/2013  20:21:00       33.615       39.207        1.073       32.852       26.696       18.016     1079.277      712.677      324.585        0.239        0.106       51.644       12.421        0.058      330.930       -1.382      859.040
12/19/2013  20:22:00       15.459       51.060       -9.638       18.819       20.501       13.693      354.171      420.301      187.487        0.195        0.048       53.349        8.747        0.027      330.944       -1.359      859.050
12/19/2013  20:23:00       29.375       54.837        2.473       25.877       28.348       17.805      669.600      803.634      317.025        0.283        0.090       62.209       16.479        0.070      330.920       -1.397      859.071
12/19/2013  20:24:00       24.914       63.927       -1.769       31.020       50.161       28.649      962.237     2516.167      820.742        0.450        0.215       68.610       24.684        0.129      330.917       -1.402      859.106
12/19/2013  20:25:00        4.356       50.139        0.007       27.885       41.620       19.103      777.594     1732.226      364.937        0.270        0.144       50.328       12.401        0.061      330.911       -1.412      859.152
12/19/2013  20:26:00       32.126       42.862       -5.653       19.748       22.648       17.225      389.983      512.925      296.684        0.205        0.060       53.565       13.266        0.061      330.953       -1.344      859.169
12/19/2013  20:27:00       33.285       36.789       13.740       39.355       46.820       33.745     1548.829     2192.080     1138.728        0.376        0.244       49.612       25.514        0.264      330.952       -1.344      859.196
12/19/2013  20:28:00       32.910       62.178        5.227       44.266       37.029       36.446     1959.436     1371.161     1328.286        0.482        0.233       70.350       23.247        0.109      330.909       -1.414      859.235
12/19/2013  20:29:00       39.004       81.614       -0.019       41.304       42.547       34.577     1706.045     1810.226     1195.569        0.645        0.236       90.456       26.795        0.088      330.893       -1.442      859.269
12/19/2013  20:30:00       45.371       88.868       -4.412       47.833       44.765       36.550     2287.962     2003.910     1335.899        0.780        0.281       99.780       33.682        0.114      330.888       -1.453      859.295
12/19/2013  20:31:00       34.830       85.632       -5.904       41.781       69.440       36.133     1745.685     4821.886     1305.584        0.823        0.394       92.444       40.978        0.196      330.888       -1.453      859.300
12/19/2013  20:32:00       33.918       80.093       -8.074       41.030       34.949       28.461     1683.496     1221.458      810.005        0.567        0.186       86.979       16.032        0.034      330.895       -1.439      859.298
12/19/2013  20:33:00       44.737       59.833        8.268       33.371       42.628       30.947     1113.639     1817.154      957.735        0.477        0.194       74.709       24.708        0.109      330.902       -1.427      859.300
12/19/2013  20:34:00       59.043      102.323        2.091       37.248       61.104       43.317     1387.404     3733.750     1876.405        1.048        0.350      118.136       38.624        0.107      330.915       -1.405      859.313
12/19/2013  20:35:00       69.656       71.096        8.730       48.152       41.982       32.620     2318.606     1762.474     1064.071        0.756        0.257       99.532       29.064        0.085      330.899       -1.433      859.319
12/19/2013  20:36:00       40.440       57.959        3.484       32.034       35.680       27.910     1026.146     1273.088      778.987        0.404        0.154       70.673       22.313        0.100      330.916       -1.404      859.331
12/19/2013  20:37:00       68.456       68.396       -0.576       42.886       34.600       31.678     1839.187     1197.141     1003.516        0.670        0.202       96.769       22.650        0.055      330.906       -1.422      859.328
12/19/2013  20:38:00       20.671       62.496        1.207       34.222       39.843       28.809     1171.157     1587.480      829.944        0.396        0.179       65.826       22.740        0.119      330.900       -1.432      859.314
12/19/2013  20:39:00       61.377       58.138        0.295       39.552       32.491       30.193     1564.329     1055.639      911.618        0.534        0.177       84.541       25.500        0.091      330.905       -1.422      859.310
12/19/2013  20:40:00       44.704       47.962       12.250       28.387       25.407       19.806      805.843      645.503      392.271        0.315        0.092       65.565       16.717        0.065      330.909       -1.416      859.344
12/19/2013  20:41:00       21.499       62.138       -0.843       32.380       49.660       28.599     1048.441     2466.121      817.897        0.433        0.217       65.752       23.648        0.129      330.890       -1.449      859.387
12/19/2013  20:42:00       28.759       74.811       -7.259       34.794       56.289       30.707     1210.605     3168.452      942.934        0.590        0.266       80.149       28.755        0.129      330.885       -1.456      859.428
12/19/2013  20:43:00       47.472       47.780       12.182       39.550       31.553       30.468     1564.190      995.588      928.325        0.409        0.174       67.353       15.459        0.053      330.904       -1.425      859.468
12/19/2013  20:44:00       40.596      101.891       -6.253       40.749       58.453       31.504     1660.455     3416.784      992.492        0.907        0.303      109.681       33.616        0.094      330.887       -1.454      859.500
12/19/2013  20:45:00       54.189      112.968       -6.876       40.199       68.031       40.621     1615.938     4628.176     1650.062        1.182        0.395      125.293       38.879        0.096      330.900       -1.430      859.525
12/19/2013  20:46:00       43.483      142.168      -22.189       40.384       44.001       27.847     1630.834     1936.111      775.455        1.347        0.217      148.669       26.865        0.033      330.901       -1.428      859.546
12/19/2013  20:47:00       26.953       74.465       -1.297       32.456       54.645       34.392     1053.407     2986.095     1182.777        0.575        0.261       79.193       34.694        0.192      330.911       -1.411      859.552
12/19/2013  20:48:00       31.396       57.310        7.895       36.854       43.729       32.456     1358.181     1912.198     1053.382        0.433        0.216       65.346       30.661        0.220      330.933       -1.378      859.527
12/19/2013  20:49:00       28.260      122.157      -16.151       39.844       47.617       29.737     1587.516     2267.372      884.312        1.036        0.237      125.383       28.936        0.053      330.947       -1.353      859.495
12/19/2013  20:50:00       50.470       86.053        3.411       41.969       36.038       33.712     1761.385     1298.771     1136.530        0.708        0.210       99.761       24.281        0.059      330.939       -1.367      859.475
12/19/2013  20:51:00       33.918       87.713       -1.914       50.082       56.076       34.602     2508.209     3144.571     1197.321        0.785        0.343       94.043       32.587        0.120      330.963       -1.326      859.480
12/19/2013  20:52:00       68.683       78.366        6.345       40.709       46.826       35.714     1657.246     2192.657     1275.476        0.801        0.256      104.204       30.187        0.084      330.959       -1.334      859.497
12/19/2013  20:53:00       37.803       89.618        1.282       44.221       58.282       29.745     1955.533     3396.740      884.788        0.785        0.312       97.265       24.813        0.065      330.949       -1.349      859.501
12/19/2013  20:54:00       66.751       79.028       -1.570       53.631       50.776       36.136     2876.251     2578.242     1305.809        0.873        0.338      103.446       31.162        0.091      330.958       -1.335      859.495
12/19/2013  20:55:00       90.631       80.197       -9.824       39.586       37.997       29.015     1567.022     1443.750      841.846        0.930        0.193      121.018       26.043        0.046      330.937       -1.370      859.496
12/19/2013  20:56:00       91.313       68.960       18.246       38.622       29.721       31.130     1491.641      883.345      969.089        0.838        0.167      114.427       17.242        0.023      330.935       -1.375      859.504
12/19/2013  20:57:00       85.273       57.657       18.260       33.636       31.624       22.524     1131.369     1000.074      507.345        0.678        0.132      102.936       13.777        0.018      330.955       -1.341      859.508
12/19/2013  20:58:00       63.307       55.367        7.651       37.961       26.562       24.713     1441.074      705.541      610.740        0.494        0.138       84.103       16.749        0.040      330.939       -1.365      859.520
12/19/2013  20:59:00      118.722       53.580        9.199       45.132       33.544       22.597     2036.907     1125.207      510.633        1.036        0.184      130.252       20.951        0.026      330.950       -1.349      859.531
12/19/2013  21:00:00      115.026       83.613       10.061       44.301       37.063       28.926     1962.536     1373.700      836.694        1.225        0.209      142.205       19.590        0.019      330.962       -1.331      859.536
12/19/2013  21:01:00      110.228       71.236        4.477       24.771       22.388       17.846      613.621      501.214      318.485        0.934        0.072      131.243       13.476        0.011      330.951       -1.346      859.541
12/19/2013  21:02:00       84.757       53.636        7.619       26.305       24.722       23.442      691.975      611.198      549.541        0.599        0.093      100.303       16.206        0.026      330.961       -1.330      859.545
12/19/2013  21:03:00      111.501       57.653        5.512       35.216       27.906       25.714     1240.170      778.724      661.195        0.923        0.134      125.525       17.456        0.019      330.951       -1.348      859.546
12/19/2013  21:04:00      113.171       72.881       16.749       40.150       30.167       31.948     1612.045      910.021     1020.682        1.097        0.177      134.608       21.252        0.025      330.923       -1.393      859.541
12/19/2013  21:05:00      110.664       53.903       19.453       31.072       31.517       22.776      965.496      993.332      518.733        0.900        0.124      123.093       17.278        0.020      330.932       -1.378      859.539
12/19/2013  21:06:00       83.856       49.054       14.110       36.900       29.138       22.719     1361.612      849.044      516.138        0.618        0.136       97.150       17.149        0.031      330.942       -1.362      859.547
12/19/2013  21:07:00       94.191       70.172       12.575       38.557       23.196       23.111     1486.633      538.035      534.124        0.826        0.128      117.457        9.335        0.006      330.930       -1.382      859.561
12/19/2013  21:08:00       66.192       37.568       12.973       27.565       24.292       24.184      759.838      590.119      584.867        0.395        0.097       76.110       18.359        0.058      330.917       -1.403      859.572
12/19/2013  21:09:00       86.838       75.791       13.063       37.885       23.013       30.040     1435.260      529.577      902.412        0.816        0.143      115.261       15.216        0.017      330.921       -1.396      859.581
12/19/2013  21:10:00       97.194       70.438       -1.521       34.996       31.353       28.603     1224.743      982.984      818.117        0.872        0.151      120.034       21.502        0.032      330.928       -1.386      859.588
12/19/2013  21:11:00       75.140       52.953        6.040       30.290       27.821       24.593      917.476      774.028      604.792        0.539        0.115       91.924       20.064        0.048      330.895       -1.439      859.595
12/19/2013  21:12:00       38.071       16.154       -2.965       35.354       33.613       22.184     1249.929     1129.856      492.116        0.230        0.144       41.357       13.561        0.108      330.899       -1.433      859.613
12/19/2013  21:13:00       33.058       31.673       -2.138       26.990       19.739       20.916      728.487      389.612      437.480        0.183        0.078       45.782       15.566        0.116      330.880       -1.465      859.625
12/19/2013  21:14:00       32.837       45.626       -0.814       23.562       30.533       18.196      555.170      932.270      331.101        0.249        0.091       56.214       16.671        0.088      330.865       -1.488      859.622
12/19/2013  21:15:00       28.676       33.256       -3.094       20.574       19.703       13.184      423.288      388.209      173.806        0.146        0.049       43.912       11.423        0.068      330.855       -1.502      859.594
12/19/2013  21:16:00       44.731       43.585        0.376       25.260       33.068       27.793      638.062     1093.509      772.443        0.320        0.125       62.454       22.841        0.134      330.826       -1.551      859.576
12/19/2013  21:17:00       51.410       65.031       -4.871       28.492       30.886       23.630      811.781      953.915      558.398        0.461        0.116       82.898       20.870        0.063      330.791       -1.612      859.554
12/19/2013  21:18:00       55.307       36.180        8.712       42.400       19.488       21.206     1797.729      379.771      449.711        0.354        0.131       66.090       16.435        0.062      330.800       -1.596      859.535
12/19/2013  21:19:00       42.776       33.132        7.157       22.323       23.629       16.030      498.323      558.351      256.970        0.215        0.066       54.106        8.138        0.023      330.795       -1.603      859.524
12/19/2013  21:20:00       61.297       31.811        0.495       18.610       14.788       14.080      346.329      218.676      198.235        0.277        0.038       69.060       10.140        0.022      330.788       -1.617      859.533
12/19/2013  21:21:00       67.269       40.738        4.471       23.084       13.896       14.793      532.861      193.099      218.840        0.357        0.047       78.643       10.302        0.017      330.767       -1.651      859.529
12/19/2013  21:22:00       66.792       42.385        7.289       20.387       18.449       19.301      415.610      340.370      372.527        0.372        0.056       79.105       14.221        0.032      330.759       -1.663      859.527
12/19/2013  21:23:00       81.993       34.137       10.977       25.177       13.648       17.809      633.857      186.280      317.147        0.457        0.057       88.815       17.091        0.037      330.739       -1.696      859.531
12/19/2013  21:24:00       48.126       37.191        9.352       30.033       18.024       10.615      901.961      324.855      112.676        0.256        0.067       60.822        8.126        0.018      330.731       -1.708      859.553
12/19/2013  21:25:00       28.853       67.472       -3.753       21.187       29.835       21.656      448.882      890.156      468.985        0.360        0.090       73.382       21.098        0.083      330.729       -1.713      859.586
12/19/2013  21:26:00       27.145       72.673      -10.845       26.114       31.046       21.754      681.922      963.858      473.217        0.413        0.106       77.577       18.425        0.056      330.710       -1.743      859.605
12/19/2013  21:27:00       70.577       69.839       -5.368       44.396       31.197       30.246     1971.045      973.248      914.803        0.687        0.193       99.290       24.907        0.063      330.669       -1.809      859.613
12/19/2013  21:28:00       57.921       58.608        3.350       36.619       28.616       27.100     1340.945      818.849      734.399        0.485        0.145       82.400       19.497        0.056      330.652       -1.838      859.617
12/19/2013  21:29:00       39.491       69.171       -5.459       29.287       33.405       26.658      857.704     1115.909      710.645        0.453        0.134       79.650       23.538        0.087      330.615       -1.898      859.630
12/19/2013  21:30:00       34.001       69.926       -3.624       32.907       37.922       27.372     1082.895     1438.042      749.225        0.466        0.164       77.754       23.995        0.095      330.622       -1.887      859.642
12/19/2013  21:31:00       22.244       66.584       -1.458       31.561       45.228       29.302      996.115     2045.616      858.627        0.441        0.195       70.201       27.073        0.149      330.603       -1.918      859.660
12/19/2013  21:32:00       31.806       71.634        3.121       38.495       38.752       35.067     1481.861     1501.696     1229.709        0.518        0.211       78.378       29.449        0.141      330.620       -1.890      859.689
12/19/2013  21:33:00       17.722       85.712       -9.359       25.032       40.806       22.691      626.589     1665.166      514.871        0.528        0.140       87.525       23.899        0.075      330.615       -1.898      859.725
12/19/2013  21:34:00       37.142      101.707       -9.842       40.421       39.789       26.634     1633.830     1583.171      709.351        0.787        0.196      108.277       27.109        0.063      330.603       -1.918      859.741
12/19/2013  21:35:00       34.519       68.503        0.758       40.584       48.758       37.882     1647.099     2377.362     1435.055        0.567        0.273       76.708       33.961        0.196      330.629       -1.875      859.731
12/19/2013  21:36:00        6.619      102.437       -8.635       29.313       39.485       17.705      859.262     1559.028      313.474        0.667        0.137      102.651       18.990        0.034      330.613       -1.902      859.704
12/19/2013  21:37:00       14.976      130.557      -16.566       34.178       53.876       25.252     1168.125     2902.635      637.676        1.113        0.235      131.414       28.190        0.046      330.651       -1.838      859.679
12/19/2013  21:38:00       25.314      154.644      -21.608       25.807       38.732       21.405      665.985     1500.157      458.182        1.382        0.131      156.702       18.382        0.014      330.635       -1.865      859.665
12/19/2013  21:39:00        9.400       88.622       -7.255       23.425       32.841       19.072      548.738     1078.561      363.729        0.499        0.100       89.119       16.823        0.036      330.616       -1.896      859.664
12/19/2013  21:40:00       18.108       74.794       -9.161       21.427       18.866       17.801      459.130      355.938      316.889        0.357        0.057       76.955       11.024        0.021      330.598       -1.927      859.666
12/19/2013  21:41:00       29.769       35.472        9.227       30.290       32.325       27.054      917.507     1044.925      731.922        0.246        0.135       46.308       20.320        0.193      330.603       -1.920      859.676
12/19/2013  21:42:00       27.250       62.962       -6.696       26.210       34.029       17.792      686.943     1157.996      316.551        0.346        0.108       68.606        9.944        0.021      330.583       -1.952      859.677
12/19/2013  21:43:00       37.541       62.590       -6.732       31.517       36.259       24.765      993.304     1314.727      613.284        0.415        0.146       72.985       24.403        0.112      330.592       -1.935      859.675
12/19/2013  21:44:00       19.912      116.813      -12.384       25.553       63.836       27.611      652.942     4075.052      762.347        0.984        0.275      118.498       36.685        0.096      330.578       -1.960      859.681
12/19/2013  21:45:00       61.849       49.039        2.352       39.127       28.749       26.506     1530.887      826.513      702.548        0.465        0.153       78.931       19.208        0.059      330.567       -1.978      859.689
12/19/2013  21:46:00       38.669       67.338        5.794       41.022       34.205       30.103     1682.803     1169.993      906.169        0.491        0.188       77.651       26.072        0.113      330.531       -2.037      859.702
12/19/2013  21:47:00       28.091      103.011       -0.026       40.151       51.835       34.647     1612.082     2686.907     1200.381        0.845        0.275      106.772       31.662        0.088      330.524       -2.049      859.715
12/19/2013  21:48:00        6.065      124.390      -13.771       33.154       44.839       25.312     1099.188     2010.547      640.719        0.972        0.188      124.537       19.162        0.024      330.539       -2.024      859.745
12/19/2013  21:49:00       18.822       94.087       -1.853       36.144       37.538       31.432     1306.355     1409.065      987.977        0.646        0.185       95.951       25.110        0.068      330.494       -2.099      859.755
12/19/2013  21:50:00       27.196       75.312       -4.437       22.317       26.488       23.936      498.043      701.592      572.950        0.410        0.089       80.073       19.794        0.061      330.479       -2.121      859.763
12/19/2013  21:51:00       40.456       57.078        0.112       35.419       42.955       27.964     1254.473     1845.103      782.007        0.439        0.194       69.961       29.220        0.174      330.452       -2.167      859.781
12/19/2013  21:52:00       10.777       81.912       -0.241       32.556       45.638       25.862     1059.912     2082.820      668.852        0.532        0.191       82.618       26.626        0.104      330.453       -2.165      859.815
12/19/2013  21:53:00        7.472      135.424      -13.601       28.491       30.838       19.234      811.715      950.990      369.938        1.036        0.107      135.630       15.411        0.013      330.490       -2.104      859.857
12/19/2013  21:54:00        9.876      112.508       -8.066       25.818       50.456       24.549      666.584     2545.768      602.671        0.832        0.191      112.940       29.115        0.066      330.476       -2.127      859.900
12/19/2013  21:55:00        8.803      156.084      -16.447       28.100       54.045       23.358      789.603     2920.879      545.590        1.448        0.213      156.332       29.461        0.036      330.445       -2.178      859.931
12/19/2013  21:56:00       13.554      147.536      -26.739       26.326       30.443       16.625      693.049      926.794      276.385        1.228        0.095      148.157       12.784        0.007      330.445       -2.179      859.945
12/19/2013  21:57:00       37.924      104.933       -9.852       35.107       77.098       32.961     1232.473     5944.058     1086.409        1.040        0.413      111.576       41.836        0.141      330.378       -2.287      859.949
12/19/2013  21:58:00       13.838       54.502        0.603       19.754       36.643       24.537      390.225     1342.707      602.048        0.275        0.117       56.231       23.070        0.168      330.333       -2.363      859.945
12/19/2013  21:59:00       25.025       48.096        4.010       37.731       53.580       30.180     1423.608     2870.835      910.825        0.408        0.260       54.217       32.918        0.369      330.359       -2.320      859.939
12/19/2013  22:00:00       63.047       60.167       10.824       46.387       32.960       25.579     2151.717     1086.380      654.266        0.580        0.195       87.150       17.752        0.041      330.346       -2.340      859.915
12/19/2013  22:01:00       74.381       75.124       -3.248       56.358       52.708       35.580     3176.227     2778.175     1265.963        0.920        0.361      105.718       32.021        0.092      330.344       -2.343      859.889
12/19/2013  22:02:00       56.837       63.248        8.538       25.013       41.554       31.037      625.640     1726.741      963.295        0.531        0.166       85.034       26.653        0.098      330.344       -2.345      859.870
12/19/2013  22:03:00       35.455       69.096        2.018       48.545       45.136       34.840     2356.572     2037.275     1213.835        0.582        0.280       77.661       27.226        0.123      330.311       -2.399      859.860
12/19/2013  22:04:00       49.492       90.224       -7.900       38.275       54.367       33.891     1464.969     2955.776     1148.579        0.811        0.278      102.907       29.859        0.084      330.289       -2.432      859.860
12/19/2013  22:05:00       38.807      117.937      -16.354       28.062       35.097       23.267      787.475     1231.834      541.347        0.912        0.128      124.158       14.823        0.014      330.268       -2.467      859.882
12/19/2013  22:06:00       72.897       77.263       -5.131       50.297       34.360       27.966     2529.772     1180.582      782.115        0.790        0.225      106.224       19.758        0.035      330.278       -2.452      859.905
12/19/2013  22:07:00       92.362       60.053        9.610       26.730       19.689       24.881      714.510      387.672      619.077        0.698        0.086      110.168        3.957        0.001      330.277       -2.453      859.914
12/19/2013  22:08:00      102.988       63.508       17.215       22.979       23.266       21.827      528.036      541.321      476.406        0.824        0.077      120.995       11.363        0.009      330.271       -2.462      859.921
12/19/2013  22:09:00       82.744       61.160       15.024       32.515       32.101       25.200     1057.224     1030.503      635.058        0.677        0.136      102.894       26.021        0.064      330.253       -2.490      859.911
12/19/2013  22:10:00       80.283       61.569       14.876       36.892       23.692       22.017     1360.996      561.320      484.770        0.643        0.120      101.174       18.565        0.034      330.249       -2.499      859.894
12/19/2013  22:11:00       30.590       79.689       -2.978       32.011       39.063       26.795     1024.685     1525.924      717.992        0.528        0.163       85.358       26.936        0.100      330.195       -2.588      859.870
12/19/2013  22:12:00       42.155       83.923       -7.702       40.905       52.168       29.524     1673.183     2721.450      871.640        0.707        0.263       93.915       29.937        0.102      330.273       -2.458      859.852
12/19/2013  22:13:00       46.496       76.811       -6.618       35.154       31.984       29.639     1235.814     1022.955      878.456        0.562        0.157       89.788       23.582        0.069      330.239       -2.515      859.841
12/19/2013  22:14:00       85.676       58.492        3.644       31.128       30.411       24.805      968.951      924.810      615.311        0.664        0.125      103.739       21.656        0.044      330.240       -2.514      859.842
12/19/2013  22:15:00       89.940       61.889        8.745       43.742       24.486       27.853     1913.373      599.576      775.766        0.764        0.164      109.176       24.996        0.052      330.271       -2.463      859.848
12/19/2013  22:16:00       52.576       52.996        4.679       41.637       25.518       23.402     1733.650      651.161      547.636        0.426        0.147       74.651       15.136        0.041      330.229       -2.531      859.851
12/19/2013  22:17:00       78.787       62.011       -0.426       35.449       28.793       23.311     1256.648      829.054      543.381        0.634        0.131      100.263       19.175        0.037      330.259       -2.482      859.832
12/19/2013  22:18:00       58.067       53.179        1.074       29.502       19.486       20.172      870.374      379.689      406.890        0.393        0.083       78.738       13.224        0.028      330.211       -2.561      859.804
12/19/2013  22:19:00       55.971       33.366        4.697       23.014       16.946       15.455      529.622      287.171      238.864        0.266        0.053       65.161       10.317        0.025      330.177       -2.616      859.774
12/19/2013  22:20:00       45.392       80.408       -7.433       39.681       21.677       16.986     1574.578      469.898      288.534        0.546        0.117       92.335       12.596        0.019      330.206       -2.571      859.764
12/19/2013  22:21:00       42.997       71.313       -5.451       34.249       36.421       27.654     1173.004     1326.474      764.759        0.511        0.163       83.272       22.409        0.072      330.175       -2.620      859.779
12/19/2013  22:22:00       49.917       54.844       -3.016       27.149       38.304       26.786      737.064     1467.165      717.499        0.421        0.146       74.159       26.234        0.125      330.158       -2.649      859.811
12/19/2013  22:23:00       23.266       50.362        0.692       24.530       32.460       27.017      601.709     1053.654      729.920        0.273        0.119       55.477       16.945        0.093      330.122       -2.709      859.850
12/19/2013  22:24:00       38.124       47.437       -2.232       33.198       30.758       20.721     1102.076      946.044      429.381        0.309        0.124       60.858        9.885        0.026      330.136       -2.686      859.881
12/19/2013  22:25:00       41.891       98.766       -5.853       32.076       55.142       32.592     1028.862     3040.641     1062.264        0.834        0.257      107.283       32.103        0.090      330.194       -2.591      859.884
12/19/2013  22:26:00       46.437       86.595       -6.323       55.944       48.333       34.651     3129.775     2336.083     1200.668        0.818        0.333       98.260       30.206        0.095      330.188       -2.600      859.876
12/19/2013  22:27:00       36.158      104.504       -4.962       39.408       69.055       35.542     1553.007     4768.651     1263.220        0.992        0.379      110.582       34.398        0.097      330.161       -2.646      859.877
12/19/2013  22:28:00       44.343       71.866       -0.399       42.104       41.681       31.941     1772.780     1737.266     1020.251        0.583        0.227       84.446       24.914        0.087      330.116       -2.719      859.900
12/19/2013  22:29:00       98.521       56.124       -0.674       30.706       29.837       31.456      942.858      890.267      989.458        0.784        0.141      113.386       15.985        0.020      330.097       -2.748      859.926
12/19/2013  22:30:00       87.379       70.797        4.662       47.538       39.072       30.040     2259.898     1526.652      902.400        0.868        0.234      112.461       23.355        0.043      330.045       -2.832      859.924
12/19/2013  22:31:00       52.473       81.259       -0.735       43.847       58.951       41.771     1922.559     3475.248     1744.829        0.825        0.357       96.729       42.470        0.193      330.038       -2.845      859.891
12/19/2013  22:32:00       35.914       96.738       -5.711       45.268       51.581       33.083     2049.182     2660.579     1094.488        0.824        0.290      103.190       31.292        0.092      330.049       -2.827      859.850
12/19/2013  22:33:00       34.659      119.518      -13.052       43.795       55.030       33.132     1917.997     3028.273     1097.756        1.085        0.302      124.442       30.186        0.059      330.068       -2.795      859.836
12/19/2013  22:34:00       27.862      104.292      -13.216       38.612       53.977       29.357     1490.890     2913.570      861.821        0.855        0.263      107.950       33.820        0.098      330.083       -2.771      859.849
12/19/2013  22:35:00       19.896      123.216      -15.904       32.887       43.485       31.624     1081.560     1890.921     1000.080        0.990        0.199      124.812       30.075        0.058      330.111       -2.726      859.876
12/19/2013  22:36:00       18.240       98.237       -5.207       30.133       44.421       26.764      908.019     1973.218      716.302        0.680        0.180       99.916       23.457        0.055      330.075       -2.785      859.893
12/19/2013  22:37:00       25.332      117.232       -3.519       40.678       45.585       33.971     1654.717     2077.949     1154.007        0.964        0.244      119.938       29.700        0.061      330.107       -2.732      859.914
12/19/2013  22:38:00       42.751       85.349        5.980       38.257       51.254       36.002     1463.568     2627.007     1296.150        0.727        0.269       95.457       34.015        0.127      330.082       -2.772      859.947
12/19/2013  22:39:00       55.721       71.821        6.914       47.026       59.078       39.897     2211.408     3490.220     1591.760        0.780        0.365       90.901       34.394        0.143      330.050       -2.825      859.996
12/19/2013  22:40:00       65.853       91.391        3.086       50.926       49.434       37.354     2593.496     2443.746     1395.341        0.956        0.322      112.645       34.300        0.093      330.040       -2.842      860.018
12/19/2013  22:41:00       34.467      140.543      -14.655       41.060       48.822       34.636     1685.955     2383.574     1199.629        1.321        0.263      144.708       29.413        0.041      330.036       -2.848      860.015
12/19/2013  22:42:00       23.542       99.545       -3.360       39.740       63.574       40.040     1579.274     4041.597     1603.228        0.885        0.361      102.291       43.107        0.178      330.024       -2.869      859.996
12/19/2013  22:43:00       33.543       81.662       -9.915       36.879       60.285       30.758     1360.075     3634.338      946.084        0.692        0.297       88.283       29.281        0.110      330.004       -2.901      859.987
12/19/2013  22:44:00       18.183       98.150        5.709       39.343       45.008       35.115     1547.897     2025.737     1233.086        0.740        0.240       99.820       29.697        0.089      329.975       -2.948      859.969
12/19/2013  22:45:00       32.432       61.999       14.377       42.794       54.649       38.037     1831.358     2986.553     1446.783        0.568        0.313       69.970       31.282        0.200      329.979       -2.942      859.932
12/19/2013  22:46:00       68.899       67.835       14.596       66.169       42.226       31.192     4378.328     1783.037      972.922        0.835        0.357       96.688       23.352        0.058      329.961       -2.971      859.900
12/19/2013  22:47:00       63.751       54.680        6.260       38.453       24.186       25.933     1478.613      584.948      672.528        0.491        0.137       83.989       19.222        0.052      329.959       -2.973      859.888
12/19/2013  22:48:00       34.182       73.745       -1.504       27.288       31.753       28.613      744.633     1008.279      818.732        0.459        0.129       81.282       21.920        0.073      329.945       -2.998      859.886
12/19/2013  22:49:00       35.227       63.623       -2.247       29.098       39.036       25.413      846.709     1523.814      645.842        0.415        0.151       72.725       21.702        0.089      329.916       -3.046      859.879
12/19/2013  22:50:00       29.840       88.865       -2.910       33.128       53.625       33.977     1097.447     2875.678     1154.416        0.696        0.256       93.741       33.840        0.130      329.920       -3.039      859.863
12/19/2013  22:51:00       26.201      111.728       -7.835       29.221       32.417       23.391      853.894     1050.871      547.135        0.784        0.123      114.759       16.928        0.022      329.909       -3.057      859.841
12/19/2013  22:52:00       35.421       89.466       -3.633       37.641       44.077       29.237     1416.826     1942.825      854.819        0.674        0.211       96.223       22.751        0.056      329.912       -3.052      859.833
12/19/2013  22:53:00       39.344       99.121       -8.202       44.299       47.029       33.406     1962.391     2211.707     1115.971        0.836        0.265      106.644       31.835        0.089      329.905       -3.064      859.855
12/19/2013  22:54:00       25.112      102.962       -3.200       38.966       66.091       38.966     1518.354     4368.043     1518.329        0.932        0.370      105.980       36.997        0.122      329.873       -3.115      859.876
12/19/2013  22:55:00       25.524      118.123       -6.741       38.874       52.807       36.602     1511.171     2788.602     1339.714        1.014        0.282      120.849       29.478        0.059      329.866       -3.127      859.890
12/19/2013  22:56:00       39.209      130.839      -11.558       45.759       62.326       41.898     2093.855     3884.541     1755.481        1.326        0.387      136.587       40.586        0.088      329.887       -3.093      859.900
12/19/2013  22:57:00       31.041      113.647       -7.282       35.655       62.645       42.201     1271.312     3924.356     1780.919        1.045        0.349      117.810       42.891        0.133      329.883       -3.098      859.908
12/19/2013  22:58:00       22.743       90.431       -0.941       40.971       44.230       35.361     1678.639     1956.306     1250.409        0.679        0.244       93.247       25.248        0.073      329.848       -3.156      859.920
12/19/2013  22:59:00       24.671      117.315       -6.981       49.510       68.519       40.736     2451.260     4694.806     1659.424        1.161        0.440      119.881       45.240        0.142      329.862       -3.133      859.940
12/19/2013  23:00:00       36.919      157.399      -18.659       41.700       66.940       35.092     1738.917     4480.935     1231.453        1.697        0.373      161.670       40.759        0.064      329.895       -3.082      859.948
12/19/2013  23:01:00       30.177      203.155      -27.902       33.692       40.183       24.285     1135.151     1614.708      589.775        2.315        0.167      205.384       17.693        0.007      329.887       -3.094      859.951
12/19/2013  23:02:00       28.972      181.977      -22.597       37.033       33.954       22.522     1371.452     1152.880      507.235        1.875        0.152      184.269       19.867        0.012      329.887       -3.094      859.943
12/19/2013  23:03:00       24.046      138.495      -10.151       36.953       48.152       35.445     1365.532     2318.653     1256.319        1.240        0.247      140.567       31.333        0.050      329.823       -3.196      859.940
12/19/2013  23:04:00       26.754      167.404      -17.580       32.178       39.926       28.020     1035.448     1594.117      785.129        1.623        0.171      169.528       24.069        0.020      329.852       -3.149      859.940
12/19/2013  23:05:00       28.880      153.322      -19.153       32.162       38.529       23.221     1034.372     1484.522      539.201        1.388        0.153      156.018       17.533        0.013      329.854       -3.146      859.942
12/19/2013  23:06:00       10.729      175.989      -24.206       34.327       37.293       21.366     1178.313     1390.766      456.501        1.735        0.151      176.315       19.206        0.012      329.924       -3.033      859.948
12/19/2013  23:07:00      -10.380      176.459      -22.497       20.940       23.271       16.517      438.487      541.559      272.809        1.650        0.063      176.764       14.244        0.006      329.953       -2.984      859.952
12/19/2013  23:08:00        7.223      152.975      -23.824       23.655       31.604       16.197      559.560      998.822      262.351        1.292        0.091      153.145       15.810        0.011      329.996       -2.914      859.946
12/19/2013  23:09:00      -12.030      140.849      -19.670       31.822       30.804       22.697     1012.662      948.907      515.140        1.142        0.124      141.362       17.627        0.016      329.987       -2.930      859.938
12/19/2013  23:10:00        7.539      168.734      -19.186       28.733       26.981       17.257      825.581      727.983      297.799        1.537        0.093      168.902       14.339        0.007      329.940       -3.005      859.929
12/19/2013  23:11:00      -18.132      145.214      -20.435       28.870       27.737       21.084      833.499      769.322      444.555        1.194        0.102      146.342       14.236        0.009      330.026       -2.864      859.927
12/19/2013  23:12:00      -20.558      129.676      -19.168       25.048       31.000       18.900      627.386      960.999      357.197        0.978        0.097      131.295       13.696        0.011      329.953       -2.985      859.911
12/19/2013  23:13:00      -29.706      157.535      -21.572       24.669       22.092       16.163      608.551      488.077      261.227        1.376        0.068      160.311       10.561        0.004      329.992       -2.920      859.910
12/19/2013  23:14:00      -19.723      123.168      -16.802       23.704       41.762       18.432      561.885     1744.095      339.728        0.924        0.132      124.737       21.028        0.028      330.110       -2.728      859.923
12/19/2013  23:15:00      -25.053      138.317      -20.142       30.131       26.341       18.172      907.906      693.873      330.222        1.105        0.097      140.567        9.163        0.004      330.129       -2.695      859.936
12/19/2013  23:16:00      -29.279      148.011      -19.345       27.959       37.457       20.700      781.724     1403.013      428.500        1.288        0.131      150.879       21.011        0.019      330.030       -2.858      859.933
12/19/2013  23:17:00      -24.167      152.677      -21.760       31.452       36.446       15.728      989.238     1328.286      247.367        1.347        0.128      154.578       16.898        0.012      330.078       -2.779      859.919
12/19/2013  23:18:00      -25.071      151.269      -25.763       27.941       29.318       14.996      780.716      859.560      224.872        1.302        0.093      153.332       10.113        0.004      330.046       -2.831      859.892
12/19/2013  23:19:00      -55.401      106.597      -16.642       40.262       47.456       24.252     1621.008     2252.094      588.148        0.958        0.223      120.134       26.902        0.050      330.176       -2.619      859.870
12/19/2013  23:20:00      -48.283       96.001      -17.123       38.217       31.227       24.693     1460.574      975.143      609.766        0.744        0.152      107.459       21.700        0.041      330.003       -2.903      859.868
12/19/2013  23:21:00      -22.866       68.880       -2.641       26.973       45.408       19.914      727.569     2061.843      396.565        0.423        0.159       72.576       19.552        0.073      330.038       -2.845      859.874
12/19/2013  23:22:00      -49.238       37.846       -9.254       32.279       23.165       21.586     1041.902      536.632      465.936        0.299        0.102       62.102       14.567        0.055      330.113       -2.721      859.859
12/19/2013  23:23:00      -74.445       42.916      -12.477       26.468       38.265       20.089      700.543     1464.242      403.563        0.505        0.128       85.929       18.861        0.048      330.000       -2.907      859.847
12/19/2013  23:24:00      -33.507       49.321       -9.815       31.644       47.786       22.955     1001.326     2283.513      526.937        0.373        0.191       59.626       23.041        0.149      329.988       -2.926      859.836
12/19/2013  23:25:00      -74.636        5.235       -3.079       48.441       22.225       18.812     2346.551      493.973      353.907        0.440        0.160       74.820       19.250        0.066      329.742       -3.329      859.832
12/19/2013  23:26:00      -83.247       15.172      -13.038       45.152       31.821       18.989     2038.717     1012.570      360.586        0.537        0.171       84.618       17.060        0.041      329.686       -3.420      859.811
12/19/2013  23:27:00     -143.744       -7.359      -13.325       22.867       22.939       15.348      522.895      526.183      235.565        1.109        0.064      143.932        8.792        0.004      329.617       -3.533      859.777
12/19/2013  23:28:00     -134.584        1.461      -13.265       33.349       20.327       19.033     1112.167      413.167      362.244        1.009        0.094      134.592       18.619        0.019      329.556       -3.633      859.752
12/19/2013  23:29:00     -118.668       -1.325      -11.568       30.547       26.230       22.369      933.130      687.992      500.367        0.817        0.106      118.675       18.963        0.026      329.524       -3.685      859.736
12/19/2013  23:30:00      -83.318       11.493       -5.797       37.944       26.622       21.344     1439.714      708.733      455.562        0.486        0.130       84.107       18.459        0.048      329.500       -3.725      859.737
12/19/2013  23:31:00     -101.741       -0.815      -13.413       21.648       27.109       12.270      468.631      734.904      150.563        0.594        0.068      101.745       10.360        0.010      329.627       -3.517      859.762
12/19/2013  23:32:00      -73.737      -26.498       -8.659       13.643       17.099       15.783      186.121      292.360      249.107        0.347        0.036       78.353        4.653        0.004      329.686       -3.421      859.788
12/19/2013  23:33:00      -90.354      -17.381      -11.459       19.912       23.510       18.577      396.503      552.732      345.103        0.495        0.065       92.011       15.381        0.028      329.682       -3.427      859.791
12/19/2013  23:34:00      -73.089       -8.436       -7.961       18.833       23.812       12.511      354.676      567.012      156.522        0.328        0.054       73.574        7.781        0.011      329.729       -3.351      859.788
12/19/2013  23:35:00      -65.506      -14.026      -11.892       30.873       22.542       17.174      953.155      508.127      294.944        0.319        0.088       66.990       14.670        0.048      329.688       -3.417      859.779
12/19/2013  23:36:00      -94.596       42.368      -17.633       28.849       37.405       19.602      832.285     1399.098      384.223        0.683        0.131      103.650       23.577        0.052      329.784       -3.262      859.775
12/19/2013  23:37:00      -71.893       34.448      -14.621       34.796       20.452       16.978     1210.795      418.283      288.246        0.424        0.096       79.720       14.470        0.033      329.780       -3.268      859.764
12/19/2013  23:38:00      -89.043       -2.064      -14.888       18.156       15.684       11.871      329.646      245.993      140.927        0.444        0.036       89.067        9.474        0.011      329.729       -3.348      859.751
12/19/2013  23:39:00      -66.202        3.314      -16.448       13.792       17.748       10.509      190.225      315.003      110.447        0.264        0.031       66.285        3.093        0.002      329.749       -3.318      859.739
12/19/2013  23:40:00      -70.548        1.022      -11.313       11.940       20.624       14.996      142.575      425.363      224.889        0.295        0.040       70.555        9.255        0.017      329.722       -3.363      859.734
12/19/2013  23:41:00      -48.805        9.585       -9.453       14.261       20.730       13.331      203.368      429.727      177.705        0.169        0.041       49.737        9.760        0.039      329.793       -3.246      859.737
12/19/2013  23:42:00      -47.164       10.485       -9.824       19.739       13.408       10.710      389.629      179.768      114.705        0.156        0.034       48.315        6.377        0.017      329.777       -3.272      859.743
12/19/2013  23:43:00      -28.296        3.248       -1.405       11.961       11.132        9.270      143.064      123.929       85.929        0.058        0.018       28.481        6.829        0.057      329.747       -3.319      859.745
12/19/2013  23:44:00      -35.105       30.731       -9.616       18.567       37.425       20.262      344.733     1400.605      410.547        0.221        0.108       46.656       24.193        0.269      329.856       -3.143      859.746
12/19/2013  23:45:00      -28.330       59.156       -6.072       19.948       27.815       13.320      397.918      773.680      177.417        0.284        0.067       65.590        6.814        0.011      329.876       -3.110      859.746
12/19/2013  23:46:00      -23.581       30.851        4.362       17.846       28.844       15.181      318.478      831.994      230.449        0.145        0.069       38.831       15.481        0.159      329.837       -3.175      859.726
12/19/2013  23:47:00       15.980       14.530       13.561       21.808       18.374       15.469      475.575      337.610      239.285        0.085        0.053       21.598       11.530        0.285      329.852       -3.149      859.693
12/19/2013  23:48:00       24.865       33.216        5.002       13.667       23.645       11.439      186.791      559.103      130.858        0.131        0.044       41.492       12.108        0.085      329.826       -3.192      859.667
12/19/2013  23:49:00        9.711       48.327       -3.409       17.327       38.444       19.127      300.218     1477.968      365.853        0.229        0.107       49.293       23.298        0.223      329.792       -3.247      859.660
12/19/2013  23:50:00        2.258       96.908      -18.151       13.018       14.272       11.613      169.471      203.679      134.856        0.512        0.025       96.934        6.514        0.005      329.759       -3.301      859.673
12/19/2013  23:51:00      -14.372      119.232      -14.382       16.462       19.355       12.311      270.983      374.609      151.568        0.771        0.040      120.095        8.309        0.005      329.849       -3.155      859.702
12/19/2013  23:52:00      -20.812      121.709      -17.787       16.594       25.462       15.820      275.371      648.290      250.268        0.837        0.059      123.476       12.429        0.010      329.921       -3.036      859.715
12/19/2013  23:53:00        7.570      109.858      -14.005       18.756       16.416        9.466      351.789      269.496       89.602        0.652        0.036      110.118        4.405        0.002      329.763       -3.296      859.724
12/19/2013  23:54:00        6.946       89.283       -5.141       23.924       29.574       14.168      572.342      874.611      200.743        0.485        0.082       89.552       12.439        0.019      329.725       -3.355      859.741
12/19/2013  23:55:00        4.827      113.367      -13.879       16.054       20.451       15.068      257.741      418.244      227.035        0.699        0.045      113.470       10.178        0.008      329.720       -3.365      859.771
12/19/2013  23:56:00        9.539      106.661      -15.998       11.331       17.258       13.723      128.382      297.842      188.324        0.617        0.031      107.087        9.263        0.007      329.662       -3.458      859.800
12/19/2013  23:57:00        7.595      106.553      -18.263       10.651       18.842        8.534      113.449      355.034       72.832        0.614        0.027      106.824        5.711        0.003      329.649       -3.481      859.809
12/19/2013  23:58:00        3.181       96.502       -8.943       15.360       20.871       13.237      235.939      435.591      175.211        0.512        0.042       96.554        7.564        0.006      329.681       -3.428      859.820
12/19/2013  23:59:00        9.902       80.790       -6.702       17.344       14.439       12.640      300.827      208.486      159.770        0.367        0.033       81.394        8.579        0.011      329.669       -3.450      859.831
